<?xml version="1.0" encoding="UTF-8" standalone="no" ?>
<gpx xmlns="http://www.topografix.com/GPX/1/1" xmlns:xsi="http://www.w3.org/2001/XMLSchema-instance" xsi:schemaLocation="http://www.topografix.com/GPX/1/1 http://www.topografix.com/GPX/1/1/gpx.xsd" version="1.1" creator="VisuGPX - https://www.visugpx.com">
  <metadata>
    <name>Punta dell'Oriente et punta di Zorpi</name>
    <desc><![CDATA[Du col de Vizzavona Punta dell'oriente et Punta Zorpi en boucle.
Beau parcours de crête.]]></desc>
  </metadata>
  <trk>
    <name><![CDATA[20180621175157-oqf7h]]></name>
    <trkseg>
      <trkpt lat="42.1122" lon="9.11267">
        <ele>1168</ele>
        <time>2018-06-16T04:45:47Z</time>
      </trkpt>
      <trkpt lat="42.1122" lon="9.11267">
        <ele>1168</ele>
        <time>2018-06-16T04:45:48Z</time>
      </trkpt>
      <trkpt lat="42.11223" lon="9.11266">
        <ele>1168</ele>
        <time>2018-06-16T04:46:17Z</time>
      </trkpt>
      <trkpt lat="42.11219" lon="9.11269">
        <ele>1168</ele>
        <time>2018-06-16T04:46:40Z</time>
      </trkpt>
      <trkpt lat="42.11218" lon="9.11268">
        <ele>1168</ele>
        <time>2018-06-16T04:46:42Z</time>
      </trkpt>
      <trkpt lat="42.11215" lon="9.11267">
        <ele>1168</ele>
        <time>2018-06-16T04:46:45Z</time>
      </trkpt>
      <trkpt lat="42.11201" lon="9.11247">
        <ele>1165</ele>
        <time>2018-06-16T04:47:06Z</time>
      </trkpt>
      <trkpt lat="42.112" lon="9.11246">
        <ele>1165</ele>
        <time>2018-06-16T04:47:07Z</time>
      </trkpt>
      <trkpt lat="42.11183" lon="9.11228">
        <ele>1164</ele>
        <time>2018-06-16T04:47:28Z</time>
      </trkpt>
      <trkpt lat="42.11161" lon="9.11219">
        <ele>1162</ele>
        <time>2018-06-16T04:47:48Z</time>
      </trkpt>
      <trkpt lat="42.11157" lon="9.11218">
        <ele>1162</ele>
        <time>2018-06-16T04:47:52Z</time>
      </trkpt>
      <trkpt lat="42.11146" lon="9.11234">
        <ele>1163</ele>
        <time>2018-06-16T04:48:10Z</time>
      </trkpt>
      <trkpt lat="42.11137" lon="9.11257">
        <ele>1174</ele>
        <time>2018-06-16T04:48:35Z</time>
      </trkpt>
      <trkpt lat="42.11119" lon="9.11271">
        <ele>1177</ele>
        <time>2018-06-16T04:48:57Z</time>
      </trkpt>
      <trkpt lat="42.11107" lon="9.11277">
        <ele>1178</ele>
        <time>2018-06-16T04:49:10Z</time>
      </trkpt>
      <trkpt lat="42.11104" lon="9.11278">
        <ele>1178</ele>
        <time>2018-06-16T04:49:15Z</time>
      </trkpt>
      <trkpt lat="42.11092" lon="9.11284">
        <ele>1180</ele>
        <time>2018-06-16T04:49:29Z</time>
      </trkpt>
      <trkpt lat="42.11078" lon="9.11296">
        <ele>1184</ele>
        <time>2018-06-16T04:49:47Z</time>
      </trkpt>
      <trkpt lat="42.11066" lon="9.11312">
        <ele>1186</ele>
        <time>2018-06-16T04:50:05Z</time>
      </trkpt>
      <trkpt lat="42.11054" lon="9.11324">
        <ele>1186</ele>
        <time>2018-06-16T04:50:24Z</time>
      </trkpt>
      <trkpt lat="42.1104" lon="9.11333">
        <ele>1186</ele>
        <time>2018-06-16T04:50:39Z</time>
      </trkpt>
      <trkpt lat="42.1103" lon="9.11342">
        <ele>1193</ele>
        <time>2018-06-16T04:50:53Z</time>
      </trkpt>
      <trkpt lat="42.1101" lon="9.11361">
        <ele>1193</ele>
        <time>2018-06-16T04:51:15Z</time>
      </trkpt>
      <trkpt lat="42.10987" lon="9.11383">
        <ele>1189</ele>
        <time>2018-06-16T04:51:40Z</time>
      </trkpt>
      <trkpt lat="42.10974" lon="9.114">
        <ele>1190</ele>
        <time>2018-06-16T04:52:00Z</time>
      </trkpt>
      <trkpt lat="42.10956" lon="9.11427">
        <ele>1200</ele>
        <time>2018-06-16T04:52:21Z</time>
      </trkpt>
      <trkpt lat="42.10939" lon="9.11445">
        <ele>1201</ele>
        <time>2018-06-16T04:52:43Z</time>
      </trkpt>
      <trkpt lat="42.10924" lon="9.11452">
        <ele>1202</ele>
        <time>2018-06-16T04:52:59Z</time>
      </trkpt>
      <trkpt lat="42.10907" lon="9.11464">
        <ele>1204</ele>
        <time>2018-06-16T04:53:15Z</time>
      </trkpt>
      <trkpt lat="42.10891" lon="9.11473">
        <ele>1205</ele>
        <time>2018-06-16T04:53:35Z</time>
      </trkpt>
      <trkpt lat="42.10888" lon="9.11482">
        <ele>1206</ele>
        <time>2018-06-16T04:53:55Z</time>
      </trkpt>
      <trkpt lat="42.10898" lon="9.11495">
        <ele>1210</ele>
        <time>2018-06-16T04:54:16Z</time>
      </trkpt>
      <trkpt lat="42.10904" lon="9.11507">
        <ele>1225</ele>
        <time>2018-06-16T04:54:37Z</time>
      </trkpt>
      <trkpt lat="42.10897" lon="9.11516">
        <ele>1227</ele>
        <time>2018-06-16T04:54:57Z</time>
      </trkpt>
      <trkpt lat="42.10887" lon="9.11527">
        <ele>1230</ele>
        <time>2018-06-16T04:55:21Z</time>
      </trkpt>
      <trkpt lat="42.10886" lon="9.11541">
        <ele>1232</ele>
        <time>2018-06-16T04:55:41Z</time>
      </trkpt>
      <trkpt lat="42.10893" lon="9.11552">
        <ele>1233</ele>
        <time>2018-06-16T04:56:01Z</time>
      </trkpt>
      <trkpt lat="42.10888" lon="9.11562">
        <ele>1235</ele>
        <time>2018-06-16T04:56:22Z</time>
      </trkpt>
      <trkpt lat="42.1088" lon="9.11568">
        <ele>1236</ele>
        <time>2018-06-16T04:56:43Z</time>
      </trkpt>
      <trkpt lat="42.10872" lon="9.11575">
        <ele>1238</ele>
        <time>2018-06-16T04:57:05Z</time>
      </trkpt>
      <trkpt lat="42.10877" lon="9.11584">
        <ele>1255</ele>
        <time>2018-06-16T04:57:26Z</time>
      </trkpt>
      <trkpt lat="42.10885" lon="9.11595">
        <ele>1254</ele>
        <time>2018-06-16T04:57:47Z</time>
      </trkpt>
      <trkpt lat="42.10885" lon="9.11613">
        <ele>1257</ele>
        <time>2018-06-16T04:58:10Z</time>
      </trkpt>
      <trkpt lat="42.10887" lon="9.11627">
        <ele>1259</ele>
        <time>2018-06-16T04:58:32Z</time>
      </trkpt>
      <trkpt lat="42.10883" lon="9.11631">
        <ele>1260</ele>
        <time>2018-06-16T04:58:49Z</time>
      </trkpt>
      <trkpt lat="42.10872" lon="9.11634">
        <ele>1262</ele>
        <time>2018-06-16T04:59:11Z</time>
      </trkpt>
      <trkpt lat="42.10861" lon="9.11631">
        <ele>1263</ele>
        <time>2018-06-16T04:59:33Z</time>
      </trkpt>
      <trkpt lat="42.1085" lon="9.11628">
        <ele>1264</ele>
        <time>2018-06-16T04:59:55Z</time>
      </trkpt>
      <trkpt lat="42.10842" lon="9.11626">
        <ele>1264</ele>
        <time>2018-06-16T05:00:15Z</time>
      </trkpt>
      <trkpt lat="42.10837" lon="9.11634">
        <ele>1267</ele>
        <time>2018-06-16T05:00:36Z</time>
      </trkpt>
      <trkpt lat="42.10837" lon="9.11646">
        <ele>1271</ele>
        <time>2018-06-16T05:00:58Z</time>
      </trkpt>
      <trkpt lat="42.10845" lon="9.11661">
        <ele>1276</ele>
        <time>2018-06-16T05:01:20Z</time>
      </trkpt>
      <trkpt lat="42.10845" lon="9.11673">
        <ele>1286</ele>
        <time>2018-06-16T05:01:42Z</time>
      </trkpt>
      <trkpt lat="42.10844" lon="9.11672">
        <ele>1286</ele>
        <time>2018-06-16T05:01:50Z</time>
      </trkpt>
      <trkpt lat="42.10836" lon="9.11666">
        <ele>1283</ele>
        <time>2018-06-16T05:02:10Z</time>
      </trkpt>
      <trkpt lat="42.10834" lon="9.11666">
        <ele>1285</ele>
        <time>2018-06-16T05:02:14Z</time>
      </trkpt>
      <trkpt lat="42.10825" lon="9.11668">
        <ele>1294</ele>
        <time>2018-06-16T05:02:37Z</time>
      </trkpt>
      <trkpt lat="42.10818" lon="9.11667">
        <ele>1285</ele>
        <time>2018-06-16T05:02:58Z</time>
      </trkpt>
      <trkpt lat="42.10809" lon="9.11666">
        <ele>1285</ele>
        <time>2018-06-16T05:03:20Z</time>
      </trkpt>
      <trkpt lat="42.10796" lon="9.11662">
        <ele>1286</ele>
        <time>2018-06-16T05:03:40Z</time>
      </trkpt>
      <trkpt lat="42.10783" lon="9.11661">
        <ele>1289</ele>
        <time>2018-06-16T05:03:59Z</time>
      </trkpt>
      <trkpt lat="42.10768" lon="9.11655">
        <ele>1294</ele>
        <time>2018-06-16T05:04:23Z</time>
      </trkpt>
      <trkpt lat="42.10756" lon="9.11649">
        <ele>1295</ele>
        <time>2018-06-16T05:04:38Z</time>
      </trkpt>
      <trkpt lat="42.10746" lon="9.11647">
        <ele>1303</ele>
        <time>2018-06-16T05:04:55Z</time>
      </trkpt>
      <trkpt lat="42.10737" lon="9.11649">
        <ele>1303</ele>
        <time>2018-06-16T05:05:13Z</time>
      </trkpt>
      <trkpt lat="42.10727" lon="9.11653">
        <ele>1303</ele>
        <time>2018-06-16T05:05:36Z</time>
      </trkpt>
      <trkpt lat="42.10717" lon="9.11659">
        <ele>1304</ele>
        <time>2018-06-16T05:05:58Z</time>
      </trkpt>
      <trkpt lat="42.10707" lon="9.1167">
        <ele>1331</ele>
        <time>2018-06-16T05:06:22Z</time>
      </trkpt>
      <trkpt lat="42.10699" lon="9.1168">
        <ele>1332</ele>
        <time>2018-06-16T05:06:45Z</time>
      </trkpt>
      <trkpt lat="42.10685" lon="9.11675">
        <ele>1332</ele>
        <time>2018-06-16T05:07:06Z</time>
      </trkpt>
      <trkpt lat="42.10671" lon="9.11667">
        <ele>1328</ele>
        <time>2018-06-16T05:07:26Z</time>
      </trkpt>
      <trkpt lat="42.10661" lon="9.1167">
        <ele>1331</ele>
        <time>2018-06-16T05:07:43Z</time>
      </trkpt>
      <trkpt lat="42.1065" lon="9.11671">
        <ele>1336</ele>
        <time>2018-06-16T05:08:03Z</time>
      </trkpt>
      <trkpt lat="42.10642" lon="9.11671">
        <ele>1337</ele>
        <time>2018-06-16T05:08:22Z</time>
      </trkpt>
      <trkpt lat="42.10632" lon="9.1168">
        <ele>1340</ele>
        <time>2018-06-16T05:08:43Z</time>
      </trkpt>
      <trkpt lat="42.10619" lon="9.11683">
        <ele>1340</ele>
        <time>2018-06-16T05:09:04Z</time>
      </trkpt>
      <trkpt lat="42.10613" lon="9.11693">
        <ele>1342</ele>
        <time>2018-06-16T05:09:24Z</time>
      </trkpt>
      <trkpt lat="42.10607" lon="9.11698">
        <ele>1343</ele>
        <time>2018-06-16T05:09:44Z</time>
      </trkpt>
      <trkpt lat="42.10602" lon="9.11704">
        <ele>1344</ele>
        <time>2018-06-16T05:10:05Z</time>
      </trkpt>
      <trkpt lat="42.1059" lon="9.11709">
        <ele>1346</ele>
        <time>2018-06-16T05:10:20Z</time>
      </trkpt>
      <trkpt lat="42.10575" lon="9.1172">
        <ele>1350</ele>
        <time>2018-06-16T05:10:42Z</time>
      </trkpt>
      <trkpt lat="42.10567" lon="9.11725">
        <ele>1351</ele>
        <time>2018-06-16T05:10:56Z</time>
      </trkpt>
      <trkpt lat="42.10559" lon="9.11738">
        <ele>1353</ele>
        <time>2018-06-16T05:11:18Z</time>
      </trkpt>
      <trkpt lat="42.10554" lon="9.11752">
        <ele>1367</ele>
        <time>2018-06-16T05:11:36Z</time>
      </trkpt>
      <trkpt lat="42.10546" lon="9.11766">
        <ele>1368</ele>
        <time>2018-06-16T05:11:58Z</time>
      </trkpt>
      <trkpt lat="42.10546" lon="9.11767">
        <ele>1368</ele>
        <time>2018-06-16T05:12:01Z</time>
      </trkpt>
      <trkpt lat="42.10541" lon="9.11776">
        <ele>1369</ele>
        <time>2018-06-16T05:12:21Z</time>
      </trkpt>
      <trkpt lat="42.10536" lon="9.11785">
        <ele>1370</ele>
        <time>2018-06-16T05:12:42Z</time>
      </trkpt>
      <trkpt lat="42.10528" lon="9.11791">
        <ele>1370</ele>
        <time>2018-06-16T05:12:59Z</time>
      </trkpt>
      <trkpt lat="42.10518" lon="9.118">
        <ele>1371</ele>
        <time>2018-06-16T05:13:22Z</time>
      </trkpt>
      <trkpt lat="42.10515" lon="9.11815">
        <ele>1372</ele>
        <time>2018-06-16T05:13:40Z</time>
      </trkpt>
      <trkpt lat="42.1051" lon="9.11825">
        <ele>1373</ele>
        <time>2018-06-16T05:14:01Z</time>
      </trkpt>
      <trkpt lat="42.10508" lon="9.11826">
        <ele>1374</ele>
        <time>2018-06-16T05:14:07Z</time>
      </trkpt>
      <trkpt lat="42.10507" lon="9.11836">
        <ele>1379</ele>
        <time>2018-06-16T05:14:28Z</time>
      </trkpt>
      <trkpt lat="42.10498" lon="9.11851">
        <ele>1380</ele>
        <time>2018-06-16T05:14:51Z</time>
      </trkpt>
      <trkpt lat="42.10493" lon="9.11869">
        <ele>1383</ele>
        <time>2018-06-16T05:15:15Z</time>
      </trkpt>
      <trkpt lat="42.10486" lon="9.1189">
        <ele>1385</ele>
        <time>2018-06-16T05:15:40Z</time>
      </trkpt>
      <trkpt lat="42.1048" lon="9.11906">
        <ele>1387</ele>
        <time>2018-06-16T05:16:03Z</time>
      </trkpt>
      <trkpt lat="42.10478" lon="9.11924">
        <ele>1398</ele>
        <time>2018-06-16T05:16:29Z</time>
      </trkpt>
      <trkpt lat="42.10489" lon="9.11932">
        <ele>1397</ele>
        <time>2018-06-16T05:16:50Z</time>
      </trkpt>
      <trkpt lat="42.10499" lon="9.11936">
        <ele>1398</ele>
        <time>2018-06-16T05:17:12Z</time>
      </trkpt>
      <trkpt lat="42.10502" lon="9.11945">
        <ele>1406</ele>
        <time>2018-06-16T05:17:32Z</time>
      </trkpt>
      <trkpt lat="42.10497" lon="9.11953">
        <ele>1402</ele>
        <time>2018-06-16T05:17:52Z</time>
      </trkpt>
      <trkpt lat="42.10499" lon="9.11961">
        <ele>1404</ele>
        <time>2018-06-16T05:18:13Z</time>
      </trkpt>
      <trkpt lat="42.10507" lon="9.11961">
        <ele>1411</ele>
        <time>2018-06-16T05:18:31Z</time>
      </trkpt>
      <trkpt lat="42.10518" lon="9.11963">
        <ele>1412</ele>
        <time>2018-06-16T05:18:49Z</time>
      </trkpt>
      <trkpt lat="42.10527" lon="9.11966">
        <ele>1413</ele>
        <time>2018-06-16T05:19:09Z</time>
      </trkpt>
      <trkpt lat="42.10534" lon="9.1197">
        <ele>1414</ele>
        <time>2018-06-16T05:19:29Z</time>
      </trkpt>
      <trkpt lat="42.10536" lon="9.11977">
        <ele>1416</ele>
        <time>2018-06-16T05:19:52Z</time>
      </trkpt>
      <trkpt lat="42.10541" lon="9.11981">
        <ele>1417</ele>
        <time>2018-06-16T05:20:13Z</time>
      </trkpt>
      <trkpt lat="42.10536" lon="9.11989">
        <ele>1417</ele>
        <time>2018-06-16T05:20:33Z</time>
      </trkpt>
      <trkpt lat="42.10537" lon="9.11994">
        <ele>1417</ele>
        <time>2018-06-16T05:20:53Z</time>
      </trkpt>
      <trkpt lat="42.1054" lon="9.12001">
        <ele>1434</ele>
        <time>2018-06-16T05:21:11Z</time>
      </trkpt>
      <trkpt lat="42.10545" lon="9.12007">
        <ele>1436</ele>
        <time>2018-06-16T05:21:31Z</time>
      </trkpt>
      <trkpt lat="42.10549" lon="9.1201">
        <ele>1436</ele>
        <time>2018-06-16T05:21:49Z</time>
      </trkpt>
      <trkpt lat="42.10555" lon="9.12011">
        <ele>1437</ele>
        <time>2018-06-16T05:22:09Z</time>
      </trkpt>
      <trkpt lat="42.10562" lon="9.12018">
        <ele>1438</ele>
        <time>2018-06-16T05:22:33Z</time>
      </trkpt>
      <trkpt lat="42.10569" lon="9.1202">
        <ele>1439</ele>
        <time>2018-06-16T05:22:53Z</time>
      </trkpt>
      <trkpt lat="42.10575" lon="9.12025">
        <ele>1440</ele>
        <time>2018-06-16T05:23:13Z</time>
      </trkpt>
      <trkpt lat="42.1058" lon="9.12028">
        <ele>1440</ele>
        <time>2018-06-16T05:23:29Z</time>
      </trkpt>
      <trkpt lat="42.10587" lon="9.12033">
        <ele>1451</ele>
        <time>2018-06-16T05:23:49Z</time>
      </trkpt>
      <trkpt lat="42.10592" lon="9.12039">
        <ele>1452</ele>
        <time>2018-06-16T05:24:08Z</time>
      </trkpt>
      <trkpt lat="42.10594" lon="9.12049">
        <ele>1454</ele>
        <time>2018-06-16T05:24:27Z</time>
      </trkpt>
      <trkpt lat="42.10599" lon="9.12053">
        <ele>1455</ele>
        <time>2018-06-16T05:24:44Z</time>
      </trkpt>
      <trkpt lat="42.10606" lon="9.1206">
        <ele>1456</ele>
        <time>2018-06-16T05:25:06Z</time>
      </trkpt>
      <trkpt lat="42.10612" lon="9.12065">
        <ele>1457</ele>
        <time>2018-06-16T05:25:24Z</time>
      </trkpt>
      <trkpt lat="42.1062" lon="9.12067">
        <ele>1458</ele>
        <time>2018-06-16T05:25:43Z</time>
      </trkpt>
      <trkpt lat="42.10624" lon="9.12077">
        <ele>1459</ele>
        <time>2018-06-16T05:26:02Z</time>
      </trkpt>
      <trkpt lat="42.10632" lon="9.12078">
        <ele>1459</ele>
        <time>2018-06-16T05:26:21Z</time>
      </trkpt>
      <trkpt lat="42.10636" lon="9.12085">
        <ele>1472</ele>
        <time>2018-06-16T05:26:39Z</time>
      </trkpt>
      <trkpt lat="42.10642" lon="9.12094">
        <ele>1472</ele>
        <time>2018-06-16T05:27:02Z</time>
      </trkpt>
      <trkpt lat="42.10642" lon="9.12104">
        <ele>1473</ele>
        <time>2018-06-16T05:27:18Z</time>
      </trkpt>
      <trkpt lat="42.10643" lon="9.12118">
        <ele>1474</ele>
        <time>2018-06-16T05:27:38Z</time>
      </trkpt>
      <trkpt lat="42.10645" lon="9.12128">
        <ele>1475</ele>
        <time>2018-06-16T05:27:55Z</time>
      </trkpt>
      <trkpt lat="42.10645" lon="9.12143">
        <ele>1476</ele>
        <time>2018-06-16T05:28:18Z</time>
      </trkpt>
      <trkpt lat="42.10647" lon="9.12154">
        <ele>1477</ele>
        <time>2018-06-16T05:28:34Z</time>
      </trkpt>
      <trkpt lat="42.10648" lon="9.12167">
        <ele>1485</ele>
        <time>2018-06-16T05:28:54Z</time>
      </trkpt>
      <trkpt lat="42.10648" lon="9.12167">
        <ele>1485</ele>
        <time>2018-06-16T05:29:43Z</time>
      </trkpt>
      <trkpt lat="42.10649" lon="9.12171">
        <ele>1485</ele>
        <time>2018-06-16T05:30:03Z</time>
      </trkpt>
      <trkpt lat="42.10649" lon="9.12178">
        <ele>1485</ele>
        <time>2018-06-16T05:30:21Z</time>
      </trkpt>
      <trkpt lat="42.1065" lon="9.12179">
        <ele>1485</ele>
        <time>2018-06-16T05:30:58Z</time>
      </trkpt>
      <trkpt lat="42.10647" lon="9.12203">
        <ele>1488</ele>
        <time>2018-06-16T05:31:24Z</time>
      </trkpt>
      <trkpt lat="42.10644" lon="9.12218">
        <ele>1489</ele>
        <time>2018-06-16T05:31:43Z</time>
      </trkpt>
      <trkpt lat="42.10639" lon="9.12237">
        <ele>1490</ele>
        <time>2018-06-16T05:32:05Z</time>
      </trkpt>
      <trkpt lat="42.10634" lon="9.12255">
        <ele>1499</ele>
        <time>2018-06-16T05:32:27Z</time>
      </trkpt>
      <trkpt lat="42.10629" lon="9.12269">
        <ele>1502</ele>
        <time>2018-06-16T05:32:51Z</time>
      </trkpt>
      <trkpt lat="42.10624" lon="9.12288">
        <ele>1504</ele>
        <time>2018-06-16T05:33:13Z</time>
      </trkpt>
      <trkpt lat="42.10623" lon="9.12303">
        <ele>1506</ele>
        <time>2018-06-16T05:33:34Z</time>
      </trkpt>
      <trkpt lat="42.1062" lon="9.12317">
        <ele>1508</ele>
        <time>2018-06-16T05:33:56Z</time>
      </trkpt>
      <trkpt lat="42.10616" lon="9.12336">
        <ele>1519</ele>
        <time>2018-06-16T05:34:22Z</time>
      </trkpt>
      <trkpt lat="42.10616" lon="9.1235">
        <ele>1520</ele>
        <time>2018-06-16T05:34:43Z</time>
      </trkpt>
      <trkpt lat="42.10619" lon="9.12365">
        <ele>1520</ele>
        <time>2018-06-16T05:35:07Z</time>
      </trkpt>
      <trkpt lat="42.10621" lon="9.12379">
        <ele>1520</ele>
        <time>2018-06-16T05:35:29Z</time>
      </trkpt>
      <trkpt lat="42.10627" lon="9.12397">
        <ele>1520</ele>
        <time>2018-06-16T05:35:49Z</time>
      </trkpt>
      <trkpt lat="42.10626" lon="9.12413">
        <ele>1521</ele>
        <time>2018-06-16T05:36:14Z</time>
      </trkpt>
      <trkpt lat="42.10633" lon="9.12431">
        <ele>1531</ele>
        <time>2018-06-16T05:36:36Z</time>
      </trkpt>
      <trkpt lat="42.10634" lon="9.12442">
        <ele>1532</ele>
        <time>2018-06-16T05:36:53Z</time>
      </trkpt>
      <trkpt lat="42.1064" lon="9.12452">
        <ele>1532</ele>
        <time>2018-06-16T05:37:15Z</time>
      </trkpt>
      <trkpt lat="42.10646" lon="9.12468">
        <ele>1533</ele>
        <time>2018-06-16T05:37:35Z</time>
      </trkpt>
      <trkpt lat="42.10647" lon="9.12484">
        <ele>1534</ele>
        <time>2018-06-16T05:37:58Z</time>
      </trkpt>
      <trkpt lat="42.10651" lon="9.12499">
        <ele>1533</ele>
        <time>2018-06-16T05:38:18Z</time>
      </trkpt>
      <trkpt lat="42.10654" lon="9.12518">
        <ele>1541</ele>
        <time>2018-06-16T05:38:41Z</time>
      </trkpt>
      <trkpt lat="42.10658" lon="9.12533">
        <ele>1544</ele>
        <time>2018-06-16T05:39:01Z</time>
      </trkpt>
      <trkpt lat="42.10663" lon="9.12548">
        <ele>1545</ele>
        <time>2018-06-16T05:39:23Z</time>
      </trkpt>
      <trkpt lat="42.10661" lon="9.12565">
        <ele>1546</ele>
        <time>2018-06-16T05:39:44Z</time>
      </trkpt>
      <trkpt lat="42.10664" lon="9.1258">
        <ele>1544</ele>
        <time>2018-06-16T05:40:02Z</time>
      </trkpt>
      <trkpt lat="42.10668" lon="9.12599">
        <ele>1539</ele>
        <time>2018-06-16T05:40:25Z</time>
      </trkpt>
      <trkpt lat="42.10667" lon="9.12614">
        <ele>1537</ele>
        <time>2018-06-16T05:40:45Z</time>
      </trkpt>
      <trkpt lat="42.10664" lon="9.12614">
        <ele>1543</ele>
        <time>2018-06-16T05:41:07Z</time>
      </trkpt>
      <trkpt lat="42.10665" lon="9.12614">
        <ele>1543</ele>
        <time>2018-06-16T05:41:31Z</time>
      </trkpt>
      <trkpt lat="42.10665" lon="9.12614">
        <ele>1543</ele>
        <time>2018-06-16T05:42:05Z</time>
      </trkpt>
      <trkpt lat="42.10666" lon="9.12614">
        <ele>1543</ele>
        <time>2018-06-16T05:44:00Z</time>
      </trkpt>
      <trkpt lat="42.10666" lon="9.12614">
        <ele>1543</ele>
        <time>2018-06-16T05:44:30Z</time>
      </trkpt>
      <trkpt lat="42.10662" lon="9.12613">
        <ele>1543</ele>
        <time>2018-06-16T05:44:55Z</time>
      </trkpt>
      <trkpt lat="42.10656" lon="9.12603">
        <ele>1544</ele>
        <time>2018-06-16T05:45:13Z</time>
      </trkpt>
      <trkpt lat="42.10649" lon="9.12591">
        <ele>1544</ele>
        <time>2018-06-16T05:45:35Z</time>
      </trkpt>
      <trkpt lat="42.10642" lon="9.12584">
        <ele>1545</ele>
        <time>2018-06-16T05:45:54Z</time>
      </trkpt>
      <trkpt lat="42.10635" lon="9.12581">
        <ele>1549</ele>
        <time>2018-06-16T05:46:11Z</time>
      </trkpt>
      <trkpt lat="42.10629" lon="9.12585">
        <ele>1547</ele>
        <time>2018-06-16T05:46:26Z</time>
      </trkpt>
      <trkpt lat="42.10622" lon="9.1258">
        <ele>1552</ele>
        <time>2018-06-16T05:46:44Z</time>
      </trkpt>
      <trkpt lat="42.10617" lon="9.12576">
        <ele>1552</ele>
        <time>2018-06-16T05:46:57Z</time>
      </trkpt>
      <trkpt lat="42.10612" lon="9.12572">
        <ele>1553</ele>
        <time>2018-06-16T05:47:11Z</time>
      </trkpt>
      <trkpt lat="42.10605" lon="9.12561">
        <ele>1554</ele>
        <time>2018-06-16T05:47:31Z</time>
      </trkpt>
      <trkpt lat="42.10596" lon="9.12552">
        <ele>1554</ele>
        <time>2018-06-16T05:47:50Z</time>
      </trkpt>
      <trkpt lat="42.10589" lon="9.12547">
        <ele>1555</ele>
        <time>2018-06-16T05:48:04Z</time>
      </trkpt>
      <trkpt lat="42.10582" lon="9.12541">
        <ele>1567</ele>
        <time>2018-06-16T05:48:22Z</time>
      </trkpt>
      <trkpt lat="42.10575" lon="9.12536">
        <ele>1568</ele>
        <time>2018-06-16T05:48:37Z</time>
      </trkpt>
      <trkpt lat="42.10567" lon="9.12532">
        <ele>1568</ele>
        <time>2018-06-16T05:48:53Z</time>
      </trkpt>
      <trkpt lat="42.10557" lon="9.12534">
        <ele>1569</ele>
        <time>2018-06-16T05:49:09Z</time>
      </trkpt>
      <trkpt lat="42.10544" lon="9.12539">
        <ele>1569</ele>
        <time>2018-06-16T05:49:31Z</time>
      </trkpt>
      <trkpt lat="42.10534" lon="9.12534">
        <ele>1571</ele>
        <time>2018-06-16T05:49:47Z</time>
      </trkpt>
      <trkpt lat="42.10527" lon="9.12529">
        <ele>1572</ele>
        <time>2018-06-16T05:50:03Z</time>
      </trkpt>
      <trkpt lat="42.10519" lon="9.12526">
        <ele>1574</ele>
        <time>2018-06-16T05:50:17Z</time>
      </trkpt>
      <trkpt lat="42.10509" lon="9.12523">
        <ele>1575</ele>
        <time>2018-06-16T05:50:33Z</time>
      </trkpt>
      <trkpt lat="42.10499" lon="9.12517">
        <ele>1583</ele>
        <time>2018-06-16T05:50:51Z</time>
      </trkpt>
      <trkpt lat="42.1049" lon="9.12509">
        <ele>1584</ele>
        <time>2018-06-16T05:51:09Z</time>
      </trkpt>
      <trkpt lat="42.10479" lon="9.12506">
        <ele>1583</ele>
        <time>2018-06-16T05:51:26Z</time>
      </trkpt>
      <trkpt lat="42.10469" lon="9.12507">
        <ele>1582</ele>
        <time>2018-06-16T05:51:42Z</time>
      </trkpt>
      <trkpt lat="42.10462" lon="9.12502">
        <ele>1582</ele>
        <time>2018-06-16T05:51:58Z</time>
      </trkpt>
      <trkpt lat="42.10451" lon="9.12504">
        <ele>1583</ele>
        <time>2018-06-16T05:52:18Z</time>
      </trkpt>
      <trkpt lat="42.10446" lon="9.12501">
        <ele>1583</ele>
        <time>2018-06-16T05:52:33Z</time>
      </trkpt>
      <trkpt lat="42.10437" lon="9.125">
        <ele>1584</ele>
        <time>2018-06-16T05:52:46Z</time>
      </trkpt>
      <trkpt lat="42.10422" lon="9.12502">
        <ele>1588</ele>
        <time>2018-06-16T05:53:07Z</time>
      </trkpt>
      <trkpt lat="42.10409" lon="9.12507">
        <ele>1591</ele>
        <time>2018-06-16T05:53:28Z</time>
      </trkpt>
      <trkpt lat="42.10399" lon="9.12509">
        <ele>1591</ele>
        <time>2018-06-16T05:53:46Z</time>
      </trkpt>
      <trkpt lat="42.10391" lon="9.12512">
        <ele>1592</ele>
        <time>2018-06-16T05:54:02Z</time>
      </trkpt>
      <trkpt lat="42.10385" lon="9.12514">
        <ele>1592</ele>
        <time>2018-06-16T05:54:19Z</time>
      </trkpt>
      <trkpt lat="42.10377" lon="9.12514">
        <ele>1593</ele>
        <time>2018-06-16T05:54:35Z</time>
      </trkpt>
      <trkpt lat="42.10364" lon="9.12509">
        <ele>1595</ele>
        <time>2018-06-16T05:54:55Z</time>
      </trkpt>
      <trkpt lat="42.10357" lon="9.1251">
        <ele>1596</ele>
        <time>2018-06-16T05:55:11Z</time>
      </trkpt>
      <trkpt lat="42.10351" lon="9.12515">
        <ele>1597</ele>
        <time>2018-06-16T05:55:26Z</time>
      </trkpt>
      <trkpt lat="42.1034" lon="9.1252">
        <ele>1597</ele>
        <time>2018-06-16T05:55:44Z</time>
      </trkpt>
      <trkpt lat="42.10327" lon="9.12522">
        <ele>1610</ele>
        <time>2018-06-16T05:56:05Z</time>
      </trkpt>
      <trkpt lat="42.10316" lon="9.12521">
        <ele>1612</ele>
        <time>2018-06-16T05:56:25Z</time>
      </trkpt>
      <trkpt lat="42.10305" lon="9.12522">
        <ele>1614</ele>
        <time>2018-06-16T05:56:45Z</time>
      </trkpt>
      <trkpt lat="42.10295" lon="9.1252">
        <ele>1616</ele>
        <time>2018-06-16T05:57:04Z</time>
      </trkpt>
      <trkpt lat="42.10288" lon="9.12525">
        <ele>1618</ele>
        <time>2018-06-16T05:57:23Z</time>
      </trkpt>
      <trkpt lat="42.10282" lon="9.12526">
        <ele>1619</ele>
        <time>2018-06-16T05:57:38Z</time>
      </trkpt>
      <trkpt lat="42.10277" lon="9.12521">
        <ele>1621</ele>
        <time>2018-06-16T05:57:53Z</time>
      </trkpt>
      <trkpt lat="42.10271" lon="9.12517">
        <ele>1623</ele>
        <time>2018-06-16T05:58:09Z</time>
      </trkpt>
      <trkpt lat="42.10262" lon="9.12513">
        <ele>1626</ele>
        <time>2018-06-16T05:58:28Z</time>
      </trkpt>
      <trkpt lat="42.10258" lon="9.12516">
        <ele>1626</ele>
        <time>2018-06-16T05:58:43Z</time>
      </trkpt>
      <trkpt lat="42.10251" lon="9.12518">
        <ele>1626</ele>
        <time>2018-06-16T05:59:00Z</time>
      </trkpt>
      <trkpt lat="42.10245" lon="9.12516">
        <ele>1643</ele>
        <time>2018-06-16T05:59:17Z</time>
      </trkpt>
      <trkpt lat="42.1024" lon="9.12517">
        <ele>1644</ele>
        <time>2018-06-16T05:59:32Z</time>
      </trkpt>
      <trkpt lat="42.10236" lon="9.12517">
        <ele>1645</ele>
        <time>2018-06-16T05:59:47Z</time>
      </trkpt>
      <trkpt lat="42.10231" lon="9.12515">
        <ele>1647</ele>
        <time>2018-06-16T06:00:01Z</time>
      </trkpt>
      <trkpt lat="42.10224" lon="9.12512">
        <ele>1648</ele>
        <time>2018-06-16T06:00:16Z</time>
      </trkpt>
      <trkpt lat="42.1022" lon="9.12513">
        <ele>1650</ele>
        <time>2018-06-16T06:00:31Z</time>
      </trkpt>
      <trkpt lat="42.10214" lon="9.12513">
        <ele>1652</ele>
        <time>2018-06-16T06:00:46Z</time>
      </trkpt>
      <trkpt lat="42.1021" lon="9.12514">
        <ele>1653</ele>
        <time>2018-06-16T06:01:01Z</time>
      </trkpt>
      <trkpt lat="42.10208" lon="9.12523">
        <ele>1654</ele>
        <time>2018-06-16T06:01:17Z</time>
      </trkpt>
      <trkpt lat="42.10203" lon="9.12518">
        <ele>1655</ele>
        <time>2018-06-16T06:01:32Z</time>
      </trkpt>
      <trkpt lat="42.10197" lon="9.12513">
        <ele>1658</ele>
        <time>2018-06-16T06:01:49Z</time>
      </trkpt>
      <trkpt lat="42.10193" lon="9.12519">
        <ele>1658</ele>
        <time>2018-06-16T06:02:06Z</time>
      </trkpt>
      <trkpt lat="42.10188" lon="9.12516">
        <ele>1660</ele>
        <time>2018-06-16T06:02:24Z</time>
      </trkpt>
      <trkpt lat="42.10183" lon="9.12521">
        <ele>1661</ele>
        <time>2018-06-16T06:02:41Z</time>
      </trkpt>
      <trkpt lat="42.10177" lon="9.12514">
        <ele>1664</ele>
        <time>2018-06-16T06:03:00Z</time>
      </trkpt>
      <trkpt lat="42.10172" lon="9.12511">
        <ele>1667</ele>
        <time>2018-06-16T06:03:17Z</time>
      </trkpt>
      <trkpt lat="42.10167" lon="9.12512">
        <ele>1667</ele>
        <time>2018-06-16T06:03:30Z</time>
      </trkpt>
      <trkpt lat="42.10163" lon="9.12507">
        <ele>1679</ele>
        <time>2018-06-16T06:03:45Z</time>
      </trkpt>
      <trkpt lat="42.10159" lon="9.12509">
        <ele>1681</ele>
        <time>2018-06-16T06:04:01Z</time>
      </trkpt>
      <trkpt lat="42.10155" lon="9.12508">
        <ele>1681</ele>
        <time>2018-06-16T06:04:20Z</time>
      </trkpt>
      <trkpt lat="42.10155" lon="9.1251">
        <ele>1682</ele>
        <time>2018-06-16T06:04:42Z</time>
      </trkpt>
      <trkpt lat="42.10154" lon="9.12516">
        <ele>1683</ele>
        <time>2018-06-16T06:04:56Z</time>
      </trkpt>
      <trkpt lat="42.10149" lon="9.12516">
        <ele>1684</ele>
        <time>2018-06-16T06:05:11Z</time>
      </trkpt>
      <trkpt lat="42.10143" lon="9.12514">
        <ele>1685</ele>
        <time>2018-06-16T06:05:29Z</time>
      </trkpt>
      <trkpt lat="42.10138" lon="9.1251">
        <ele>1686</ele>
        <time>2018-06-16T06:05:43Z</time>
      </trkpt>
      <trkpt lat="42.10135" lon="9.12513">
        <ele>1687</ele>
        <time>2018-06-16T06:05:57Z</time>
      </trkpt>
      <trkpt lat="42.10131" lon="9.12507">
        <ele>1688</ele>
        <time>2018-06-16T06:06:12Z</time>
      </trkpt>
      <trkpt lat="42.10126" lon="9.12501">
        <ele>1690</ele>
        <time>2018-06-16T06:06:27Z</time>
      </trkpt>
      <trkpt lat="42.10117" lon="9.12499">
        <ele>1685</ele>
        <time>2018-06-16T06:06:45Z</time>
      </trkpt>
      <trkpt lat="42.10107" lon="9.12498">
        <ele>1689</ele>
        <time>2018-06-16T06:07:04Z</time>
      </trkpt>
      <trkpt lat="42.10105" lon="9.12506">
        <ele>1696</ele>
        <time>2018-06-16T06:07:21Z</time>
      </trkpt>
      <trkpt lat="42.10098" lon="9.12508">
        <ele>1698</ele>
        <time>2018-06-16T06:07:37Z</time>
      </trkpt>
      <trkpt lat="42.1009" lon="9.12505">
        <ele>1702</ele>
        <time>2018-06-16T06:07:52Z</time>
      </trkpt>
      <trkpt lat="42.10083" lon="9.12504">
        <ele>1708</ele>
        <time>2018-06-16T06:08:07Z</time>
      </trkpt>
      <trkpt lat="42.10075" lon="9.12503">
        <ele>1709</ele>
        <time>2018-06-16T06:08:26Z</time>
      </trkpt>
      <trkpt lat="42.10076" lon="9.12515">
        <ele>1711</ele>
        <time>2018-06-16T06:08:43Z</time>
      </trkpt>
      <trkpt lat="42.1007" lon="9.12517">
        <ele>1712</ele>
        <time>2018-06-16T06:08:59Z</time>
      </trkpt>
      <trkpt lat="42.10063" lon="9.12521">
        <ele>1714</ele>
        <time>2018-06-16T06:09:15Z</time>
      </trkpt>
      <trkpt lat="42.10054" lon="9.12522">
        <ele>1715</ele>
        <time>2018-06-16T06:09:32Z</time>
      </trkpt>
      <trkpt lat="42.10047" lon="9.12524">
        <ele>1716</ele>
        <time>2018-06-16T06:09:49Z</time>
      </trkpt>
      <trkpt lat="42.10037" lon="9.12522">
        <ele>1718</ele>
        <time>2018-06-16T06:10:06Z</time>
      </trkpt>
      <trkpt lat="42.10026" lon="9.12519">
        <ele>1720</ele>
        <time>2018-06-16T06:10:25Z</time>
      </trkpt>
      <trkpt lat="42.10018" lon="9.12523">
        <ele>1721</ele>
        <time>2018-06-16T06:10:43Z</time>
      </trkpt>
      <trkpt lat="42.1001" lon="9.12521">
        <ele>1722</ele>
        <time>2018-06-16T06:11:00Z</time>
      </trkpt>
      <trkpt lat="42.10002" lon="9.12521">
        <ele>1723</ele>
        <time>2018-06-16T06:11:19Z</time>
      </trkpt>
      <trkpt lat="42.09997" lon="9.12525">
        <ele>1737</ele>
        <time>2018-06-16T06:11:35Z</time>
      </trkpt>
      <trkpt lat="42.09992" lon="9.12525">
        <ele>1738</ele>
        <time>2018-06-16T06:11:50Z</time>
      </trkpt>
      <trkpt lat="42.09986" lon="9.12527">
        <ele>1739</ele>
        <time>2018-06-16T06:12:06Z</time>
      </trkpt>
      <trkpt lat="42.09978" lon="9.1252">
        <ele>1740</ele>
        <time>2018-06-16T06:12:24Z</time>
      </trkpt>
      <trkpt lat="42.09972" lon="9.12522">
        <ele>1741</ele>
        <time>2018-06-16T06:12:42Z</time>
      </trkpt>
      <trkpt lat="42.09967" lon="9.12526">
        <ele>1743</ele>
        <time>2018-06-16T06:13:00Z</time>
      </trkpt>
      <trkpt lat="42.09964" lon="9.12529">
        <ele>1743</ele>
        <time>2018-06-16T06:13:17Z</time>
      </trkpt>
      <trkpt lat="42.09961" lon="9.12536">
        <ele>1744</ele>
        <time>2018-06-16T06:13:33Z</time>
      </trkpt>
      <trkpt lat="42.09953" lon="9.12536">
        <ele>1746</ele>
        <time>2018-06-16T06:13:49Z</time>
      </trkpt>
      <trkpt lat="42.09946" lon="9.12532">
        <ele>1747</ele>
        <time>2018-06-16T06:14:05Z</time>
      </trkpt>
      <trkpt lat="42.09938" lon="9.12531">
        <ele>1748</ele>
        <time>2018-06-16T06:14:23Z</time>
      </trkpt>
      <trkpt lat="42.0993" lon="9.12531">
        <ele>1749</ele>
        <time>2018-06-16T06:14:41Z</time>
      </trkpt>
      <trkpt lat="42.09925" lon="9.12533">
        <ele>1750</ele>
        <time>2018-06-16T06:15:07Z</time>
      </trkpt>
      <trkpt lat="42.0992" lon="9.1254">
        <ele>1751</ele>
        <time>2018-06-16T06:15:25Z</time>
      </trkpt>
      <trkpt lat="42.09912" lon="9.12538">
        <ele>1769</ele>
        <time>2018-06-16T06:15:44Z</time>
      </trkpt>
      <trkpt lat="42.09903" lon="9.12537">
        <ele>1770</ele>
        <time>2018-06-16T06:16:02Z</time>
      </trkpt>
      <trkpt lat="42.09897" lon="9.1254">
        <ele>1771</ele>
        <time>2018-06-16T06:16:17Z</time>
      </trkpt>
      <trkpt lat="42.09895" lon="9.12549">
        <ele>1772</ele>
        <time>2018-06-16T06:16:33Z</time>
      </trkpt>
      <trkpt lat="42.09887" lon="9.12545">
        <ele>1773</ele>
        <time>2018-06-16T06:16:50Z</time>
      </trkpt>
      <trkpt lat="42.09883" lon="9.12552">
        <ele>1774</ele>
        <time>2018-06-16T06:17:07Z</time>
      </trkpt>
      <trkpt lat="42.0988" lon="9.12565">
        <ele>1775</ele>
        <time>2018-06-16T06:17:25Z</time>
      </trkpt>
      <trkpt lat="42.09874" lon="9.1257">
        <ele>1777</ele>
        <time>2018-06-16T06:17:43Z</time>
      </trkpt>
      <trkpt lat="42.09866" lon="9.12567">
        <ele>1779</ele>
        <time>2018-06-16T06:18:01Z</time>
      </trkpt>
      <trkpt lat="42.0986" lon="9.12565">
        <ele>1780</ele>
        <time>2018-06-16T06:18:15Z</time>
      </trkpt>
      <trkpt lat="42.09854" lon="9.12565">
        <ele>1782</ele>
        <time>2018-06-16T06:18:30Z</time>
      </trkpt>
      <trkpt lat="42.0985" lon="9.12565">
        <ele>1783</ele>
        <time>2018-06-16T06:18:43Z</time>
      </trkpt>
      <trkpt lat="42.09845" lon="9.12573">
        <ele>1787</ele>
        <time>2018-06-16T06:19:01Z</time>
      </trkpt>
      <trkpt lat="42.09839" lon="9.12578">
        <ele>1791</ele>
        <time>2018-06-16T06:19:16Z</time>
      </trkpt>
      <trkpt lat="42.09834" lon="9.12574">
        <ele>1790</ele>
        <time>2018-06-16T06:19:30Z</time>
      </trkpt>
      <trkpt lat="42.09833" lon="9.12575">
        <ele>1791</ele>
        <time>2018-06-16T06:20:07Z</time>
      </trkpt>
      <trkpt lat="42.09833" lon="9.12588">
        <ele>1797</ele>
        <time>2018-06-16T06:20:24Z</time>
      </trkpt>
      <trkpt lat="42.09832" lon="9.12593">
        <ele>1796</ele>
        <time>2018-06-16T06:20:36Z</time>
      </trkpt>
      <trkpt lat="42.09833" lon="9.12606">
        <ele>1786</ele>
        <time>2018-06-16T06:20:54Z</time>
      </trkpt>
      <trkpt lat="42.09835" lon="9.12614">
        <ele>1784</ele>
        <time>2018-06-16T06:21:05Z</time>
      </trkpt>
      <trkpt lat="42.09831" lon="9.1262">
        <ele>1797</ele>
        <time>2018-06-16T06:21:21Z</time>
      </trkpt>
      <trkpt lat="42.09831" lon="9.1262">
        <ele>1797</ele>
        <time>2018-06-16T06:21:37Z</time>
      </trkpt>
      <trkpt lat="42.0983" lon="9.1262">
        <ele>1797</ele>
        <time>2018-06-16T06:21:53Z</time>
      </trkpt>
      <trkpt lat="42.0983" lon="9.12621">
        <ele>1797</ele>
        <time>2018-06-16T06:22:12Z</time>
      </trkpt>
      <trkpt lat="42.09827" lon="9.12629">
        <ele>1797</ele>
        <time>2018-06-16T06:22:30Z</time>
      </trkpt>
      <trkpt lat="42.09823" lon="9.12639">
        <ele>1797</ele>
        <time>2018-06-16T06:22:46Z</time>
      </trkpt>
      <trkpt lat="42.09819" lon="9.12644">
        <ele>1798</ele>
        <time>2018-06-16T06:23:01Z</time>
      </trkpt>
      <trkpt lat="42.09819" lon="9.12648">
        <ele>1798</ele>
        <time>2018-06-16T06:23:23Z</time>
      </trkpt>
      <trkpt lat="42.09815" lon="9.12659">
        <ele>1798</ele>
        <time>2018-06-16T06:23:39Z</time>
      </trkpt>
      <trkpt lat="42.09813" lon="9.12669">
        <ele>1798</ele>
        <time>2018-06-16T06:23:54Z</time>
      </trkpt>
      <trkpt lat="42.09809" lon="9.12676">
        <ele>1798</ele>
        <time>2018-06-16T06:24:09Z</time>
      </trkpt>
      <trkpt lat="42.09801" lon="9.12688">
        <ele>1799</ele>
        <time>2018-06-16T06:24:27Z</time>
      </trkpt>
      <trkpt lat="42.09793" lon="9.12693">
        <ele>1800</ele>
        <time>2018-06-16T06:24:43Z</time>
      </trkpt>
      <trkpt lat="42.09785" lon="9.12701">
        <ele>1801</ele>
        <time>2018-06-16T06:25:01Z</time>
      </trkpt>
      <trkpt lat="42.09776" lon="9.12704">
        <ele>1802</ele>
        <time>2018-06-16T06:25:18Z</time>
      </trkpt>
      <trkpt lat="42.09771" lon="9.12706">
        <ele>1803</ele>
        <time>2018-06-16T06:25:32Z</time>
      </trkpt>
      <trkpt lat="42.09766" lon="9.12705">
        <ele>1804</ele>
        <time>2018-06-16T06:25:47Z</time>
      </trkpt>
      <trkpt lat="42.09759" lon="9.12707">
        <ele>1805</ele>
        <time>2018-06-16T06:26:01Z</time>
      </trkpt>
      <trkpt lat="42.09751" lon="9.12717">
        <ele>1806</ele>
        <time>2018-06-16T06:26:19Z</time>
      </trkpt>
      <trkpt lat="42.09742" lon="9.1272">
        <ele>1818</ele>
        <time>2018-06-16T06:26:35Z</time>
      </trkpt>
      <trkpt lat="42.09734" lon="9.12728">
        <ele>1818</ele>
        <time>2018-06-16T06:26:51Z</time>
      </trkpt>
      <trkpt lat="42.09724" lon="9.12733">
        <ele>1818</ele>
        <time>2018-06-16T06:27:07Z</time>
      </trkpt>
      <trkpt lat="42.09716" lon="9.12738">
        <ele>1819</ele>
        <time>2018-06-16T06:27:22Z</time>
      </trkpt>
      <trkpt lat="42.09705" lon="9.12739">
        <ele>1820</ele>
        <time>2018-06-16T06:27:40Z</time>
      </trkpt>
      <trkpt lat="42.09697" lon="9.12739">
        <ele>1820</ele>
        <time>2018-06-16T06:27:56Z</time>
      </trkpt>
      <trkpt lat="42.09688" lon="9.12741">
        <ele>1822</ele>
        <time>2018-06-16T06:28:13Z</time>
      </trkpt>
      <trkpt lat="42.09675" lon="9.12745">
        <ele>1825</ele>
        <time>2018-06-16T06:28:32Z</time>
      </trkpt>
      <trkpt lat="42.09664" lon="9.12749">
        <ele>1826</ele>
        <time>2018-06-16T06:28:49Z</time>
      </trkpt>
      <trkpt lat="42.09657" lon="9.12757">
        <ele>1823</ele>
        <time>2018-06-16T06:29:05Z</time>
      </trkpt>
      <trkpt lat="42.09647" lon="9.12763">
        <ele>1820</ele>
        <time>2018-06-16T06:29:22Z</time>
      </trkpt>
      <trkpt lat="42.09633" lon="9.12766">
        <ele>1818</ele>
        <time>2018-06-16T06:29:40Z</time>
      </trkpt>
      <trkpt lat="42.0962" lon="9.12768">
        <ele>1817</ele>
        <time>2018-06-16T06:29:57Z</time>
      </trkpt>
      <trkpt lat="42.0961" lon="9.12771">
        <ele>1817</ele>
        <time>2018-06-16T06:30:13Z</time>
      </trkpt>
      <trkpt lat="42.09599" lon="9.12775">
        <ele>1816</ele>
        <time>2018-06-16T06:30:28Z</time>
      </trkpt>
      <trkpt lat="42.0959" lon="9.12781">
        <ele>1816</ele>
        <time>2018-06-16T06:30:43Z</time>
      </trkpt>
      <trkpt lat="42.09577" lon="9.12786">
        <ele>1821</ele>
        <time>2018-06-16T06:31:01Z</time>
      </trkpt>
      <trkpt lat="42.09565" lon="9.12788">
        <ele>1821</ele>
        <time>2018-06-16T06:31:19Z</time>
      </trkpt>
      <trkpt lat="42.09558" lon="9.12789">
        <ele>1822</ele>
        <time>2018-06-16T06:31:37Z</time>
      </trkpt>
      <trkpt lat="42.09555" lon="9.12795">
        <ele>1823</ele>
        <time>2018-06-16T06:31:51Z</time>
      </trkpt>
      <trkpt lat="42.09549" lon="9.12796">
        <ele>1823</ele>
        <time>2018-06-16T06:32:05Z</time>
      </trkpt>
      <trkpt lat="42.09547" lon="9.12799">
        <ele>1824</ele>
        <time>2018-06-16T06:32:32Z</time>
      </trkpt>
      <trkpt lat="42.09538" lon="9.12804">
        <ele>1825</ele>
        <time>2018-06-16T06:32:49Z</time>
      </trkpt>
      <trkpt lat="42.0953" lon="9.12809">
        <ele>1827</ele>
        <time>2018-06-16T06:33:05Z</time>
      </trkpt>
      <trkpt lat="42.09527" lon="9.12819">
        <ele>1829</ele>
        <time>2018-06-16T06:33:19Z</time>
      </trkpt>
      <trkpt lat="42.0952" lon="9.1282">
        <ele>1831</ele>
        <time>2018-06-16T06:33:34Z</time>
      </trkpt>
      <trkpt lat="42.09516" lon="9.12824">
        <ele>1833</ele>
        <time>2018-06-16T06:33:47Z</time>
      </trkpt>
      <trkpt lat="42.09509" lon="9.12827">
        <ele>1838</ele>
        <time>2018-06-16T06:34:03Z</time>
      </trkpt>
      <trkpt lat="42.09502" lon="9.12829">
        <ele>1842</ele>
        <time>2018-06-16T06:34:19Z</time>
      </trkpt>
      <trkpt lat="42.09498" lon="9.12837">
        <ele>1846</ele>
        <time>2018-06-16T06:34:37Z</time>
      </trkpt>
      <trkpt lat="42.09492" lon="9.12839">
        <ele>1847</ele>
        <time>2018-06-16T06:34:51Z</time>
      </trkpt>
      <trkpt lat="42.09487" lon="9.12843">
        <ele>1847</ele>
        <time>2018-06-16T06:35:06Z</time>
      </trkpt>
      <trkpt lat="42.09484" lon="9.12848">
        <ele>1847</ele>
        <time>2018-06-16T06:35:19Z</time>
      </trkpt>
      <trkpt lat="42.09481" lon="9.12855">
        <ele>1848</ele>
        <time>2018-06-16T06:35:33Z</time>
      </trkpt>
      <trkpt lat="42.09476" lon="9.12858">
        <ele>1848</ele>
        <time>2018-06-16T06:35:48Z</time>
      </trkpt>
      <trkpt lat="42.09468" lon="9.12859">
        <ele>1848</ele>
        <time>2018-06-16T06:36:05Z</time>
      </trkpt>
      <trkpt lat="42.0946" lon="9.12862">
        <ele>1849</ele>
        <time>2018-06-16T06:36:21Z</time>
      </trkpt>
      <trkpt lat="42.0945" lon="9.12862">
        <ele>1849</ele>
        <time>2018-06-16T06:36:40Z</time>
      </trkpt>
      <trkpt lat="42.0944" lon="9.12864">
        <ele>1849</ele>
        <time>2018-06-16T06:36:58Z</time>
      </trkpt>
      <trkpt lat="42.09433" lon="9.12877">
        <ele>1851</ele>
        <time>2018-06-16T06:37:20Z</time>
      </trkpt>
      <trkpt lat="42.09428" lon="9.12885">
        <ele>1853</ele>
        <time>2018-06-16T06:37:35Z</time>
      </trkpt>
      <trkpt lat="42.09423" lon="9.12904">
        <ele>1858</ele>
        <time>2018-06-16T06:37:54Z</time>
      </trkpt>
      <trkpt lat="42.09413" lon="9.12921">
        <ele>1866</ele>
        <time>2018-06-16T06:38:15Z</time>
      </trkpt>
      <trkpt lat="42.09402" lon="9.12938">
        <ele>1867</ele>
        <time>2018-06-16T06:38:37Z</time>
      </trkpt>
      <trkpt lat="42.09394" lon="9.12946">
        <ele>1868</ele>
        <time>2018-06-16T06:38:55Z</time>
      </trkpt>
      <trkpt lat="42.09385" lon="9.12952">
        <ele>1868</ele>
        <time>2018-06-16T06:39:12Z</time>
      </trkpt>
      <trkpt lat="42.09384" lon="9.12952">
        <ele>1868</ele>
        <time>2018-06-16T06:39:32Z</time>
      </trkpt>
      <trkpt lat="42.09379" lon="9.12956">
        <ele>1869</ele>
        <time>2018-06-16T06:39:50Z</time>
      </trkpt>
      <trkpt lat="42.09373" lon="9.12965">
        <ele>1870</ele>
        <time>2018-06-16T06:40:09Z</time>
      </trkpt>
      <trkpt lat="42.09367" lon="9.12972">
        <ele>1871</ele>
        <time>2018-06-16T06:40:28Z</time>
      </trkpt>
      <trkpt lat="42.09362" lon="9.12978">
        <ele>1873</ele>
        <time>2018-06-16T06:40:44Z</time>
      </trkpt>
      <trkpt lat="42.0936" lon="9.12985">
        <ele>1874</ele>
        <time>2018-06-16T06:40:59Z</time>
      </trkpt>
      <trkpt lat="42.09357" lon="9.12994">
        <ele>1876</ele>
        <time>2018-06-16T06:41:13Z</time>
      </trkpt>
      <trkpt lat="42.09349" lon="9.13002">
        <ele>1884</ele>
        <time>2018-06-16T06:41:31Z</time>
      </trkpt>
      <trkpt lat="42.0934" lon="9.1301">
        <ele>1886</ele>
        <time>2018-06-16T06:41:49Z</time>
      </trkpt>
      <trkpt lat="42.09333" lon="9.13018">
        <ele>1896</ele>
        <time>2018-06-16T06:42:08Z</time>
      </trkpt>
      <trkpt lat="42.09325" lon="9.13022">
        <ele>1898</ele>
        <time>2018-06-16T06:42:26Z</time>
      </trkpt>
      <trkpt lat="42.0932" lon="9.13024">
        <ele>1899</ele>
        <time>2018-06-16T06:42:56Z</time>
      </trkpt>
      <trkpt lat="42.09311" lon="9.13028">
        <ele>1901</ele>
        <time>2018-06-16T06:43:13Z</time>
      </trkpt>
      <trkpt lat="42.09301" lon="9.13033">
        <ele>1903</ele>
        <time>2018-06-16T06:43:32Z</time>
      </trkpt>
      <trkpt lat="42.09299" lon="9.13032">
        <ele>1903</ele>
        <time>2018-06-16T06:43:50Z</time>
      </trkpt>
      <trkpt lat="42.09305" lon="9.13032">
        <ele>1903</ele>
        <time>2018-06-16T06:44:09Z</time>
      </trkpt>
      <trkpt lat="42.09316" lon="9.13035">
        <ele>1902</ele>
        <time>2018-06-16T06:44:28Z</time>
      </trkpt>
      <trkpt lat="42.09321" lon="9.1304">
        <ele>1902</ele>
        <time>2018-06-16T06:44:41Z</time>
      </trkpt>
      <trkpt lat="42.09315" lon="9.13045">
        <ele>1904</ele>
        <time>2018-06-16T06:44:55Z</time>
      </trkpt>
      <trkpt lat="42.09309" lon="9.1305">
        <ele>1905</ele>
        <time>2018-06-16T06:45:11Z</time>
      </trkpt>
      <trkpt lat="42.09307" lon="9.13054">
        <ele>1906</ele>
        <time>2018-06-16T06:45:30Z</time>
      </trkpt>
      <trkpt lat="42.09303" lon="9.13061">
        <ele>1907</ele>
        <time>2018-06-16T06:45:48Z</time>
      </trkpt>
      <trkpt lat="42.09304" lon="9.1307">
        <ele>1908</ele>
        <time>2018-06-16T06:46:05Z</time>
      </trkpt>
      <trkpt lat="42.09298" lon="9.13073">
        <ele>1909</ele>
        <time>2018-06-16T06:46:20Z</time>
      </trkpt>
      <trkpt lat="42.09288" lon="9.13069">
        <ele>1911</ele>
        <time>2018-06-16T06:46:40Z</time>
      </trkpt>
      <trkpt lat="42.09279" lon="9.13079">
        <ele>1915</ele>
        <time>2018-06-16T06:47:01Z</time>
      </trkpt>
      <trkpt lat="42.09274" lon="9.13086">
        <ele>1926</ele>
        <time>2018-06-16T06:47:20Z</time>
      </trkpt>
      <trkpt lat="42.09265" lon="9.13086">
        <ele>1929</ele>
        <time>2018-06-16T06:47:39Z</time>
      </trkpt>
      <trkpt lat="42.09255" lon="9.13085">
        <ele>1933</ele>
        <time>2018-06-16T06:47:57Z</time>
      </trkpt>
      <trkpt lat="42.09248" lon="9.13082">
        <ele>1933</ele>
        <time>2018-06-16T06:48:13Z</time>
      </trkpt>
      <trkpt lat="42.09242" lon="9.13085">
        <ele>1941</ele>
        <time>2018-06-16T06:48:32Z</time>
      </trkpt>
      <trkpt lat="42.09244" lon="9.1309">
        <ele>1942</ele>
        <time>2018-06-16T06:48:47Z</time>
      </trkpt>
      <trkpt lat="42.09242" lon="9.13094">
        <ele>1944</ele>
        <time>2018-06-16T06:49:01Z</time>
      </trkpt>
      <trkpt lat="42.09243" lon="9.13102">
        <ele>1947</ele>
        <time>2018-06-16T06:49:17Z</time>
      </trkpt>
      <trkpt lat="42.09244" lon="9.13113">
        <ele>1950</ele>
        <time>2018-06-16T06:49:33Z</time>
      </trkpt>
      <trkpt lat="42.09243" lon="9.13124">
        <ele>1952</ele>
        <time>2018-06-16T06:49:50Z</time>
      </trkpt>
      <trkpt lat="42.09238" lon="9.13121">
        <ele>1952</ele>
        <time>2018-06-16T06:50:06Z</time>
      </trkpt>
      <trkpt lat="42.09233" lon="9.13113">
        <ele>1952</ele>
        <time>2018-06-16T06:50:20Z</time>
      </trkpt>
      <trkpt lat="42.09229" lon="9.13114">
        <ele>1953</ele>
        <time>2018-06-16T06:50:37Z</time>
      </trkpt>
      <trkpt lat="42.09228" lon="9.13123">
        <ele>1954</ele>
        <time>2018-06-16T06:50:54Z</time>
      </trkpt>
      <trkpt lat="42.09225" lon="9.1312">
        <ele>1954</ele>
        <time>2018-06-16T06:51:13Z</time>
      </trkpt>
      <trkpt lat="42.09218" lon="9.13118">
        <ele>1955</ele>
        <time>2018-06-16T06:51:47Z</time>
      </trkpt>
      <trkpt lat="42.09215" lon="9.1312">
        <ele>1956</ele>
        <time>2018-06-16T06:52:03Z</time>
      </trkpt>
      <trkpt lat="42.09213" lon="9.13126">
        <ele>1958</ele>
        <time>2018-06-16T06:52:19Z</time>
      </trkpt>
      <trkpt lat="42.09211" lon="9.13133">
        <ele>1959</ele>
        <time>2018-06-16T06:52:36Z</time>
      </trkpt>
      <trkpt lat="42.09206" lon="9.13132">
        <ele>1960</ele>
        <time>2018-06-16T06:52:52Z</time>
      </trkpt>
      <trkpt lat="42.09203" lon="9.13133">
        <ele>1961</ele>
        <time>2018-06-16T06:53:03Z</time>
      </trkpt>
      <trkpt lat="42.09201" lon="9.1314">
        <ele>1963</ele>
        <time>2018-06-16T06:53:19Z</time>
      </trkpt>
      <trkpt lat="42.09198" lon="9.13147">
        <ele>1965</ele>
        <time>2018-06-16T06:53:45Z</time>
      </trkpt>
      <trkpt lat="42.09198" lon="9.13161">
        <ele>1968</ele>
        <time>2018-06-16T06:54:03Z</time>
      </trkpt>
      <trkpt lat="42.09197" lon="9.13174">
        <ele>1980</ele>
        <time>2018-06-16T06:54:21Z</time>
      </trkpt>
      <trkpt lat="42.09194" lon="9.13181">
        <ele>1981</ele>
        <time>2018-06-16T06:54:42Z</time>
      </trkpt>
      <trkpt lat="42.09193" lon="9.1319">
        <ele>1981</ele>
        <time>2018-06-16T06:55:00Z</time>
      </trkpt>
      <trkpt lat="42.0919" lon="9.13199">
        <ele>1982</ele>
        <time>2018-06-16T06:55:17Z</time>
      </trkpt>
      <trkpt lat="42.09186" lon="9.13204">
        <ele>1983</ele>
        <time>2018-06-16T06:55:33Z</time>
      </trkpt>
      <trkpt lat="42.09183" lon="9.13209">
        <ele>1984</ele>
        <time>2018-06-16T06:55:49Z</time>
      </trkpt>
      <trkpt lat="42.0918" lon="9.13205">
        <ele>1984</ele>
        <time>2018-06-16T06:56:07Z</time>
      </trkpt>
      <trkpt lat="42.09179" lon="9.13206">
        <ele>1984</ele>
        <time>2018-06-16T06:56:31Z</time>
      </trkpt>
      <trkpt lat="42.09179" lon="9.13217">
        <ele>1986</ele>
        <time>2018-06-16T06:57:03Z</time>
      </trkpt>
      <trkpt lat="42.09176" lon="9.13222">
        <ele>1988</ele>
        <time>2018-06-16T06:57:23Z</time>
      </trkpt>
      <trkpt lat="42.09176" lon="9.13221">
        <ele>1988</ele>
        <time>2018-06-16T06:57:50Z</time>
      </trkpt>
      <trkpt lat="42.09171" lon="9.13225">
        <ele>1990</ele>
        <time>2018-06-16T06:58:09Z</time>
      </trkpt>
      <trkpt lat="42.09167" lon="9.1323">
        <ele>1993</ele>
        <time>2018-06-16T06:58:25Z</time>
      </trkpt>
      <trkpt lat="42.09166" lon="9.13238">
        <ele>2008</ele>
        <time>2018-06-16T06:58:41Z</time>
      </trkpt>
      <trkpt lat="42.09165" lon="9.1324">
        <ele>2008</ele>
        <time>2018-06-16T06:58:57Z</time>
      </trkpt>
      <trkpt lat="42.0916" lon="9.1324">
        <ele>2008</ele>
        <time>2018-06-16T06:59:22Z</time>
      </trkpt>
      <trkpt lat="42.09158" lon="9.13247">
        <ele>2009</ele>
        <time>2018-06-16T06:59:39Z</time>
      </trkpt>
      <trkpt lat="42.09151" lon="9.13238">
        <ele>2008</ele>
        <time>2018-06-16T06:59:57Z</time>
      </trkpt>
      <trkpt lat="42.09148" lon="9.13237">
        <ele>2008</ele>
        <time>2018-06-16T07:00:19Z</time>
      </trkpt>
      <trkpt lat="42.09144" lon="9.13234">
        <ele>2008</ele>
        <time>2018-06-16T07:00:34Z</time>
      </trkpt>
      <trkpt lat="42.09141" lon="9.13239">
        <ele>2008</ele>
        <time>2018-06-16T07:00:49Z</time>
      </trkpt>
      <trkpt lat="42.09137" lon="9.13233">
        <ele>2008</ele>
        <time>2018-06-16T07:01:03Z</time>
      </trkpt>
      <trkpt lat="42.09133" lon="9.1323">
        <ele>2008</ele>
        <time>2018-06-16T07:01:17Z</time>
      </trkpt>
      <trkpt lat="42.09131" lon="9.13231">
        <ele>2008</ele>
        <time>2018-06-16T07:01:34Z</time>
      </trkpt>
      <trkpt lat="42.09131" lon="9.13243">
        <ele>2009</ele>
        <time>2018-06-16T07:01:50Z</time>
      </trkpt>
      <trkpt lat="42.09129" lon="9.13251">
        <ele>2024</ele>
        <time>2018-06-16T07:02:05Z</time>
      </trkpt>
      <trkpt lat="42.09128" lon="9.1326">
        <ele>2025</ele>
        <time>2018-06-16T07:02:19Z</time>
      </trkpt>
      <trkpt lat="42.09128" lon="9.13267">
        <ele>2026</ele>
        <time>2018-06-16T07:02:37Z</time>
      </trkpt>
      <trkpt lat="42.09129" lon="9.13271">
        <ele>2026</ele>
        <time>2018-06-16T07:02:55Z</time>
      </trkpt>
      <trkpt lat="42.09126" lon="9.13275">
        <ele>2027</ele>
        <time>2018-06-16T07:03:13Z</time>
      </trkpt>
      <trkpt lat="42.09125" lon="9.13288">
        <ele>2028</ele>
        <time>2018-06-16T07:03:31Z</time>
      </trkpt>
      <trkpt lat="42.09122" lon="9.13296">
        <ele>2030</ele>
        <time>2018-06-16T07:03:49Z</time>
      </trkpt>
      <trkpt lat="42.09116" lon="9.13293">
        <ele>2030</ele>
        <time>2018-06-16T07:04:04Z</time>
      </trkpt>
      <trkpt lat="42.09112" lon="9.13292">
        <ele>2031</ele>
        <time>2018-06-16T07:04:23Z</time>
      </trkpt>
      <trkpt lat="42.0911" lon="9.13299">
        <ele>2033</ele>
        <time>2018-06-16T07:04:37Z</time>
      </trkpt>
      <trkpt lat="42.0911" lon="9.1331">
        <ele>2035</ele>
        <time>2018-06-16T07:04:53Z</time>
      </trkpt>
      <trkpt lat="42.09111" lon="9.13316">
        <ele>2036</ele>
        <time>2018-06-16T07:05:11Z</time>
      </trkpt>
      <trkpt lat="42.0911" lon="9.13323">
        <ele>2037</ele>
        <time>2018-06-16T07:05:28Z</time>
      </trkpt>
      <trkpt lat="42.0911" lon="9.13336">
        <ele>2045</ele>
        <time>2018-06-16T07:05:45Z</time>
      </trkpt>
      <trkpt lat="42.09108" lon="9.13338">
        <ele>2045</ele>
        <time>2018-06-16T07:06:02Z</time>
      </trkpt>
      <trkpt lat="42.09108" lon="9.13346">
        <ele>2045</ele>
        <time>2018-06-16T07:06:14Z</time>
      </trkpt>
      <trkpt lat="42.09109" lon="9.13357">
        <ele>2043</ele>
        <time>2018-06-16T07:06:32Z</time>
      </trkpt>
      <trkpt lat="42.09109" lon="9.13366">
        <ele>2043</ele>
        <time>2018-06-16T07:06:47Z</time>
      </trkpt>
      <trkpt lat="42.09109" lon="9.13379">
        <ele>2042</ele>
        <time>2018-06-16T07:07:04Z</time>
      </trkpt>
      <trkpt lat="42.09108" lon="9.13391">
        <ele>2043</ele>
        <time>2018-06-16T07:07:21Z</time>
      </trkpt>
      <trkpt lat="42.09105" lon="9.13393">
        <ele>2043</ele>
        <time>2018-06-16T07:07:35Z</time>
      </trkpt>
      <trkpt lat="42.09102" lon="9.13388">
        <ele>2044</ele>
        <time>2018-06-16T07:07:52Z</time>
      </trkpt>
      <trkpt lat="42.09099" lon="9.13385">
        <ele>2044</ele>
        <time>2018-06-16T07:08:09Z</time>
      </trkpt>
      <trkpt lat="42.09096" lon="9.13386">
        <ele>2044</ele>
        <time>2018-06-16T07:08:23Z</time>
      </trkpt>
      <trkpt lat="42.09095" lon="9.13387">
        <ele>2044</ele>
        <time>2018-06-16T07:08:41Z</time>
      </trkpt>
      <trkpt lat="42.09094" lon="9.1338">
        <ele>2044</ele>
        <time>2018-06-16T07:08:57Z</time>
      </trkpt>
      <trkpt lat="42.09093" lon="9.13382">
        <ele>2045</ele>
        <time>2018-06-16T07:09:23Z</time>
      </trkpt>
      <trkpt lat="42.09092" lon="9.1338">
        <ele>2045</ele>
        <time>2018-06-16T07:09:42Z</time>
      </trkpt>
      <trkpt lat="42.09088" lon="9.13381">
        <ele>2045</ele>
        <time>2018-06-16T07:10:02Z</time>
      </trkpt>
      <trkpt lat="42.09088" lon="9.13381">
        <ele>2045</ele>
        <time>2018-06-16T07:10:21Z</time>
      </trkpt>
      <trkpt lat="42.09085" lon="9.13379">
        <ele>2045</ele>
        <time>2018-06-16T07:10:47Z</time>
      </trkpt>
      <trkpt lat="42.09082" lon="9.13383">
        <ele>2049</ele>
        <time>2018-06-16T07:11:03Z</time>
      </trkpt>
      <trkpt lat="42.09084" lon="9.13388">
        <ele>2045</ele>
        <time>2018-06-16T07:11:23Z</time>
      </trkpt>
      <trkpt lat="42.09085" lon="9.13399">
        <ele>2046</ele>
        <time>2018-06-16T07:11:41Z</time>
      </trkpt>
      <trkpt lat="42.09088" lon="9.13402">
        <ele>2047</ele>
        <time>2018-06-16T07:11:55Z</time>
      </trkpt>
      <trkpt lat="42.09091" lon="9.13403">
        <ele>2046</ele>
        <time>2018-06-16T07:12:24Z</time>
      </trkpt>
      <trkpt lat="42.09094" lon="9.1341">
        <ele>2047</ele>
        <time>2018-06-16T07:12:40Z</time>
      </trkpt>
      <trkpt lat="42.09095" lon="9.13407">
        <ele>2046</ele>
        <time>2018-06-16T07:12:53Z</time>
      </trkpt>
      <trkpt lat="42.09095" lon="9.13408">
        <ele>2046</ele>
        <time>2018-06-16T07:13:16Z</time>
      </trkpt>
      <trkpt lat="42.09095" lon="9.13409">
        <ele>2047</ele>
        <time>2018-06-16T07:13:32Z</time>
      </trkpt>
      <trkpt lat="42.09094" lon="9.13409">
        <ele>2047</ele>
        <time>2018-06-16T07:13:50Z</time>
      </trkpt>
      <trkpt lat="42.09094" lon="9.13408">
        <ele>2046</ele>
        <time>2018-06-16T07:15:07Z</time>
      </trkpt>
      <trkpt lat="42.09093" lon="9.13406">
        <ele>2046</ele>
        <time>2018-06-16T07:15:41Z</time>
      </trkpt>
      <trkpt lat="42.09093" lon="9.13407">
        <ele>2047</ele>
        <time>2018-06-16T07:16:13Z</time>
      </trkpt>
      <trkpt lat="42.09093" lon="9.13407">
        <ele>2047</ele>
        <time>2018-06-16T07:16:41Z</time>
      </trkpt>
      <trkpt lat="42.09093" lon="9.13409">
        <ele>2047</ele>
        <time>2018-06-16T07:17:13Z</time>
      </trkpt>
      <trkpt lat="42.09094" lon="9.13407">
        <ele>2046</ele>
        <time>2018-06-16T07:17:42Z</time>
      </trkpt>
      <trkpt lat="42.09094" lon="9.13407">
        <ele>2046</ele>
        <time>2018-06-16T07:19:13Z</time>
      </trkpt>
      <trkpt lat="42.09094" lon="9.13405">
        <ele>2046</ele>
        <time>2018-06-16T07:20:36Z</time>
      </trkpt>
      <trkpt lat="42.09094" lon="9.13407">
        <ele>2046</ele>
        <time>2018-06-16T07:21:11Z</time>
      </trkpt>
      <trkpt lat="42.09095" lon="9.13408">
        <ele>2046</ele>
        <time>2018-06-16T07:22:29Z</time>
      </trkpt>
      <trkpt lat="42.09095" lon="9.13407">
        <ele>2046</ele>
        <time>2018-06-16T07:23:35Z</time>
      </trkpt>
      <trkpt lat="42.09095" lon="9.13406">
        <ele>2046</ele>
        <time>2018-06-16T07:24:49Z</time>
      </trkpt>
      <trkpt lat="42.09096" lon="9.13408">
        <ele>2046</ele>
        <time>2018-06-16T07:26:16Z</time>
      </trkpt>
      <trkpt lat="42.09095" lon="9.13407">
        <ele>2046</ele>
        <time>2018-06-16T07:27:06Z</time>
      </trkpt>
      <trkpt lat="42.09096" lon="9.13409">
        <ele>2046</ele>
        <time>2018-06-16T07:28:01Z</time>
      </trkpt>
      <trkpt lat="42.09095" lon="9.13407">
        <ele>2046</ele>
        <time>2018-06-16T07:29:12Z</time>
      </trkpt>
      <trkpt lat="42.09095" lon="9.13408">
        <ele>2046</ele>
        <time>2018-06-16T07:30:02Z</time>
      </trkpt>
      <trkpt lat="42.09095" lon="9.13406">
        <ele>2046</ele>
        <time>2018-06-16T07:31:02Z</time>
      </trkpt>
      <trkpt lat="42.09096" lon="9.13408">
        <ele>2046</ele>
        <time>2018-06-16T07:32:08Z</time>
      </trkpt>
      <trkpt lat="42.09096" lon="9.13409">
        <ele>2046</ele>
        <time>2018-06-16T07:32:46Z</time>
      </trkpt>
      <trkpt lat="42.09096" lon="9.13408">
        <ele>2046</ele>
        <time>2018-06-16T07:34:24Z</time>
      </trkpt>
      <trkpt lat="42.09097" lon="9.13408">
        <ele>2046</ele>
        <time>2018-06-16T07:35:08Z</time>
      </trkpt>
      <trkpt lat="42.09097" lon="9.13408">
        <ele>2046</ele>
        <time>2018-06-16T07:35:57Z</time>
      </trkpt>
      <trkpt lat="42.09097" lon="9.13408">
        <ele>2046</ele>
        <time>2018-06-16T07:36:42Z</time>
      </trkpt>
      <trkpt lat="42.09096" lon="9.13408">
        <ele>2046</ele>
        <time>2018-06-16T07:37:18Z</time>
      </trkpt>
      <trkpt lat="42.09094" lon="9.13407">
        <ele>2046</ele>
        <time>2018-06-16T07:37:55Z</time>
      </trkpt>
      <trkpt lat="42.09091" lon="9.13405">
        <ele>2047</ele>
        <time>2018-06-16T07:38:43Z</time>
      </trkpt>
      <trkpt lat="42.09094" lon="9.13407">
        <ele>2047</ele>
        <time>2018-06-16T07:39:17Z</time>
      </trkpt>
      <trkpt lat="42.09093" lon="9.13408">
        <ele>2047</ele>
        <time>2018-06-16T07:39:48Z</time>
      </trkpt>
      <trkpt lat="42.09093" lon="9.13408">
        <ele>2047</ele>
        <time>2018-06-16T07:40:25Z</time>
      </trkpt>
      <trkpt lat="42.09095" lon="9.13407">
        <ele>2046</ele>
        <time>2018-06-16T07:40:49Z</time>
      </trkpt>
      <trkpt lat="42.09093" lon="9.13407">
        <ele>2047</ele>
        <time>2018-06-16T07:41:29Z</time>
      </trkpt>
      <trkpt lat="42.09095" lon="9.13408">
        <ele>2046</ele>
        <time>2018-06-16T07:42:01Z</time>
      </trkpt>
      <trkpt lat="42.09094" lon="9.13407">
        <ele>2046</ele>
        <time>2018-06-16T07:42:23Z</time>
      </trkpt>
      <trkpt lat="42.09094" lon="9.13408">
        <ele>2046</ele>
        <time>2018-06-16T07:42:46Z</time>
      </trkpt>
      <trkpt lat="42.09093" lon="9.13405">
        <ele>2046</ele>
        <time>2018-06-16T07:43:00Z</time>
      </trkpt>
      <trkpt lat="42.09095" lon="9.13403">
        <ele>2046</ele>
        <time>2018-06-16T07:43:13Z</time>
      </trkpt>
      <trkpt lat="42.09092" lon="9.13401">
        <ele>2046</ele>
        <time>2018-06-16T07:43:30Z</time>
      </trkpt>
      <trkpt lat="42.0909" lon="9.13397">
        <ele>2046</ele>
        <time>2018-06-16T07:43:45Z</time>
      </trkpt>
      <trkpt lat="42.09089" lon="9.1339">
        <ele>2045</ele>
        <time>2018-06-16T07:44:00Z</time>
      </trkpt>
      <trkpt lat="42.0909" lon="9.13385">
        <ele>2045</ele>
        <time>2018-06-16T07:44:23Z</time>
      </trkpt>
      <trkpt lat="42.0909" lon="9.13378">
        <ele>2045</ele>
        <time>2018-06-16T07:44:39Z</time>
      </trkpt>
      <trkpt lat="42.09093" lon="9.13377">
        <ele>2045</ele>
        <time>2018-06-16T07:44:56Z</time>
      </trkpt>
      <trkpt lat="42.09097" lon="9.13377">
        <ele>2044</ele>
        <time>2018-06-16T07:45:12Z</time>
      </trkpt>
      <trkpt lat="42.09098" lon="9.13375">
        <ele>2044</ele>
        <time>2018-06-16T07:45:28Z</time>
      </trkpt>
      <trkpt lat="42.09097" lon="9.13376">
        <ele>2044</ele>
        <time>2018-06-16T07:45:46Z</time>
      </trkpt>
      <trkpt lat="42.091" lon="9.13378">
        <ele>2044</ele>
        <time>2018-06-16T07:46:00Z</time>
      </trkpt>
      <trkpt lat="42.09102" lon="9.13378">
        <ele>2044</ele>
        <time>2018-06-16T07:46:17Z</time>
      </trkpt>
      <trkpt lat="42.09101" lon="9.1338">
        <ele>2044</ele>
        <time>2018-06-16T07:46:40Z</time>
      </trkpt>
      <trkpt lat="42.09103" lon="9.13385">
        <ele>2043</ele>
        <time>2018-06-16T07:47:02Z</time>
      </trkpt>
      <trkpt lat="42.09108" lon="9.13386">
        <ele>2043</ele>
        <time>2018-06-16T07:47:16Z</time>
      </trkpt>
      <trkpt lat="42.09107" lon="9.13387">
        <ele>2043</ele>
        <time>2018-06-16T07:47:34Z</time>
      </trkpt>
      <trkpt lat="42.09112" lon="9.13388">
        <ele>2042</ele>
        <time>2018-06-16T07:47:51Z</time>
      </trkpt>
      <trkpt lat="42.09119" lon="9.1339">
        <ele>2041</ele>
        <time>2018-06-16T07:48:07Z</time>
      </trkpt>
      <trkpt lat="42.09119" lon="9.13387">
        <ele>2041</ele>
        <time>2018-06-16T07:48:20Z</time>
      </trkpt>
      <trkpt lat="42.09117" lon="9.1337">
        <ele>2041</ele>
        <time>2018-06-16T07:48:36Z</time>
      </trkpt>
      <trkpt lat="42.09119" lon="9.13357">
        <ele>2041</ele>
        <time>2018-06-16T07:48:50Z</time>
      </trkpt>
      <trkpt lat="42.09123" lon="9.13362">
        <ele>2040</ele>
        <time>2018-06-16T07:49:04Z</time>
      </trkpt>
      <trkpt lat="42.09128" lon="9.13362">
        <ele>2039</ele>
        <time>2018-06-16T07:49:18Z</time>
      </trkpt>
      <trkpt lat="42.09128" lon="9.13359">
        <ele>2038</ele>
        <time>2018-06-16T07:49:22Z</time>
      </trkpt>
      <trkpt lat="42.09128" lon="9.13354">
        <ele>2038</ele>
        <time>2018-06-16T07:49:35Z</time>
      </trkpt>
      <trkpt lat="42.09129" lon="9.13354">
        <ele>2038</ele>
        <time>2018-06-16T07:49:58Z</time>
      </trkpt>
      <trkpt lat="42.0913" lon="9.13361">
        <ele>2038</ele>
        <time>2018-06-16T07:50:13Z</time>
      </trkpt>
      <trkpt lat="42.09134" lon="9.1337">
        <ele>2038</ele>
        <time>2018-06-16T07:50:29Z</time>
      </trkpt>
      <trkpt lat="42.09137" lon="9.13378">
        <ele>2037</ele>
        <time>2018-06-16T07:50:44Z</time>
      </trkpt>
      <trkpt lat="42.0914" lon="9.13384">
        <ele>2037</ele>
        <time>2018-06-16T07:50:56Z</time>
      </trkpt>
      <trkpt lat="42.09144" lon="9.13393">
        <ele>2037</ele>
        <time>2018-06-16T07:51:11Z</time>
      </trkpt>
      <trkpt lat="42.09147" lon="9.13401">
        <ele>2036</ele>
        <time>2018-06-16T07:51:24Z</time>
      </trkpt>
      <trkpt lat="42.09149" lon="9.13406">
        <ele>2036</ele>
        <time>2018-06-16T07:51:36Z</time>
      </trkpt>
      <trkpt lat="42.09156" lon="9.13417">
        <ele>2032</ele>
        <time>2018-06-16T07:51:50Z</time>
      </trkpt>
      <trkpt lat="42.09161" lon="9.13423">
        <ele>2032</ele>
        <time>2018-06-16T07:52:04Z</time>
      </trkpt>
      <trkpt lat="42.09165" lon="9.13428">
        <ele>2031</ele>
        <time>2018-06-16T07:52:20Z</time>
      </trkpt>
      <trkpt lat="42.0917" lon="9.1344">
        <ele>2024</ele>
        <time>2018-06-16T07:52:33Z</time>
      </trkpt>
      <trkpt lat="42.09177" lon="9.1345">
        <ele>2022</ele>
        <time>2018-06-16T07:52:49Z</time>
      </trkpt>
      <trkpt lat="42.09184" lon="9.13454">
        <ele>2021</ele>
        <time>2018-06-16T07:53:04Z</time>
      </trkpt>
      <trkpt lat="42.09186" lon="9.13456">
        <ele>2021</ele>
        <time>2018-06-16T07:53:21Z</time>
      </trkpt>
      <trkpt lat="42.09191" lon="9.13456">
        <ele>2020</ele>
        <time>2018-06-16T07:53:34Z</time>
      </trkpt>
      <trkpt lat="42.09195" lon="9.1346">
        <ele>2019</ele>
        <time>2018-06-16T07:53:48Z</time>
      </trkpt>
      <trkpt lat="42.09197" lon="9.13459">
        <ele>2019</ele>
        <time>2018-06-16T07:53:50Z</time>
      </trkpt>
      <trkpt lat="42.09207" lon="9.13465">
        <ele>2018</ele>
        <time>2018-06-16T07:54:02Z</time>
      </trkpt>
      <trkpt lat="42.0922" lon="9.13475">
        <ele>2017</ele>
        <time>2018-06-16T07:54:19Z</time>
      </trkpt>
      <trkpt lat="42.09224" lon="9.1348">
        <ele>2017</ele>
        <time>2018-06-16T07:54:26Z</time>
      </trkpt>
      <trkpt lat="42.0923" lon="9.13493">
        <ele>2018</ele>
        <time>2018-06-16T07:54:40Z</time>
      </trkpt>
      <trkpt lat="42.09235" lon="9.13501">
        <ele>2020</ele>
        <time>2018-06-16T07:54:55Z</time>
      </trkpt>
      <trkpt lat="42.0924" lon="9.13507">
        <ele>2020</ele>
        <time>2018-06-16T07:55:09Z</time>
      </trkpt>
      <trkpt lat="42.09249" lon="9.13518">
        <ele>2020</ele>
        <time>2018-06-16T07:55:25Z</time>
      </trkpt>
      <trkpt lat="42.09259" lon="9.13528">
        <ele>2017</ele>
        <time>2018-06-16T07:55:41Z</time>
      </trkpt>
      <trkpt lat="42.09271" lon="9.13544">
        <ele>2017</ele>
        <time>2018-06-16T07:56:00Z</time>
      </trkpt>
      <trkpt lat="42.09282" lon="9.13551">
        <ele>2017</ele>
        <time>2018-06-16T07:56:17Z</time>
      </trkpt>
      <trkpt lat="42.09292" lon="9.13554">
        <ele>2015</ele>
        <time>2018-06-16T07:56:34Z</time>
      </trkpt>
      <trkpt lat="42.09308" lon="9.1356">
        <ele>2014</ele>
        <time>2018-06-16T07:56:50Z</time>
      </trkpt>
      <trkpt lat="42.09319" lon="9.13569">
        <ele>2014</ele>
        <time>2018-06-16T07:57:08Z</time>
      </trkpt>
      <trkpt lat="42.09326" lon="9.13578">
        <ele>2014</ele>
        <time>2018-06-16T07:57:23Z</time>
      </trkpt>
      <trkpt lat="42.09334" lon="9.13583">
        <ele>2013</ele>
        <time>2018-06-16T07:57:36Z</time>
      </trkpt>
      <trkpt lat="42.09335" lon="9.13585">
        <ele>2014</ele>
        <time>2018-06-16T07:57:50Z</time>
      </trkpt>
      <trkpt lat="42.09342" lon="9.1359">
        <ele>2014</ele>
        <time>2018-06-16T07:58:01Z</time>
      </trkpt>
      <trkpt lat="42.09353" lon="9.13599">
        <ele>2014</ele>
        <time>2018-06-16T07:58:17Z</time>
      </trkpt>
      <trkpt lat="42.09356" lon="9.13608">
        <ele>2014</ele>
        <time>2018-06-16T07:58:38Z</time>
      </trkpt>
      <trkpt lat="42.09366" lon="9.13617">
        <ele>2014</ele>
        <time>2018-06-16T07:58:54Z</time>
      </trkpt>
      <trkpt lat="42.09375" lon="9.13626">
        <ele>2015</ele>
        <time>2018-06-16T07:59:09Z</time>
      </trkpt>
      <trkpt lat="42.09378" lon="9.13629">
        <ele>2015</ele>
        <time>2018-06-16T07:59:28Z</time>
      </trkpt>
      <trkpt lat="42.09378" lon="9.13629">
        <ele>2015</ele>
        <time>2018-06-16T07:59:43Z</time>
      </trkpt>
      <trkpt lat="42.09386" lon="9.13638">
        <ele>2016</ele>
        <time>2018-06-16T08:00:01Z</time>
      </trkpt>
      <trkpt lat="42.09388" lon="9.13639">
        <ele>2016</ele>
        <time>2018-06-16T08:00:03Z</time>
      </trkpt>
      <trkpt lat="42.09393" lon="9.13649">
        <ele>2017</ele>
        <time>2018-06-16T08:00:17Z</time>
      </trkpt>
      <trkpt lat="42.09402" lon="9.13661">
        <ele>2019</ele>
        <time>2018-06-16T08:00:35Z</time>
      </trkpt>
      <trkpt lat="42.09408" lon="9.13671">
        <ele>2026</ele>
        <time>2018-06-16T08:00:48Z</time>
      </trkpt>
      <trkpt lat="42.09415" lon="9.13683">
        <ele>2027</ele>
        <time>2018-06-16T08:01:06Z</time>
      </trkpt>
      <trkpt lat="42.09426" lon="9.13692">
        <ele>2026</ele>
        <time>2018-06-16T08:01:24Z</time>
      </trkpt>
      <trkpt lat="42.09431" lon="9.13697">
        <ele>2026</ele>
        <time>2018-06-16T08:01:39Z</time>
      </trkpt>
      <trkpt lat="42.09424" lon="9.13702">
        <ele>2027</ele>
        <time>2018-06-16T08:01:55Z</time>
      </trkpt>
      <trkpt lat="42.09422" lon="9.13708">
        <ele>2028</ele>
        <time>2018-06-16T08:02:11Z</time>
      </trkpt>
      <trkpt lat="42.0943" lon="9.13713">
        <ele>2029</ele>
        <time>2018-06-16T08:02:26Z</time>
      </trkpt>
      <trkpt lat="42.09424" lon="9.13717">
        <ele>2030</ele>
        <time>2018-06-16T08:02:43Z</time>
      </trkpt>
      <trkpt lat="42.09424" lon="9.13722">
        <ele>2031</ele>
        <time>2018-06-16T08:02:57Z</time>
      </trkpt>
      <trkpt lat="42.09425" lon="9.13729">
        <ele>2033</ele>
        <time>2018-06-16T08:03:15Z</time>
      </trkpt>
      <trkpt lat="42.09423" lon="9.13736">
        <ele>2036</ele>
        <time>2018-06-16T08:03:29Z</time>
      </trkpt>
      <trkpt lat="42.09425" lon="9.13743">
        <ele>2038</ele>
        <time>2018-06-16T08:03:43Z</time>
      </trkpt>
      <trkpt lat="42.09424" lon="9.13746">
        <ele>2040</ele>
        <time>2018-06-16T08:03:59Z</time>
      </trkpt>
      <trkpt lat="42.09426" lon="9.13749">
        <ele>2039</ele>
        <time>2018-06-16T08:04:12Z</time>
      </trkpt>
      <trkpt lat="42.09429" lon="9.13751">
        <ele>2041</ele>
        <time>2018-06-16T08:04:40Z</time>
      </trkpt>
      <trkpt lat="42.09435" lon="9.1376">
        <ele>2039</ele>
        <time>2018-06-16T08:04:56Z</time>
      </trkpt>
      <trkpt lat="42.0944" lon="9.1377">
        <ele>2037</ele>
        <time>2018-06-16T08:05:11Z</time>
      </trkpt>
      <trkpt lat="42.09443" lon="9.13774">
        <ele>2036</ele>
        <time>2018-06-16T08:05:27Z</time>
      </trkpt>
      <trkpt lat="42.09448" lon="9.13789">
        <ele>2035</ele>
        <time>2018-06-16T08:05:45Z</time>
      </trkpt>
      <trkpt lat="42.09448" lon="9.13788">
        <ele>2035</ele>
        <time>2018-06-16T08:06:12Z</time>
      </trkpt>
      <trkpt lat="42.09449" lon="9.13788">
        <ele>2035</ele>
        <time>2018-06-16T08:06:20Z</time>
      </trkpt>
      <trkpt lat="42.09456" lon="9.13785">
        <ele>2034</ele>
        <time>2018-06-16T08:06:34Z</time>
      </trkpt>
      <trkpt lat="42.09458" lon="9.13781">
        <ele>2034</ele>
        <time>2018-06-16T08:06:47Z</time>
      </trkpt>
      <trkpt lat="42.09464" lon="9.13778">
        <ele>2034</ele>
        <time>2018-06-16T08:07:00Z</time>
      </trkpt>
      <trkpt lat="42.09467" lon="9.13783">
        <ele>2033</ele>
        <time>2018-06-16T08:07:19Z</time>
      </trkpt>
      <trkpt lat="42.09472" lon="9.13782">
        <ele>2033</ele>
        <time>2018-06-16T08:07:33Z</time>
      </trkpt>
      <trkpt lat="42.09474" lon="9.13782">
        <ele>2033</ele>
        <time>2018-06-16T08:07:54Z</time>
      </trkpt>
      <trkpt lat="42.09479" lon="9.13778">
        <ele>2033</ele>
        <time>2018-06-16T08:08:11Z</time>
      </trkpt>
      <trkpt lat="42.09477" lon="9.13774">
        <ele>2033</ele>
        <time>2018-06-16T08:08:24Z</time>
      </trkpt>
      <trkpt lat="42.09475" lon="9.13774">
        <ele>2033</ele>
        <time>2018-06-16T08:08:40Z</time>
      </trkpt>
      <trkpt lat="42.09475" lon="9.13772">
        <ele>2033</ele>
        <time>2018-06-16T08:08:58Z</time>
      </trkpt>
      <trkpt lat="42.09478" lon="9.13764">
        <ele>2033</ele>
        <time>2018-06-16T08:09:11Z</time>
      </trkpt>
      <trkpt lat="42.09482" lon="9.13764">
        <ele>2033</ele>
        <time>2018-06-16T08:09:27Z</time>
      </trkpt>
      <trkpt lat="42.09491" lon="9.13766">
        <ele>2032</ele>
        <time>2018-06-16T08:09:40Z</time>
      </trkpt>
      <trkpt lat="42.09503" lon="9.13769">
        <ele>2027</ele>
        <time>2018-06-16T08:09:56Z</time>
      </trkpt>
      <trkpt lat="42.09512" lon="9.13776">
        <ele>2026</ele>
        <time>2018-06-16T08:10:12Z</time>
      </trkpt>
      <trkpt lat="42.09516" lon="9.13783">
        <ele>2025</ele>
        <time>2018-06-16T08:10:27Z</time>
      </trkpt>
      <trkpt lat="42.09518" lon="9.13782">
        <ele>2025</ele>
        <time>2018-06-16T08:10:41Z</time>
      </trkpt>
      <trkpt lat="42.09518" lon="9.13782">
        <ele>2025</ele>
        <time>2018-06-16T08:11:10Z</time>
      </trkpt>
      <trkpt lat="42.09518" lon="9.13784">
        <ele>2025</ele>
        <time>2018-06-16T08:11:39Z</time>
      </trkpt>
      <trkpt lat="42.09518" lon="9.13784">
        <ele>2025</ele>
        <time>2018-06-16T08:12:08Z</time>
      </trkpt>
      <trkpt lat="42.09518" lon="9.13785">
        <ele>2025</ele>
        <time>2018-06-16T08:12:36Z</time>
      </trkpt>
      <trkpt lat="42.09521" lon="9.13783">
        <ele>2025</ele>
        <time>2018-06-16T08:12:44Z</time>
      </trkpt>
      <trkpt lat="42.09529" lon="9.13782">
        <ele>2025</ele>
        <time>2018-06-16T08:12:55Z</time>
      </trkpt>
      <trkpt lat="42.09531" lon="9.13781">
        <ele>2025</ele>
        <time>2018-06-16T08:12:57Z</time>
      </trkpt>
      <trkpt lat="42.09542" lon="9.13778">
        <ele>2024</ele>
        <time>2018-06-16T08:13:15Z</time>
      </trkpt>
      <trkpt lat="42.09546" lon="9.13779">
        <ele>2024</ele>
        <time>2018-06-16T08:13:20Z</time>
      </trkpt>
      <trkpt lat="42.09555" lon="9.13785">
        <ele>2024</ele>
        <time>2018-06-16T08:13:34Z</time>
      </trkpt>
      <trkpt lat="42.09563" lon="9.1379">
        <ele>2024</ele>
        <time>2018-06-16T08:13:48Z</time>
      </trkpt>
      <trkpt lat="42.09572" lon="9.13799">
        <ele>2023</ele>
        <time>2018-06-16T08:14:04Z</time>
      </trkpt>
      <trkpt lat="42.09573" lon="9.13799">
        <ele>2023</ele>
        <time>2018-06-16T08:14:25Z</time>
      </trkpt>
      <trkpt lat="42.09574" lon="9.13798">
        <ele>2023</ele>
        <time>2018-06-16T08:14:58Z</time>
      </trkpt>
      <trkpt lat="42.09576" lon="9.138">
        <ele>2023</ele>
        <time>2018-06-16T08:15:36Z</time>
      </trkpt>
      <trkpt lat="42.09577" lon="9.13801">
        <ele>2023</ele>
        <time>2018-06-16T08:15:37Z</time>
      </trkpt>
      <trkpt lat="42.09581" lon="9.13807">
        <ele>2023</ele>
        <time>2018-06-16T08:15:44Z</time>
      </trkpt>
      <trkpt lat="42.09584" lon="9.1381">
        <ele>2018</ele>
        <time>2018-06-16T08:15:49Z</time>
      </trkpt>
      <trkpt lat="42.09601" lon="9.13818">
        <ele>2018</ele>
        <time>2018-06-16T08:16:08Z</time>
      </trkpt>
      <trkpt lat="42.09603" lon="9.13826">
        <ele>2018</ele>
        <time>2018-06-16T08:16:25Z</time>
      </trkpt>
      <trkpt lat="42.09602" lon="9.13828">
        <ele>2018</ele>
        <time>2018-06-16T08:16:44Z</time>
      </trkpt>
      <trkpt lat="42.096" lon="9.13826">
        <ele>2018</ele>
        <time>2018-06-16T08:16:55Z</time>
      </trkpt>
      <trkpt lat="42.09599" lon="9.13828">
        <ele>2019</ele>
        <time>2018-06-16T08:17:11Z</time>
      </trkpt>
      <trkpt lat="42.09602" lon="9.1383">
        <ele>2018</ele>
        <time>2018-06-16T08:17:29Z</time>
      </trkpt>
      <trkpt lat="42.09604" lon="9.13831">
        <ele>2018</ele>
        <time>2018-06-16T08:17:53Z</time>
      </trkpt>
      <trkpt lat="42.09607" lon="9.1383">
        <ele>2017</ele>
        <time>2018-06-16T08:18:14Z</time>
      </trkpt>
      <trkpt lat="42.09607" lon="9.13832">
        <ele>2017</ele>
        <time>2018-06-16T08:18:36Z</time>
      </trkpt>
      <trkpt lat="42.0961" lon="9.13835">
        <ele>2009</ele>
        <time>2018-06-16T08:18:53Z</time>
      </trkpt>
      <trkpt lat="42.09613" lon="9.13835">
        <ele>2008</ele>
        <time>2018-06-16T08:19:13Z</time>
      </trkpt>
      <trkpt lat="42.09619" lon="9.13837">
        <ele>2007</ele>
        <time>2018-06-16T08:19:29Z</time>
      </trkpt>
      <trkpt lat="42.09625" lon="9.13837">
        <ele>2006</ele>
        <time>2018-06-16T08:19:48Z</time>
      </trkpt>
      <trkpt lat="42.09628" lon="9.13839">
        <ele>2006</ele>
        <time>2018-06-16T08:20:03Z</time>
      </trkpt>
      <trkpt lat="42.09634" lon="9.13844">
        <ele>2005</ele>
        <time>2018-06-16T08:20:20Z</time>
      </trkpt>
      <trkpt lat="42.0964" lon="9.1385">
        <ele>2005</ele>
        <time>2018-06-16T08:20:36Z</time>
      </trkpt>
      <trkpt lat="42.09643" lon="9.13856">
        <ele>2004</ele>
        <time>2018-06-16T08:20:44Z</time>
      </trkpt>
      <trkpt lat="42.0965" lon="9.13866">
        <ele>2002</ele>
        <time>2018-06-16T08:21:02Z</time>
      </trkpt>
      <trkpt lat="42.09648" lon="9.13866">
        <ele>2002</ele>
        <time>2018-06-16T08:21:31Z</time>
      </trkpt>
      <trkpt lat="42.0965" lon="9.13874">
        <ele>2000</ele>
        <time>2018-06-16T08:21:49Z</time>
      </trkpt>
      <trkpt lat="42.09655" lon="9.13878">
        <ele>1999</ele>
        <time>2018-06-16T08:22:03Z</time>
      </trkpt>
      <trkpt lat="42.09658" lon="9.13887">
        <ele>1997</ele>
        <time>2018-06-16T08:22:17Z</time>
      </trkpt>
      <trkpt lat="42.09664" lon="9.13903">
        <ele>1992</ele>
        <time>2018-06-16T08:22:33Z</time>
      </trkpt>
      <trkpt lat="42.09669" lon="9.1391">
        <ele>1985</ele>
        <time>2018-06-16T08:22:44Z</time>
      </trkpt>
      <trkpt lat="42.09676" lon="9.13925">
        <ele>1977</ele>
        <time>2018-06-16T08:23:02Z</time>
      </trkpt>
      <trkpt lat="42.09677" lon="9.1393">
        <ele>1974</ele>
        <time>2018-06-16T08:23:19Z</time>
      </trkpt>
      <trkpt lat="42.09677" lon="9.1393">
        <ele>1974</ele>
        <time>2018-06-16T08:23:59Z</time>
      </trkpt>
      <trkpt lat="42.09681" lon="9.13931">
        <ele>1973</ele>
        <time>2018-06-16T08:24:23Z</time>
      </trkpt>
      <trkpt lat="42.09686" lon="9.13933">
        <ele>1971</ele>
        <time>2018-06-16T08:24:37Z</time>
      </trkpt>
      <trkpt lat="42.09689" lon="9.13925">
        <ele>1972</ele>
        <time>2018-06-16T08:24:50Z</time>
      </trkpt>
      <trkpt lat="42.09692" lon="9.13931">
        <ele>1970</ele>
        <time>2018-06-16T08:25:06Z</time>
      </trkpt>
      <trkpt lat="42.09696" lon="9.13936">
        <ele>1968</ele>
        <time>2018-06-16T08:25:21Z</time>
      </trkpt>
      <trkpt lat="42.097" lon="9.13936">
        <ele>1967</ele>
        <time>2018-06-16T08:25:36Z</time>
      </trkpt>
      <trkpt lat="42.09703" lon="9.13938">
        <ele>1967</ele>
        <time>2018-06-16T08:25:49Z</time>
      </trkpt>
      <trkpt lat="42.09707" lon="9.13934">
        <ele>1966</ele>
        <time>2018-06-16T08:26:03Z</time>
      </trkpt>
      <trkpt lat="42.0971" lon="9.13934">
        <ele>1966</ele>
        <time>2018-06-16T08:26:17Z</time>
      </trkpt>
      <trkpt lat="42.09715" lon="9.13937">
        <ele>1965</ele>
        <time>2018-06-16T08:26:30Z</time>
      </trkpt>
      <trkpt lat="42.0972" lon="9.13939">
        <ele>1964</ele>
        <time>2018-06-16T08:26:43Z</time>
      </trkpt>
      <trkpt lat="42.09722" lon="9.13933">
        <ele>1965</ele>
        <time>2018-06-16T08:26:58Z</time>
      </trkpt>
      <trkpt lat="42.09727" lon="9.13939">
        <ele>1964</ele>
        <time>2018-06-16T08:27:11Z</time>
      </trkpt>
      <trkpt lat="42.09729" lon="9.13944">
        <ele>1964</ele>
        <time>2018-06-16T08:27:26Z</time>
      </trkpt>
      <trkpt lat="42.0973" lon="9.1394">
        <ele>1964</ele>
        <time>2018-06-16T08:27:47Z</time>
      </trkpt>
      <trkpt lat="42.09737" lon="9.13944">
        <ele>1963</ele>
        <time>2018-06-16T08:27:59Z</time>
      </trkpt>
      <trkpt lat="42.09744" lon="9.13955">
        <ele>1963</ele>
        <time>2018-06-16T08:28:14Z</time>
      </trkpt>
      <trkpt lat="42.09751" lon="9.13958">
        <ele>1952</ele>
        <time>2018-06-16T08:28:27Z</time>
      </trkpt>
      <trkpt lat="42.0976" lon="9.13965">
        <ele>1952</ele>
        <time>2018-06-16T08:28:42Z</time>
      </trkpt>
      <trkpt lat="42.09768" lon="9.13969">
        <ele>1952</ele>
        <time>2018-06-16T08:28:55Z</time>
      </trkpt>
      <trkpt lat="42.09773" lon="9.1397">
        <ele>1951</ele>
        <time>2018-06-16T08:29:10Z</time>
      </trkpt>
      <trkpt lat="42.09781" lon="9.13972">
        <ele>1950</ele>
        <time>2018-06-16T08:29:29Z</time>
      </trkpt>
      <trkpt lat="42.09785" lon="9.13978">
        <ele>1950</ele>
        <time>2018-06-16T08:29:45Z</time>
      </trkpt>
      <trkpt lat="42.09789" lon="9.13986">
        <ele>1949</ele>
        <time>2018-06-16T08:30:01Z</time>
      </trkpt>
      <trkpt lat="42.09791" lon="9.13985">
        <ele>1949</ele>
        <time>2018-06-16T08:30:29Z</time>
      </trkpt>
      <trkpt lat="42.09792" lon="9.13987">
        <ele>1949</ele>
        <time>2018-06-16T08:30:48Z</time>
      </trkpt>
      <trkpt lat="42.09796" lon="9.1399">
        <ele>1949</ele>
        <time>2018-06-16T08:31:03Z</time>
      </trkpt>
      <trkpt lat="42.09799" lon="9.13999">
        <ele>1948</ele>
        <time>2018-06-16T08:31:17Z</time>
      </trkpt>
      <trkpt lat="42.09804" lon="9.14007">
        <ele>1952</ele>
        <time>2018-06-16T08:31:32Z</time>
      </trkpt>
      <trkpt lat="42.09813" lon="9.14018">
        <ele>1951</ele>
        <time>2018-06-16T08:31:48Z</time>
      </trkpt>
      <trkpt lat="42.09814" lon="9.1402">
        <ele>1951</ele>
        <time>2018-06-16T08:31:50Z</time>
      </trkpt>
      <trkpt lat="42.09821" lon="9.14036">
        <ele>1952</ele>
        <time>2018-06-16T08:32:08Z</time>
      </trkpt>
      <trkpt lat="42.09831" lon="9.14051">
        <ele>1955</ele>
        <time>2018-06-16T08:32:27Z</time>
      </trkpt>
      <trkpt lat="42.09836" lon="9.14062">
        <ele>1951</ele>
        <time>2018-06-16T08:32:41Z</time>
      </trkpt>
      <trkpt lat="42.09845" lon="9.14077">
        <ele>1955</ele>
        <time>2018-06-16T08:32:57Z</time>
      </trkpt>
      <trkpt lat="42.09849" lon="9.1409">
        <ele>1953</ele>
        <time>2018-06-16T08:33:13Z</time>
      </trkpt>
      <trkpt lat="42.09848" lon="9.14101">
        <ele>1951</ele>
        <time>2018-06-16T08:33:29Z</time>
      </trkpt>
      <trkpt lat="42.09843" lon="9.1412">
        <ele>1947</ele>
        <time>2018-06-16T08:33:47Z</time>
      </trkpt>
      <trkpt lat="42.0984" lon="9.14128">
        <ele>1946</ele>
        <time>2018-06-16T08:34:02Z</time>
      </trkpt>
      <trkpt lat="42.09843" lon="9.1414">
        <ele>1944</ele>
        <time>2018-06-16T08:34:15Z</time>
      </trkpt>
      <trkpt lat="42.09844" lon="9.14143">
        <ele>1944</ele>
        <time>2018-06-16T08:34:35Z</time>
      </trkpt>
      <trkpt lat="42.09849" lon="9.14145">
        <ele>1944</ele>
        <time>2018-06-16T08:34:52Z</time>
      </trkpt>
      <trkpt lat="42.09847" lon="9.14152">
        <ele>1943</ele>
        <time>2018-06-16T08:35:09Z</time>
      </trkpt>
      <trkpt lat="42.09847" lon="9.14153">
        <ele>1943</ele>
        <time>2018-06-16T08:35:33Z</time>
      </trkpt>
      <trkpt lat="42.09848" lon="9.14153">
        <ele>1943</ele>
        <time>2018-06-16T08:36:00Z</time>
      </trkpt>
      <trkpt lat="42.09849" lon="9.14153">
        <ele>1943</ele>
        <time>2018-06-16T08:36:31Z</time>
      </trkpt>
      <trkpt lat="42.09848" lon="9.14154">
        <ele>1943</ele>
        <time>2018-06-16T08:37:51Z</time>
      </trkpt>
      <trkpt lat="42.09847" lon="9.14154">
        <ele>1943</ele>
        <time>2018-06-16T08:38:17Z</time>
      </trkpt>
      <trkpt lat="42.09845" lon="9.14155">
        <ele>1943</ele>
        <time>2018-06-16T08:38:47Z</time>
      </trkpt>
      <trkpt lat="42.09847" lon="9.14155">
        <ele>1943</ele>
        <time>2018-06-16T08:39:19Z</time>
      </trkpt>
      <trkpt lat="42.09848" lon="9.14156">
        <ele>1943</ele>
        <time>2018-06-16T08:39:50Z</time>
      </trkpt>
      <trkpt lat="42.09848" lon="9.14153">
        <ele>1943</ele>
        <time>2018-06-16T08:41:15Z</time>
      </trkpt>
      <trkpt lat="42.09849" lon="9.14153">
        <ele>1943</ele>
        <time>2018-06-16T08:43:09Z</time>
      </trkpt>
      <trkpt lat="42.09848" lon="9.14153">
        <ele>1943</ele>
        <time>2018-06-16T08:44:41Z</time>
      </trkpt>
      <trkpt lat="42.09849" lon="9.14154">
        <ele>1943</ele>
        <time>2018-06-16T08:45:08Z</time>
      </trkpt>
      <trkpt lat="42.0985" lon="9.14153">
        <ele>1943</ele>
        <time>2018-06-16T08:45:45Z</time>
      </trkpt>
      <trkpt lat="42.0985" lon="9.14152">
        <ele>1943</ele>
        <time>2018-06-16T08:46:20Z</time>
      </trkpt>
      <trkpt lat="42.0985" lon="9.14154">
        <ele>1943</ele>
        <time>2018-06-16T08:46:55Z</time>
      </trkpt>
      <trkpt lat="42.09849" lon="9.14153">
        <ele>1943</ele>
        <time>2018-06-16T08:47:31Z</time>
      </trkpt>
      <trkpt lat="42.09848" lon="9.14153">
        <ele>1943</ele>
        <time>2018-06-16T08:48:52Z</time>
      </trkpt>
      <trkpt lat="42.09848" lon="9.14152">
        <ele>1943</ele>
        <time>2018-06-16T08:49:09Z</time>
      </trkpt>
      <trkpt lat="42.09848" lon="9.14154">
        <ele>1943</ele>
        <time>2018-06-16T08:49:28Z</time>
      </trkpt>
      <trkpt lat="42.09849" lon="9.14155">
        <ele>1943</ele>
        <time>2018-06-16T08:49:48Z</time>
      </trkpt>
      <trkpt lat="42.09849" lon="9.14155">
        <ele>1943</ele>
        <time>2018-06-16T08:50:04Z</time>
      </trkpt>
      <trkpt lat="42.09851" lon="9.14155">
        <ele>1943</ele>
        <time>2018-06-16T08:50:19Z</time>
      </trkpt>
      <trkpt lat="42.09852" lon="9.14158">
        <ele>1943</ele>
        <time>2018-06-16T08:50:37Z</time>
      </trkpt>
      <trkpt lat="42.09856" lon="9.14161">
        <ele>1942</ele>
        <time>2018-06-16T08:50:52Z</time>
      </trkpt>
      <trkpt lat="42.09861" lon="9.14159">
        <ele>1942</ele>
        <time>2018-06-16T08:51:06Z</time>
      </trkpt>
      <trkpt lat="42.09864" lon="9.14164">
        <ele>1941</ele>
        <time>2018-06-16T08:51:19Z</time>
      </trkpt>
      <trkpt lat="42.09864" lon="9.14175">
        <ele>1930</ele>
        <time>2018-06-16T08:51:33Z</time>
      </trkpt>
      <trkpt lat="42.09857" lon="9.14185">
        <ele>1931</ele>
        <time>2018-06-16T08:51:48Z</time>
      </trkpt>
      <trkpt lat="42.09859" lon="9.14195">
        <ele>1929</ele>
        <time>2018-06-16T08:52:04Z</time>
      </trkpt>
      <trkpt lat="42.09859" lon="9.14205">
        <ele>1927</ele>
        <time>2018-06-16T08:52:17Z</time>
      </trkpt>
      <trkpt lat="42.09858" lon="9.14215">
        <ele>1926</ele>
        <time>2018-06-16T08:52:30Z</time>
      </trkpt>
      <trkpt lat="42.09865" lon="9.14229">
        <ele>1924</ele>
        <time>2018-06-16T08:52:45Z</time>
      </trkpt>
      <trkpt lat="42.09867" lon="9.14248">
        <ele>1923</ele>
        <time>2018-06-16T08:52:59Z</time>
      </trkpt>
      <trkpt lat="42.09873" lon="9.14277">
        <ele>1913</ele>
        <time>2018-06-16T08:53:19Z</time>
      </trkpt>
      <trkpt lat="42.09875" lon="9.14285">
        <ele>1913</ele>
        <time>2018-06-16T08:53:25Z</time>
      </trkpt>
      <trkpt lat="42.09873" lon="9.143">
        <ele>1912</ele>
        <time>2018-06-16T08:53:40Z</time>
      </trkpt>
      <trkpt lat="42.09873" lon="9.1431">
        <ele>1912</ele>
        <time>2018-06-16T08:53:53Z</time>
      </trkpt>
      <trkpt lat="42.09874" lon="9.14315">
        <ele>1912</ele>
        <time>2018-06-16T08:53:57Z</time>
      </trkpt>
      <trkpt lat="42.09876" lon="9.14317">
        <ele>1911</ele>
        <time>2018-06-16T08:54:00Z</time>
      </trkpt>
      <trkpt lat="42.09876" lon="9.14332">
        <ele>1911</ele>
        <time>2018-06-16T08:54:16Z</time>
      </trkpt>
      <trkpt lat="42.09879" lon="9.14346">
        <ele>1909</ele>
        <time>2018-06-16T08:54:31Z</time>
      </trkpt>
      <trkpt lat="42.0988" lon="9.14351">
        <ele>1909</ele>
        <time>2018-06-16T08:54:51Z</time>
      </trkpt>
      <trkpt lat="42.09877" lon="9.14358">
        <ele>1909</ele>
        <time>2018-06-16T08:55:08Z</time>
      </trkpt>
      <trkpt lat="42.09873" lon="9.14355">
        <ele>1909</ele>
        <time>2018-06-16T08:55:22Z</time>
      </trkpt>
      <trkpt lat="42.09874" lon="9.14356">
        <ele>1909</ele>
        <time>2018-06-16T08:55:51Z</time>
      </trkpt>
      <trkpt lat="42.09874" lon="9.14357">
        <ele>1909</ele>
        <time>2018-06-16T08:56:14Z</time>
      </trkpt>
      <trkpt lat="42.09875" lon="9.14358">
        <ele>1909</ele>
        <time>2018-06-16T08:56:33Z</time>
      </trkpt>
      <trkpt lat="42.0988" lon="9.14361">
        <ele>1909</ele>
        <time>2018-06-16T08:56:48Z</time>
      </trkpt>
      <trkpt lat="42.09887" lon="9.14371">
        <ele>1910</ele>
        <time>2018-06-16T08:57:04Z</time>
      </trkpt>
      <trkpt lat="42.09889" lon="9.14376">
        <ele>1910</ele>
        <time>2018-06-16T08:57:09Z</time>
      </trkpt>
      <trkpt lat="42.09902" lon="9.14399">
        <ele>1912</ele>
        <time>2018-06-16T08:57:30Z</time>
      </trkpt>
      <trkpt lat="42.0991" lon="9.14408">
        <ele>1915</ele>
        <time>2018-06-16T08:57:45Z</time>
      </trkpt>
      <trkpt lat="42.09913" lon="9.14422">
        <ele>1915</ele>
        <time>2018-06-16T08:57:58Z</time>
      </trkpt>
      <trkpt lat="42.09914" lon="9.14423">
        <ele>1915</ele>
        <time>2018-06-16T08:57:59Z</time>
      </trkpt>
      <trkpt lat="42.09921" lon="9.14437">
        <ele>1906</ele>
        <time>2018-06-16T08:58:15Z</time>
      </trkpt>
      <trkpt lat="42.09928" lon="9.14453">
        <ele>1903</ele>
        <time>2018-06-16T08:58:31Z</time>
      </trkpt>
      <trkpt lat="42.09936" lon="9.14465">
        <ele>1902</ele>
        <time>2018-06-16T08:58:48Z</time>
      </trkpt>
      <trkpt lat="42.09941" lon="9.14479">
        <ele>1902</ele>
        <time>2018-06-16T08:59:03Z</time>
      </trkpt>
      <trkpt lat="42.09944" lon="9.14484">
        <ele>1902</ele>
        <time>2018-06-16T08:59:08Z</time>
      </trkpt>
      <trkpt lat="42.09945" lon="9.14491">
        <ele>1902</ele>
        <time>2018-06-16T08:59:14Z</time>
      </trkpt>
      <trkpt lat="42.09949" lon="9.14506">
        <ele>1903</ele>
        <time>2018-06-16T08:59:30Z</time>
      </trkpt>
      <trkpt lat="42.09954" lon="9.1452">
        <ele>1901</ele>
        <time>2018-06-16T08:59:46Z</time>
      </trkpt>
      <trkpt lat="42.0996" lon="9.14533">
        <ele>1900</ele>
        <time>2018-06-16T09:00:02Z</time>
      </trkpt>
      <trkpt lat="42.09964" lon="9.14545">
        <ele>1899</ele>
        <time>2018-06-16T09:00:17Z</time>
      </trkpt>
      <trkpt lat="42.09966" lon="9.14563">
        <ele>1899</ele>
        <time>2018-06-16T09:00:32Z</time>
      </trkpt>
      <trkpt lat="42.09972" lon="9.1457">
        <ele>1899</ele>
        <time>2018-06-16T09:00:49Z</time>
      </trkpt>
      <trkpt lat="42.0998" lon="9.14575">
        <ele>1899</ele>
        <time>2018-06-16T09:01:04Z</time>
      </trkpt>
      <trkpt lat="42.09981" lon="9.14581">
        <ele>1899</ele>
        <time>2018-06-16T09:01:18Z</time>
      </trkpt>
      <trkpt lat="42.09982" lon="9.1459">
        <ele>1894</ele>
        <time>2018-06-16T09:01:32Z</time>
      </trkpt>
      <trkpt lat="42.09989" lon="9.14593">
        <ele>1895</ele>
        <time>2018-06-16T09:01:46Z</time>
      </trkpt>
      <trkpt lat="42.0999" lon="9.14601">
        <ele>1894</ele>
        <time>2018-06-16T09:01:59Z</time>
      </trkpt>
      <trkpt lat="42.09992" lon="9.14607">
        <ele>1893</ele>
        <time>2018-06-16T09:02:15Z</time>
      </trkpt>
      <trkpt lat="42.09997" lon="9.1461">
        <ele>1893</ele>
        <time>2018-06-16T09:02:29Z</time>
      </trkpt>
      <trkpt lat="42.10003" lon="9.14613">
        <ele>1891</ele>
        <time>2018-06-16T09:02:43Z</time>
      </trkpt>
      <trkpt lat="42.10004" lon="9.14614">
        <ele>1891</ele>
        <time>2018-06-16T09:02:44Z</time>
      </trkpt>
      <trkpt lat="42.10015" lon="9.1463">
        <ele>1889</ele>
        <time>2018-06-16T09:03:02Z</time>
      </trkpt>
      <trkpt lat="42.10015" lon="9.14631">
        <ele>1889</ele>
        <time>2018-06-16T09:03:03Z</time>
      </trkpt>
      <trkpt lat="42.10025" lon="9.14648">
        <ele>1889</ele>
        <time>2018-06-16T09:03:23Z</time>
      </trkpt>
      <trkpt lat="42.10035" lon="9.14662">
        <ele>1889</ele>
        <time>2018-06-16T09:03:41Z</time>
      </trkpt>
      <trkpt lat="42.10043" lon="9.14674">
        <ele>1891</ele>
        <time>2018-06-16T09:03:57Z</time>
      </trkpt>
      <trkpt lat="42.10044" lon="9.14673">
        <ele>1891</ele>
        <time>2018-06-16T09:04:13Z</time>
      </trkpt>
      <trkpt lat="42.10047" lon="9.14675">
        <ele>1891</ele>
        <time>2018-06-16T09:04:40Z</time>
      </trkpt>
      <trkpt lat="42.10053" lon="9.14683">
        <ele>1890</ele>
        <time>2018-06-16T09:04:57Z</time>
      </trkpt>
      <trkpt lat="42.10062" lon="9.1469">
        <ele>1890</ele>
        <time>2018-06-16T09:05:12Z</time>
      </trkpt>
      <trkpt lat="42.10065" lon="9.14697">
        <ele>1891</ele>
        <time>2018-06-16T09:05:24Z</time>
      </trkpt>
      <trkpt lat="42.10071" lon="9.14702">
        <ele>1891</ele>
        <time>2018-06-16T09:05:39Z</time>
      </trkpt>
      <trkpt lat="42.10076" lon="9.14711">
        <ele>1892</ele>
        <time>2018-06-16T09:05:55Z</time>
      </trkpt>
      <trkpt lat="42.10077" lon="9.14725">
        <ele>1893</ele>
        <time>2018-06-16T09:06:10Z</time>
      </trkpt>
      <trkpt lat="42.10079" lon="9.14735">
        <ele>1895</ele>
        <time>2018-06-16T09:06:19Z</time>
      </trkpt>
      <trkpt lat="42.10075" lon="9.14757">
        <ele>1896</ele>
        <time>2018-06-16T09:06:38Z</time>
      </trkpt>
      <trkpt lat="42.10073" lon="9.14763">
        <ele>1895</ele>
        <time>2018-06-16T09:06:43Z</time>
      </trkpt>
      <trkpt lat="42.10075" lon="9.14786">
        <ele>1893</ele>
        <time>2018-06-16T09:07:03Z</time>
      </trkpt>
      <trkpt lat="42.10084" lon="9.14798">
        <ele>1897</ele>
        <time>2018-06-16T09:07:22Z</time>
      </trkpt>
      <trkpt lat="42.10088" lon="9.14809">
        <ele>1898</ele>
        <time>2018-06-16T09:07:37Z</time>
      </trkpt>
      <trkpt lat="42.10086" lon="9.14824">
        <ele>1901</ele>
        <time>2018-06-16T09:07:54Z</time>
      </trkpt>
      <trkpt lat="42.10087" lon="9.14831">
        <ele>1903</ele>
        <time>2018-06-16T09:08:12Z</time>
      </trkpt>
      <trkpt lat="42.10092" lon="9.1484">
        <ele>1902</ele>
        <time>2018-06-16T09:08:28Z</time>
      </trkpt>
      <trkpt lat="42.10094" lon="9.14856">
        <ele>1900</ele>
        <time>2018-06-16T09:08:45Z</time>
      </trkpt>
      <trkpt lat="42.10104" lon="9.14866">
        <ele>1898</ele>
        <time>2018-06-16T09:09:03Z</time>
      </trkpt>
      <trkpt lat="42.10115" lon="9.14877">
        <ele>1897</ele>
        <time>2018-06-16T09:09:21Z</time>
      </trkpt>
      <trkpt lat="42.10127" lon="9.14885">
        <ele>1897</ele>
        <time>2018-06-16T09:09:40Z</time>
      </trkpt>
      <trkpt lat="42.10128" lon="9.14888">
        <ele>1897</ele>
        <time>2018-06-16T09:09:56Z</time>
      </trkpt>
      <trkpt lat="42.10131" lon="9.14888">
        <ele>1897</ele>
        <time>2018-06-16T09:10:17Z</time>
      </trkpt>
      <trkpt lat="42.10136" lon="9.14884">
        <ele>1897</ele>
        <time>2018-06-16T09:10:31Z</time>
      </trkpt>
      <trkpt lat="42.10138" lon="9.14883">
        <ele>1897</ele>
        <time>2018-06-16T09:10:49Z</time>
      </trkpt>
      <trkpt lat="42.10146" lon="9.14889">
        <ele>1896</ele>
        <time>2018-06-16T09:11:06Z</time>
      </trkpt>
      <trkpt lat="42.10151" lon="9.149">
        <ele>1896</ele>
        <time>2018-06-16T09:11:20Z</time>
      </trkpt>
      <trkpt lat="42.10159" lon="9.14913">
        <ele>1896</ele>
        <time>2018-06-16T09:11:38Z</time>
      </trkpt>
      <trkpt lat="42.10168" lon="9.14921">
        <ele>1894</ele>
        <time>2018-06-16T09:11:55Z</time>
      </trkpt>
      <trkpt lat="42.10174" lon="9.14929">
        <ele>1890</ele>
        <time>2018-06-16T09:12:09Z</time>
      </trkpt>
      <trkpt lat="42.10183" lon="9.14936">
        <ele>1888</ele>
        <time>2018-06-16T09:12:26Z</time>
      </trkpt>
      <trkpt lat="42.10191" lon="9.14943">
        <ele>1886</ele>
        <time>2018-06-16T09:12:39Z</time>
      </trkpt>
      <trkpt lat="42.10192" lon="9.14943">
        <ele>1886</ele>
        <time>2018-06-16T09:12:40Z</time>
      </trkpt>
      <trkpt lat="42.10205" lon="9.14948">
        <ele>1885</ele>
        <time>2018-06-16T09:12:58Z</time>
      </trkpt>
      <trkpt lat="42.10212" lon="9.1495">
        <ele>1884</ele>
        <time>2018-06-16T09:13:13Z</time>
      </trkpt>
      <trkpt lat="42.10219" lon="9.14954">
        <ele>1884</ele>
        <time>2018-06-16T09:13:28Z</time>
      </trkpt>
      <trkpt lat="42.10226" lon="9.14966">
        <ele>1884</ele>
        <time>2018-06-16T09:13:43Z</time>
      </trkpt>
      <trkpt lat="42.10226" lon="9.14974">
        <ele>1885</ele>
        <time>2018-06-16T09:13:59Z</time>
      </trkpt>
      <trkpt lat="42.10236" lon="9.14979">
        <ele>1886</ele>
        <time>2018-06-16T09:14:39Z</time>
      </trkpt>
      <trkpt lat="42.10244" lon="9.14984">
        <ele>1886</ele>
        <time>2018-06-16T09:14:52Z</time>
      </trkpt>
      <trkpt lat="42.10251" lon="9.14989">
        <ele>1883</ele>
        <time>2018-06-16T09:15:06Z</time>
      </trkpt>
      <trkpt lat="42.10258" lon="9.14995">
        <ele>1883</ele>
        <time>2018-06-16T09:15:20Z</time>
      </trkpt>
      <trkpt lat="42.10266" lon="9.15006">
        <ele>1889</ele>
        <time>2018-06-16T09:15:37Z</time>
      </trkpt>
      <trkpt lat="42.10272" lon="9.15013">
        <ele>1888</ele>
        <time>2018-06-16T09:15:51Z</time>
      </trkpt>
      <trkpt lat="42.10276" lon="9.15023">
        <ele>1888</ele>
        <time>2018-06-16T09:16:06Z</time>
      </trkpt>
      <trkpt lat="42.10279" lon="9.15028">
        <ele>1888</ele>
        <time>2018-06-16T09:16:23Z</time>
      </trkpt>
      <trkpt lat="42.10283" lon="9.1503">
        <ele>1888</ele>
        <time>2018-06-16T09:16:44Z</time>
      </trkpt>
      <trkpt lat="42.10288" lon="9.15035">
        <ele>1889</ele>
        <time>2018-06-16T09:16:59Z</time>
      </trkpt>
      <trkpt lat="42.10293" lon="9.15042">
        <ele>1889</ele>
        <time>2018-06-16T09:17:16Z</time>
      </trkpt>
      <trkpt lat="42.10293" lon="9.15042">
        <ele>1889</ele>
        <time>2018-06-16T09:18:13Z</time>
      </trkpt>
      <trkpt lat="42.10296" lon="9.15056">
        <ele>1890</ele>
        <time>2018-06-16T09:18:30Z</time>
      </trkpt>
      <trkpt lat="42.10298" lon="9.15065">
        <ele>1891</ele>
        <time>2018-06-16T09:18:47Z</time>
      </trkpt>
      <trkpt lat="42.10302" lon="9.15065">
        <ele>1892</ele>
        <time>2018-06-16T09:19:02Z</time>
      </trkpt>
      <trkpt lat="42.10304" lon="9.15067">
        <ele>1892</ele>
        <time>2018-06-16T09:19:14Z</time>
      </trkpt>
      <trkpt lat="42.10305" lon="9.15064">
        <ele>1892</ele>
        <time>2018-06-16T09:19:35Z</time>
      </trkpt>
      <trkpt lat="42.1031" lon="9.15072">
        <ele>1894</ele>
        <time>2018-06-16T09:19:50Z</time>
      </trkpt>
      <trkpt lat="42.10316" lon="9.15077">
        <ele>1896</ele>
        <time>2018-06-16T09:20:03Z</time>
      </trkpt>
      <trkpt lat="42.10323" lon="9.15082">
        <ele>1899</ele>
        <time>2018-06-16T09:20:20Z</time>
      </trkpt>
      <trkpt lat="42.10323" lon="9.15081">
        <ele>1898</ele>
        <time>2018-06-16T09:20:40Z</time>
      </trkpt>
      <trkpt lat="42.10323" lon="9.1508">
        <ele>1898</ele>
        <time>2018-06-16T09:21:17Z</time>
      </trkpt>
      <trkpt lat="42.10324" lon="9.15081">
        <ele>1899</ele>
        <time>2018-06-16T09:21:59Z</time>
      </trkpt>
      <trkpt lat="42.10324" lon="9.15082">
        <ele>1899</ele>
        <time>2018-06-16T09:22:18Z</time>
      </trkpt>
      <trkpt lat="42.10327" lon="9.1509">
        <ele>1899</ele>
        <time>2018-06-16T09:22:31Z</time>
      </trkpt>
      <trkpt lat="42.10332" lon="9.15096">
        <ele>1898</ele>
        <time>2018-06-16T09:22:53Z</time>
      </trkpt>
      <trkpt lat="42.10338" lon="9.15103">
        <ele>1901</ele>
        <time>2018-06-16T09:23:07Z</time>
      </trkpt>
      <trkpt lat="42.10345" lon="9.15113">
        <ele>1900</ele>
        <time>2018-06-16T09:23:19Z</time>
      </trkpt>
      <trkpt lat="42.10356" lon="9.15123">
        <ele>1900</ele>
        <time>2018-06-16T09:23:35Z</time>
      </trkpt>
      <trkpt lat="42.10357" lon="9.15124">
        <ele>1900</ele>
        <time>2018-06-16T09:23:36Z</time>
      </trkpt>
      <trkpt lat="42.10364" lon="9.15132">
        <ele>1900</ele>
        <time>2018-06-16T09:23:46Z</time>
      </trkpt>
      <trkpt lat="42.10375" lon="9.15138">
        <ele>1900</ele>
        <time>2018-06-16T09:24:05Z</time>
      </trkpt>
      <trkpt lat="42.10384" lon="9.15148">
        <ele>1901</ele>
        <time>2018-06-16T09:24:21Z</time>
      </trkpt>
      <trkpt lat="42.10396" lon="9.15158">
        <ele>1902</ele>
        <time>2018-06-16T09:24:40Z</time>
      </trkpt>
      <trkpt lat="42.10406" lon="9.15162">
        <ele>1903</ele>
        <time>2018-06-16T09:24:55Z</time>
      </trkpt>
      <trkpt lat="42.10407" lon="9.15167">
        <ele>1901</ele>
        <time>2018-06-16T09:25:12Z</time>
      </trkpt>
      <trkpt lat="42.10412" lon="9.15171">
        <ele>1903</ele>
        <time>2018-06-16T09:25:30Z</time>
      </trkpt>
      <trkpt lat="42.10415" lon="9.15175">
        <ele>1902</ele>
        <time>2018-06-16T09:25:45Z</time>
      </trkpt>
      <trkpt lat="42.10415" lon="9.15176">
        <ele>1902</ele>
        <time>2018-06-16T09:26:11Z</time>
      </trkpt>
      <trkpt lat="42.1042" lon="9.15172">
        <ele>1900</ele>
        <time>2018-06-16T09:26:30Z</time>
      </trkpt>
      <trkpt lat="42.10428" lon="9.15163">
        <ele>1896</ele>
        <time>2018-06-16T09:26:47Z</time>
      </trkpt>
      <trkpt lat="42.10435" lon="9.15158">
        <ele>1891</ele>
        <time>2018-06-16T09:27:01Z</time>
      </trkpt>
      <trkpt lat="42.10443" lon="9.15151">
        <ele>1887</ele>
        <time>2018-06-16T09:27:14Z</time>
      </trkpt>
      <trkpt lat="42.10448" lon="9.15144">
        <ele>1885</ele>
        <time>2018-06-16T09:27:25Z</time>
      </trkpt>
      <trkpt lat="42.10454" lon="9.15138">
        <ele>1883</ele>
        <time>2018-06-16T09:27:38Z</time>
      </trkpt>
      <trkpt lat="42.10462" lon="9.15134">
        <ele>1881</ele>
        <time>2018-06-16T09:27:53Z</time>
      </trkpt>
      <trkpt lat="42.10465" lon="9.15125">
        <ele>1880</ele>
        <time>2018-06-16T09:28:08Z</time>
      </trkpt>
      <trkpt lat="42.10469" lon="9.15119">
        <ele>1879</ele>
        <time>2018-06-16T09:28:20Z</time>
      </trkpt>
      <trkpt lat="42.10474" lon="9.15111">
        <ele>1877</ele>
        <time>2018-06-16T09:28:35Z</time>
      </trkpt>
      <trkpt lat="42.10479" lon="9.15107">
        <ele>1876</ele>
        <time>2018-06-16T09:28:49Z</time>
      </trkpt>
      <trkpt lat="42.10482" lon="9.15102">
        <ele>1874</ele>
        <time>2018-06-16T09:29:01Z</time>
      </trkpt>
      <trkpt lat="42.10495" lon="9.15103">
        <ele>1872</ele>
        <time>2018-06-16T09:29:17Z</time>
      </trkpt>
      <trkpt lat="42.10505" lon="9.151">
        <ele>1853</ele>
        <time>2018-06-16T09:29:33Z</time>
      </trkpt>
      <trkpt lat="42.1051" lon="9.15103">
        <ele>1851</ele>
        <time>2018-06-16T09:29:47Z</time>
      </trkpt>
      <trkpt lat="42.10514" lon="9.15104">
        <ele>1850</ele>
        <time>2018-06-16T09:30:03Z</time>
      </trkpt>
      <trkpt lat="42.10514" lon="9.15102">
        <ele>1850</ele>
        <time>2018-06-16T09:30:18Z</time>
      </trkpt>
      <trkpt lat="42.10513" lon="9.15097">
        <ele>1852</ele>
        <time>2018-06-16T09:30:31Z</time>
      </trkpt>
      <trkpt lat="42.10515" lon="9.15094">
        <ele>1852</ele>
        <time>2018-06-16T09:30:43Z</time>
      </trkpt>
      <trkpt lat="42.10518" lon="9.15092">
        <ele>1851</ele>
        <time>2018-06-16T09:31:00Z</time>
      </trkpt>
      <trkpt lat="42.10525" lon="9.15094">
        <ele>1847</ele>
        <time>2018-06-16T09:31:14Z</time>
      </trkpt>
      <trkpt lat="42.1053" lon="9.15094">
        <ele>1846</ele>
        <time>2018-06-16T09:31:32Z</time>
      </trkpt>
      <trkpt lat="42.10535" lon="9.15094">
        <ele>1844</ele>
        <time>2018-06-16T09:31:46Z</time>
      </trkpt>
      <trkpt lat="42.10537" lon="9.15091">
        <ele>1843</ele>
        <time>2018-06-16T09:32:02Z</time>
      </trkpt>
      <trkpt lat="42.1054" lon="9.15089">
        <ele>1842</ele>
        <time>2018-06-16T09:32:21Z</time>
      </trkpt>
      <trkpt lat="42.10543" lon="9.15094">
        <ele>1841</ele>
        <time>2018-06-16T09:32:34Z</time>
      </trkpt>
      <trkpt lat="42.10545" lon="9.15094">
        <ele>1840</ele>
        <time>2018-06-16T09:32:47Z</time>
      </trkpt>
      <trkpt lat="42.10545" lon="9.15089">
        <ele>1840</ele>
        <time>2018-06-16T09:33:03Z</time>
      </trkpt>
      <trkpt lat="42.10551" lon="9.15091">
        <ele>1838</ele>
        <time>2018-06-16T09:33:20Z</time>
      </trkpt>
      <trkpt lat="42.10551" lon="9.15086">
        <ele>1838</ele>
        <time>2018-06-16T09:33:36Z</time>
      </trkpt>
      <trkpt lat="42.10556" lon="9.15088">
        <ele>1836</ele>
        <time>2018-06-16T09:33:51Z</time>
      </trkpt>
      <trkpt lat="42.10562" lon="9.15088">
        <ele>1834</ele>
        <time>2018-06-16T09:34:08Z</time>
      </trkpt>
      <trkpt lat="42.10567" lon="9.15087">
        <ele>1832</ele>
        <time>2018-06-16T09:34:22Z</time>
      </trkpt>
      <trkpt lat="42.10571" lon="9.15085">
        <ele>1830</ele>
        <time>2018-06-16T09:34:36Z</time>
      </trkpt>
      <trkpt lat="42.10576" lon="9.15085">
        <ele>1827</ele>
        <time>2018-06-16T09:34:51Z</time>
      </trkpt>
      <trkpt lat="42.10581" lon="9.15086">
        <ele>1825</ele>
        <time>2018-06-16T09:35:04Z</time>
      </trkpt>
      <trkpt lat="42.10582" lon="9.15091">
        <ele>1827</ele>
        <time>2018-06-16T09:35:18Z</time>
      </trkpt>
      <trkpt lat="42.10582" lon="9.15092">
        <ele>1828</ele>
        <time>2018-06-16T09:35:39Z</time>
      </trkpt>
      <trkpt lat="42.10582" lon="9.15089">
        <ele>1826</ele>
        <time>2018-06-16T09:36:01Z</time>
      </trkpt>
      <trkpt lat="42.10584" lon="9.15084">
        <ele>1821</ele>
        <time>2018-06-16T09:36:19Z</time>
      </trkpt>
      <trkpt lat="42.10585" lon="9.1508">
        <ele>1819</ele>
        <time>2018-06-16T09:36:32Z</time>
      </trkpt>
      <trkpt lat="42.1059" lon="9.15077">
        <ele>1813</ele>
        <time>2018-06-16T09:36:46Z</time>
      </trkpt>
      <trkpt lat="42.10592" lon="9.15073">
        <ele>1810</ele>
        <time>2018-06-16T09:37:01Z</time>
      </trkpt>
      <trkpt lat="42.10598" lon="9.15073">
        <ele>1807</ele>
        <time>2018-06-16T09:37:17Z</time>
      </trkpt>
      <trkpt lat="42.10606" lon="9.15078">
        <ele>1803</ele>
        <time>2018-06-16T09:37:35Z</time>
      </trkpt>
      <trkpt lat="42.10607" lon="9.15077">
        <ele>1803</ele>
        <time>2018-06-16T09:37:50Z</time>
      </trkpt>
      <trkpt lat="42.10608" lon="9.15079">
        <ele>1803</ele>
        <time>2018-06-16T09:38:05Z</time>
      </trkpt>
      <trkpt lat="42.10608" lon="9.1508">
        <ele>1803</ele>
        <time>2018-06-16T09:38:21Z</time>
      </trkpt>
      <trkpt lat="42.10608" lon="9.15079">
        <ele>1803</ele>
        <time>2018-06-16T09:38:39Z</time>
      </trkpt>
      <trkpt lat="42.1061" lon="9.15081">
        <ele>1802</ele>
        <time>2018-06-16T09:38:56Z</time>
      </trkpt>
      <trkpt lat="42.10614" lon="9.15089">
        <ele>1801</ele>
        <time>2018-06-16T09:39:13Z</time>
      </trkpt>
      <trkpt lat="42.10615" lon="9.1509">
        <ele>1800</ele>
        <time>2018-06-16T09:39:29Z</time>
      </trkpt>
      <trkpt lat="42.10616" lon="9.15087">
        <ele>1800</ele>
        <time>2018-06-16T09:39:45Z</time>
      </trkpt>
      <trkpt lat="42.10619" lon="9.15088">
        <ele>1799</ele>
        <time>2018-06-16T09:40:01Z</time>
      </trkpt>
      <trkpt lat="42.10619" lon="9.15087">
        <ele>1799</ele>
        <time>2018-06-16T09:40:18Z</time>
      </trkpt>
      <trkpt lat="42.1062" lon="9.1508">
        <ele>1797</ele>
        <time>2018-06-16T09:40:35Z</time>
      </trkpt>
      <trkpt lat="42.10623" lon="9.1508">
        <ele>1796</ele>
        <time>2018-06-16T09:40:51Z</time>
      </trkpt>
      <trkpt lat="42.10623" lon="9.15079">
        <ele>1796</ele>
        <time>2018-06-16T09:41:06Z</time>
      </trkpt>
      <trkpt lat="42.10623" lon="9.15079">
        <ele>1796</ele>
        <time>2018-06-16T09:41:22Z</time>
      </trkpt>
      <trkpt lat="42.10626" lon="9.15079">
        <ele>1795</ele>
        <time>2018-06-16T09:41:36Z</time>
      </trkpt>
      <trkpt lat="42.1063" lon="9.15076">
        <ele>1794</ele>
        <time>2018-06-16T09:41:50Z</time>
      </trkpt>
      <trkpt lat="42.10636" lon="9.15076">
        <ele>1792</ele>
        <time>2018-06-16T09:42:08Z</time>
      </trkpt>
      <trkpt lat="42.10637" lon="9.15076">
        <ele>1791</ele>
        <time>2018-06-16T09:42:24Z</time>
      </trkpt>
      <trkpt lat="42.10637" lon="9.15074">
        <ele>1791</ele>
        <time>2018-06-16T09:42:41Z</time>
      </trkpt>
      <trkpt lat="42.10638" lon="9.15076">
        <ele>1791</ele>
        <time>2018-06-16T09:42:55Z</time>
      </trkpt>
      <trkpt lat="42.10637" lon="9.15076">
        <ele>1791</ele>
        <time>2018-06-16T09:43:26Z</time>
      </trkpt>
      <trkpt lat="42.10639" lon="9.15074">
        <ele>1791</ele>
        <time>2018-06-16T09:43:41Z</time>
      </trkpt>
      <trkpt lat="42.10642" lon="9.15074">
        <ele>1790</ele>
        <time>2018-06-16T09:43:56Z</time>
      </trkpt>
      <trkpt lat="42.10642" lon="9.15073">
        <ele>1790</ele>
        <time>2018-06-16T09:44:20Z</time>
      </trkpt>
      <trkpt lat="42.10646" lon="9.15073">
        <ele>1789</ele>
        <time>2018-06-16T09:44:40Z</time>
      </trkpt>
      <trkpt lat="42.1065" lon="9.15072">
        <ele>1788</ele>
        <time>2018-06-16T09:44:56Z</time>
      </trkpt>
      <trkpt lat="42.10655" lon="9.15072">
        <ele>1787</ele>
        <time>2018-06-16T09:45:15Z</time>
      </trkpt>
      <trkpt lat="42.10658" lon="9.15072">
        <ele>1786</ele>
        <time>2018-06-16T09:45:31Z</time>
      </trkpt>
      <trkpt lat="42.10657" lon="9.15071">
        <ele>1786</ele>
        <time>2018-06-16T09:45:51Z</time>
      </trkpt>
      <trkpt lat="42.10657" lon="9.1507">
        <ele>1786</ele>
        <time>2018-06-16T09:46:14Z</time>
      </trkpt>
      <trkpt lat="42.1066" lon="9.15066">
        <ele>1786</ele>
        <time>2018-06-16T09:46:31Z</time>
      </trkpt>
      <trkpt lat="42.10665" lon="9.15066">
        <ele>1786</ele>
        <time>2018-06-16T09:46:49Z</time>
      </trkpt>
      <trkpt lat="42.10676" lon="9.15065">
        <ele>1772</ele>
        <time>2018-06-16T09:47:06Z</time>
      </trkpt>
      <trkpt lat="42.10683" lon="9.1506">
        <ele>1770</ele>
        <time>2018-06-16T09:47:20Z</time>
      </trkpt>
      <trkpt lat="42.1069" lon="9.15054">
        <ele>1768</ele>
        <time>2018-06-16T09:47:34Z</time>
      </trkpt>
      <trkpt lat="42.10699" lon="9.15052">
        <ele>1767</ele>
        <time>2018-06-16T09:47:48Z</time>
      </trkpt>
      <trkpt lat="42.10706" lon="9.15052">
        <ele>1766</ele>
        <time>2018-06-16T09:48:03Z</time>
      </trkpt>
      <trkpt lat="42.10712" lon="9.15054">
        <ele>1766</ele>
        <time>2018-06-16T09:48:19Z</time>
      </trkpt>
      <trkpt lat="42.10717" lon="9.15058">
        <ele>1765</ele>
        <time>2018-06-16T09:48:30Z</time>
      </trkpt>
      <trkpt lat="42.1072" lon="9.15061">
        <ele>1766</ele>
        <time>2018-06-16T09:48:48Z</time>
      </trkpt>
      <trkpt lat="42.10722" lon="9.15064">
        <ele>1766</ele>
        <time>2018-06-16T09:49:10Z</time>
      </trkpt>
      <trkpt lat="42.10728" lon="9.15068">
        <ele>1765</ele>
        <time>2018-06-16T09:49:26Z</time>
      </trkpt>
      <trkpt lat="42.10729" lon="9.15066">
        <ele>1765</ele>
        <time>2018-06-16T09:49:40Z</time>
      </trkpt>
      <trkpt lat="42.1073" lon="9.15065">
        <ele>1765</ele>
        <time>2018-06-16T09:49:53Z</time>
      </trkpt>
      <trkpt lat="42.10731" lon="9.15065">
        <ele>1765</ele>
        <time>2018-06-16T09:50:41Z</time>
      </trkpt>
      <trkpt lat="42.10741" lon="9.15064">
        <ele>1765</ele>
        <time>2018-06-16T09:50:56Z</time>
      </trkpt>
      <trkpt lat="42.1075" lon="9.15065">
        <ele>1762</ele>
        <time>2018-06-16T09:51:10Z</time>
      </trkpt>
      <trkpt lat="42.10762" lon="9.15067">
        <ele>1762</ele>
        <time>2018-06-16T09:51:25Z</time>
      </trkpt>
      <trkpt lat="42.10775" lon="9.15068">
        <ele>1761</ele>
        <time>2018-06-16T09:51:41Z</time>
      </trkpt>
      <trkpt lat="42.10785" lon="9.15066">
        <ele>1761</ele>
        <time>2018-06-16T09:51:55Z</time>
      </trkpt>
      <trkpt lat="42.10795" lon="9.15066">
        <ele>1761</ele>
        <time>2018-06-16T09:52:11Z</time>
      </trkpt>
      <trkpt lat="42.10799" lon="9.15065">
        <ele>1761</ele>
        <time>2018-06-16T09:52:26Z</time>
      </trkpt>
      <trkpt lat="42.10799" lon="9.15063">
        <ele>1761</ele>
        <time>2018-06-16T09:52:43Z</time>
      </trkpt>
      <trkpt lat="42.10803" lon="9.15062">
        <ele>1761</ele>
        <time>2018-06-16T09:52:54Z</time>
      </trkpt>
      <trkpt lat="42.10814" lon="9.15061">
        <ele>1762</ele>
        <time>2018-06-16T09:53:10Z</time>
      </trkpt>
      <trkpt lat="42.10823" lon="9.15053">
        <ele>1761</ele>
        <time>2018-06-16T09:53:28Z</time>
      </trkpt>
      <trkpt lat="42.10832" lon="9.15057">
        <ele>1762</ele>
        <time>2018-06-16T09:53:44Z</time>
      </trkpt>
      <trkpt lat="42.1083" lon="9.15051">
        <ele>1761</ele>
        <time>2018-06-16T09:54:06Z</time>
      </trkpt>
      <trkpt lat="42.10834" lon="9.15042">
        <ele>1759</ele>
        <time>2018-06-16T09:54:24Z</time>
      </trkpt>
      <trkpt lat="42.10842" lon="9.15041">
        <ele>1759</ele>
        <time>2018-06-16T09:54:42Z</time>
      </trkpt>
      <trkpt lat="42.10846" lon="9.15041">
        <ele>1759</ele>
        <time>2018-06-16T09:54:59Z</time>
      </trkpt>
      <trkpt lat="42.10849" lon="9.15038">
        <ele>1758</ele>
        <time>2018-06-16T09:55:13Z</time>
      </trkpt>
      <trkpt lat="42.10851" lon="9.15037">
        <ele>1758</ele>
        <time>2018-06-16T09:55:33Z</time>
      </trkpt>
      <trkpt lat="42.10854" lon="9.15037">
        <ele>1758</ele>
        <time>2018-06-16T09:55:46Z</time>
      </trkpt>
      <trkpt lat="42.10858" lon="9.15038">
        <ele>1758</ele>
        <time>2018-06-16T09:56:00Z</time>
      </trkpt>
      <trkpt lat="42.10857" lon="9.15046">
        <ele>1759</ele>
        <time>2018-06-16T09:56:17Z</time>
      </trkpt>
      <trkpt lat="42.10862" lon="9.15047">
        <ele>1758</ele>
        <time>2018-06-16T09:56:31Z</time>
      </trkpt>
      <trkpt lat="42.10866" lon="9.15048">
        <ele>1758</ele>
        <time>2018-06-16T09:56:54Z</time>
      </trkpt>
      <trkpt lat="42.10874" lon="9.15051">
        <ele>1758</ele>
        <time>2018-06-16T09:57:09Z</time>
      </trkpt>
      <trkpt lat="42.10882" lon="9.15058">
        <ele>1758</ele>
        <time>2018-06-16T09:57:23Z</time>
      </trkpt>
      <trkpt lat="42.10885" lon="9.15057">
        <ele>1758</ele>
        <time>2018-06-16T09:57:38Z</time>
      </trkpt>
      <trkpt lat="42.1089" lon="9.15058">
        <ele>1758</ele>
        <time>2018-06-16T09:57:50Z</time>
      </trkpt>
      <trkpt lat="42.10893" lon="9.15058">
        <ele>1758</ele>
        <time>2018-06-16T09:58:03Z</time>
      </trkpt>
      <trkpt lat="42.10902" lon="9.15061">
        <ele>1758</ele>
        <time>2018-06-16T09:58:18Z</time>
      </trkpt>
      <trkpt lat="42.1091" lon="9.15065">
        <ele>1759</ele>
        <time>2018-06-16T09:58:33Z</time>
      </trkpt>
      <trkpt lat="42.10915" lon="9.15067">
        <ele>1759</ele>
        <time>2018-06-16T09:58:46Z</time>
      </trkpt>
      <trkpt lat="42.10916" lon="9.15068">
        <ele>1759</ele>
        <time>2018-06-16T09:58:59Z</time>
      </trkpt>
      <trkpt lat="42.10917" lon="9.15072">
        <ele>1754</ele>
        <time>2018-06-16T09:59:15Z</time>
      </trkpt>
      <trkpt lat="42.10918" lon="9.15073">
        <ele>1755</ele>
        <time>2018-06-16T09:59:30Z</time>
      </trkpt>
      <trkpt lat="42.10923" lon="9.15075">
        <ele>1755</ele>
        <time>2018-06-16T09:59:46Z</time>
      </trkpt>
      <trkpt lat="42.10927" lon="9.15079">
        <ele>1754</ele>
        <time>2018-06-16T09:59:59Z</time>
      </trkpt>
      <trkpt lat="42.10935" lon="9.15081">
        <ele>1751</ele>
        <time>2018-06-16T10:00:15Z</time>
      </trkpt>
      <trkpt lat="42.10942" lon="9.1508">
        <ele>1748</ele>
        <time>2018-06-16T10:00:28Z</time>
      </trkpt>
      <trkpt lat="42.10948" lon="9.1508">
        <ele>1747</ele>
        <time>2018-06-16T10:00:41Z</time>
      </trkpt>
      <trkpt lat="42.10952" lon="9.1508">
        <ele>1746</ele>
        <time>2018-06-16T10:00:55Z</time>
      </trkpt>
      <trkpt lat="42.1096" lon="9.15081">
        <ele>1744</ele>
        <time>2018-06-16T10:01:11Z</time>
      </trkpt>
      <trkpt lat="42.1097" lon="9.15084">
        <ele>1744</ele>
        <time>2018-06-16T10:01:25Z</time>
      </trkpt>
      <trkpt lat="42.10978" lon="9.15088">
        <ele>1743</ele>
        <time>2018-06-16T10:01:40Z</time>
      </trkpt>
      <trkpt lat="42.10988" lon="9.15089">
        <ele>1743</ele>
        <time>2018-06-16T10:01:55Z</time>
      </trkpt>
      <trkpt lat="42.10994" lon="9.15097">
        <ele>1743</ele>
        <time>2018-06-16T10:02:11Z</time>
      </trkpt>
      <trkpt lat="42.10995" lon="9.15096">
        <ele>1743</ele>
        <time>2018-06-16T10:02:28Z</time>
      </trkpt>
      <trkpt lat="42.10998" lon="9.15097">
        <ele>1743</ele>
        <time>2018-06-16T10:02:42Z</time>
      </trkpt>
      <trkpt lat="42.11003" lon="9.15106">
        <ele>1737</ele>
        <time>2018-06-16T10:02:58Z</time>
      </trkpt>
      <trkpt lat="42.1101" lon="9.1511">
        <ele>1736</ele>
        <time>2018-06-16T10:03:12Z</time>
      </trkpt>
      <trkpt lat="42.11013" lon="9.15113">
        <ele>1735</ele>
        <time>2018-06-16T10:03:16Z</time>
      </trkpt>
      <trkpt lat="42.11021" lon="9.15121">
        <ele>1734</ele>
        <time>2018-06-16T10:03:30Z</time>
      </trkpt>
      <trkpt lat="42.11023" lon="9.15121">
        <ele>1734</ele>
        <time>2018-06-16T10:03:47Z</time>
      </trkpt>
      <trkpt lat="42.11029" lon="9.15121">
        <ele>1733</ele>
        <time>2018-06-16T10:04:03Z</time>
      </trkpt>
      <trkpt lat="42.11036" lon="9.15123">
        <ele>1733</ele>
        <time>2018-06-16T10:04:17Z</time>
      </trkpt>
      <trkpt lat="42.11037" lon="9.15123">
        <ele>1733</ele>
        <time>2018-06-16T10:04:34Z</time>
      </trkpt>
      <trkpt lat="42.11039" lon="9.15126">
        <ele>1732</ele>
        <time>2018-06-16T10:04:51Z</time>
      </trkpt>
      <trkpt lat="42.11043" lon="9.15128">
        <ele>1732</ele>
        <time>2018-06-16T10:05:06Z</time>
      </trkpt>
      <trkpt lat="42.11044" lon="9.15131">
        <ele>1732</ele>
        <time>2018-06-16T10:05:22Z</time>
      </trkpt>
      <trkpt lat="42.11044" lon="9.1514">
        <ele>1732</ele>
        <time>2018-06-16T10:05:39Z</time>
      </trkpt>
      <trkpt lat="42.11047" lon="9.15144">
        <ele>1732</ele>
        <time>2018-06-16T10:05:52Z</time>
      </trkpt>
      <trkpt lat="42.11052" lon="9.15152">
        <ele>1732</ele>
        <time>2018-06-16T10:06:06Z</time>
      </trkpt>
      <trkpt lat="42.11058" lon="9.15162">
        <ele>1731</ele>
        <time>2018-06-16T10:06:23Z</time>
      </trkpt>
      <trkpt lat="42.11057" lon="9.1517">
        <ele>1725</ele>
        <time>2018-06-16T10:06:35Z</time>
      </trkpt>
      <trkpt lat="42.1106" lon="9.15181">
        <ele>1724</ele>
        <time>2018-06-16T10:06:52Z</time>
      </trkpt>
      <trkpt lat="42.1106" lon="9.15182">
        <ele>1724</ele>
        <time>2018-06-16T10:07:18Z</time>
      </trkpt>
      <trkpt lat="42.1106" lon="9.15182">
        <ele>1724</ele>
        <time>2018-06-16T10:07:34Z</time>
      </trkpt>
      <trkpt lat="42.11064" lon="9.15189">
        <ele>1723</ele>
        <time>2018-06-16T10:07:54Z</time>
      </trkpt>
      <trkpt lat="42.11063" lon="9.15201">
        <ele>1721</ele>
        <time>2018-06-16T10:08:08Z</time>
      </trkpt>
      <trkpt lat="42.11065" lon="9.15214">
        <ele>1719</ele>
        <time>2018-06-16T10:08:24Z</time>
      </trkpt>
      <trkpt lat="42.11065" lon="9.15224">
        <ele>1718</ele>
        <time>2018-06-16T10:08:39Z</time>
      </trkpt>
      <trkpt lat="42.11066" lon="9.15238">
        <ele>1716</ele>
        <time>2018-06-16T10:08:56Z</time>
      </trkpt>
      <trkpt lat="42.11072" lon="9.15246">
        <ele>1715</ele>
        <time>2018-06-16T10:09:09Z</time>
      </trkpt>
      <trkpt lat="42.11072" lon="9.15255">
        <ele>1705</ele>
        <time>2018-06-16T10:09:22Z</time>
      </trkpt>
      <trkpt lat="42.11072" lon="9.15267">
        <ele>1702</ele>
        <time>2018-06-16T10:09:35Z</time>
      </trkpt>
      <trkpt lat="42.11071" lon="9.15278">
        <ele>1698</ele>
        <time>2018-06-16T10:09:49Z</time>
      </trkpt>
      <trkpt lat="42.11074" lon="9.15286">
        <ele>1696</ele>
        <time>2018-06-16T10:10:02Z</time>
      </trkpt>
      <trkpt lat="42.11076" lon="9.15294">
        <ele>1695</ele>
        <time>2018-06-16T10:10:15Z</time>
      </trkpt>
      <trkpt lat="42.11075" lon="9.15304">
        <ele>1693</ele>
        <time>2018-06-16T10:10:30Z</time>
      </trkpt>
      <trkpt lat="42.11079" lon="9.15311">
        <ele>1691</ele>
        <time>2018-06-16T10:10:44Z</time>
      </trkpt>
      <trkpt lat="42.11079" lon="9.15319">
        <ele>1690</ele>
        <time>2018-06-16T10:10:57Z</time>
      </trkpt>
      <trkpt lat="42.11081" lon="9.15327">
        <ele>1688</ele>
        <time>2018-06-16T10:11:11Z</time>
      </trkpt>
      <trkpt lat="42.11086" lon="9.15332">
        <ele>1687</ele>
        <time>2018-06-16T10:11:24Z</time>
      </trkpt>
      <trkpt lat="42.11087" lon="9.1534">
        <ele>1684</ele>
        <time>2018-06-16T10:11:37Z</time>
      </trkpt>
      <trkpt lat="42.1109" lon="9.15344">
        <ele>1682</ele>
        <time>2018-06-16T10:11:53Z</time>
      </trkpt>
      <trkpt lat="42.11092" lon="9.1535">
        <ele>1680</ele>
        <time>2018-06-16T10:12:09Z</time>
      </trkpt>
      <trkpt lat="42.1109" lon="9.15357">
        <ele>1679</ele>
        <time>2018-06-16T10:12:21Z</time>
      </trkpt>
      <trkpt lat="42.11091" lon="9.15368">
        <ele>1677</ele>
        <time>2018-06-16T10:12:36Z</time>
      </trkpt>
      <trkpt lat="42.11092" lon="9.15382">
        <ele>1676</ele>
        <time>2018-06-16T10:12:50Z</time>
      </trkpt>
      <trkpt lat="42.11092" lon="9.15385">
        <ele>1676</ele>
        <time>2018-06-16T10:12:53Z</time>
      </trkpt>
      <trkpt lat="42.11094" lon="9.154">
        <ele>1675</ele>
        <time>2018-06-16T10:13:07Z</time>
      </trkpt>
      <trkpt lat="42.11096" lon="9.15405">
        <ele>1675</ele>
        <time>2018-06-16T10:13:12Z</time>
      </trkpt>
      <trkpt lat="42.11108" lon="9.15422">
        <ele>1672</ele>
        <time>2018-06-16T10:13:31Z</time>
      </trkpt>
      <trkpt lat="42.11113" lon="9.15433">
        <ele>1671</ele>
        <time>2018-06-16T10:13:50Z</time>
      </trkpt>
      <trkpt lat="42.11116" lon="9.1544">
        <ele>1671</ele>
        <time>2018-06-16T10:14:08Z</time>
      </trkpt>
      <trkpt lat="42.11117" lon="9.15441">
        <ele>1671</ele>
        <time>2018-06-16T10:14:20Z</time>
      </trkpt>
      <trkpt lat="42.11137" lon="9.15464">
        <ele>1671</ele>
        <time>2018-06-16T10:14:45Z</time>
      </trkpt>
      <trkpt lat="42.11153" lon="9.15479">
        <ele>1672</ele>
        <time>2018-06-16T10:15:05Z</time>
      </trkpt>
      <trkpt lat="42.11171" lon="9.15495">
        <ele>1672</ele>
        <time>2018-06-16T10:15:24Z</time>
      </trkpt>
      <trkpt lat="42.11189" lon="9.15512">
        <ele>1670</ele>
        <time>2018-06-16T10:15:44Z</time>
      </trkpt>
      <trkpt lat="42.11207" lon="9.15525">
        <ele>1668</ele>
        <time>2018-06-16T10:16:02Z</time>
      </trkpt>
      <trkpt lat="42.11225" lon="9.15539">
        <ele>1667</ele>
        <time>2018-06-16T10:16:22Z</time>
      </trkpt>
      <trkpt lat="42.11229" lon="9.15543">
        <ele>1667</ele>
        <time>2018-06-16T10:16:26Z</time>
      </trkpt>
      <trkpt lat="42.11233" lon="9.1555">
        <ele>1668</ele>
        <time>2018-06-16T10:16:33Z</time>
      </trkpt>
      <trkpt lat="42.11249" lon="9.15564">
        <ele>1669</ele>
        <time>2018-06-16T10:16:52Z</time>
      </trkpt>
      <trkpt lat="42.1127" lon="9.15577">
        <ele>1662</ele>
        <time>2018-06-16T10:17:13Z</time>
      </trkpt>
      <trkpt lat="42.11285" lon="9.15591">
        <ele>1662</ele>
        <time>2018-06-16T10:17:30Z</time>
      </trkpt>
      <trkpt lat="42.11302" lon="9.15605">
        <ele>1659</ele>
        <time>2018-06-16T10:17:50Z</time>
      </trkpt>
      <trkpt lat="42.1132" lon="9.15616">
        <ele>1658</ele>
        <time>2018-06-16T10:18:10Z</time>
      </trkpt>
      <trkpt lat="42.11327" lon="9.15623">
        <ele>1658</ele>
        <time>2018-06-16T10:18:20Z</time>
      </trkpt>
      <trkpt lat="42.11338" lon="9.15639">
        <ele>1648</ele>
        <time>2018-06-16T10:18:38Z</time>
      </trkpt>
      <trkpt lat="42.11344" lon="9.15647">
        <ele>1648</ele>
        <time>2018-06-16T10:18:55Z</time>
      </trkpt>
      <trkpt lat="42.11341" lon="9.15656">
        <ele>1650</ele>
        <time>2018-06-16T10:19:12Z</time>
      </trkpt>
      <trkpt lat="42.11336" lon="9.1567">
        <ele>1652</ele>
        <time>2018-06-16T10:19:27Z</time>
      </trkpt>
      <trkpt lat="42.11329" lon="9.15681">
        <ele>1650</ele>
        <time>2018-06-16T10:19:44Z</time>
      </trkpt>
      <trkpt lat="42.11326" lon="9.15683">
        <ele>1649</ele>
        <time>2018-06-16T10:19:59Z</time>
      </trkpt>
      <trkpt lat="42.11326" lon="9.15682">
        <ele>1650</ele>
        <time>2018-06-16T10:20:20Z</time>
      </trkpt>
      <trkpt lat="42.11322" lon="9.15677">
        <ele>1650</ele>
        <time>2018-06-16T10:20:52Z</time>
      </trkpt>
      <trkpt lat="42.11324" lon="9.15682">
        <ele>1650</ele>
        <time>2018-06-16T10:21:14Z</time>
      </trkpt>
      <trkpt lat="42.11325" lon="9.15683">
        <ele>1649</ele>
        <time>2018-06-16T10:21:36Z</time>
      </trkpt>
      <trkpt lat="42.11325" lon="9.15682">
        <ele>1650</ele>
        <time>2018-06-16T10:22:07Z</time>
      </trkpt>
      <trkpt lat="42.11327" lon="9.15681">
        <ele>1650</ele>
        <time>2018-06-16T10:22:32Z</time>
      </trkpt>
      <trkpt lat="42.11328" lon="9.1568">
        <ele>1650</ele>
        <time>2018-06-16T10:23:03Z</time>
      </trkpt>
      <trkpt lat="42.11329" lon="9.1568">
        <ele>1650</ele>
        <time>2018-06-16T10:23:39Z</time>
      </trkpt>
      <trkpt lat="42.11327" lon="9.1568">
        <ele>1650</ele>
        <time>2018-06-16T10:24:19Z</time>
      </trkpt>
      <trkpt lat="42.11327" lon="9.15678">
        <ele>1650</ele>
        <time>2018-06-16T10:25:29Z</time>
      </trkpt>
      <trkpt lat="42.11329" lon="9.15677">
        <ele>1651</ele>
        <time>2018-06-16T10:26:00Z</time>
      </trkpt>
      <trkpt lat="42.11329" lon="9.15677">
        <ele>1651</ele>
        <time>2018-06-16T10:26:33Z</time>
      </trkpt>
      <trkpt lat="42.11329" lon="9.15677">
        <ele>1651</ele>
        <time>2018-06-16T10:27:02Z</time>
      </trkpt>
      <trkpt lat="42.11331" lon="9.15676">
        <ele>1651</ele>
        <time>2018-06-16T10:27:36Z</time>
      </trkpt>
      <trkpt lat="42.11329" lon="9.15677">
        <ele>1651</ele>
        <time>2018-06-16T10:28:07Z</time>
      </trkpt>
      <trkpt lat="42.11328" lon="9.15677">
        <ele>1651</ele>
        <time>2018-06-16T10:28:37Z</time>
      </trkpt>
      <trkpt lat="42.11329" lon="9.15676">
        <ele>1651</ele>
        <time>2018-06-16T10:29:08Z</time>
      </trkpt>
      <trkpt lat="42.11329" lon="9.15676">
        <ele>1651</ele>
        <time>2018-06-16T10:29:41Z</time>
      </trkpt>
      <trkpt lat="42.11329" lon="9.15677">
        <ele>1651</ele>
        <time>2018-06-16T10:30:13Z</time>
      </trkpt>
      <trkpt lat="42.1133" lon="9.15678">
        <ele>1651</ele>
        <time>2018-06-16T10:30:42Z</time>
      </trkpt>
      <trkpt lat="42.11331" lon="9.15677">
        <ele>1651</ele>
        <time>2018-06-16T10:31:12Z</time>
      </trkpt>
      <trkpt lat="42.11331" lon="9.15676">
        <ele>1651</ele>
        <time>2018-06-16T10:31:45Z</time>
      </trkpt>
      <trkpt lat="42.1133" lon="9.15677">
        <ele>1651</ele>
        <time>2018-06-16T10:32:18Z</time>
      </trkpt>
      <trkpt lat="42.1133" lon="9.15677">
        <ele>1651</ele>
        <time>2018-06-16T10:32:50Z</time>
      </trkpt>
      <trkpt lat="42.1133" lon="9.15678">
        <ele>1651</ele>
        <time>2018-06-16T10:33:20Z</time>
      </trkpt>
      <trkpt lat="42.11329" lon="9.15678">
        <ele>1651</ele>
        <time>2018-06-16T10:33:58Z</time>
      </trkpt>
      <trkpt lat="42.11329" lon="9.15679">
        <ele>1651</ele>
        <time>2018-06-16T10:34:33Z</time>
      </trkpt>
      <trkpt lat="42.11329" lon="9.15679">
        <ele>1651</ele>
        <time>2018-06-16T10:35:04Z</time>
      </trkpt>
      <trkpt lat="42.11331" lon="9.15677">
        <ele>1651</ele>
        <time>2018-06-16T10:35:37Z</time>
      </trkpt>
      <trkpt lat="42.11331" lon="9.15676">
        <ele>1651</ele>
        <time>2018-06-16T10:36:05Z</time>
      </trkpt>
      <trkpt lat="42.11332" lon="9.15675">
        <ele>1651</ele>
        <time>2018-06-16T10:36:34Z</time>
      </trkpt>
      <trkpt lat="42.11331" lon="9.15674">
        <ele>1652</ele>
        <time>2018-06-16T10:37:02Z</time>
      </trkpt>
      <trkpt lat="42.11331" lon="9.15673">
        <ele>1652</ele>
        <time>2018-06-16T10:37:32Z</time>
      </trkpt>
      <trkpt lat="42.11331" lon="9.15673">
        <ele>1652</ele>
        <time>2018-06-16T10:38:06Z</time>
      </trkpt>
      <trkpt lat="42.11331" lon="9.15674">
        <ele>1652</ele>
        <time>2018-06-16T10:38:38Z</time>
      </trkpt>
      <trkpt lat="42.11331" lon="9.15675">
        <ele>1651</ele>
        <time>2018-06-16T10:39:11Z</time>
      </trkpt>
      <trkpt lat="42.11328" lon="9.15677">
        <ele>1651</ele>
        <time>2018-06-16T10:39:43Z</time>
      </trkpt>
      <trkpt lat="42.11327" lon="9.15677">
        <ele>1651</ele>
        <time>2018-06-16T10:40:16Z</time>
      </trkpt>
      <trkpt lat="42.11325" lon="9.15677">
        <ele>1650</ele>
        <time>2018-06-16T10:40:50Z</time>
      </trkpt>
      <trkpt lat="42.11327" lon="9.15677">
        <ele>1651</ele>
        <time>2018-06-16T10:41:22Z</time>
      </trkpt>
      <trkpt lat="42.11328" lon="9.15677">
        <ele>1651</ele>
        <time>2018-06-16T10:42:00Z</time>
      </trkpt>
      <trkpt lat="42.11326" lon="9.15676">
        <ele>1651</ele>
        <time>2018-06-16T10:42:25Z</time>
      </trkpt>
      <trkpt lat="42.11326" lon="9.15676">
        <ele>1651</ele>
        <time>2018-06-16T10:42:57Z</time>
      </trkpt>
      <trkpt lat="42.11328" lon="9.15676">
        <ele>1651</ele>
        <time>2018-06-16T10:43:27Z</time>
      </trkpt>
      <trkpt lat="42.11328" lon="9.15678">
        <ele>1651</ele>
        <time>2018-06-16T10:43:59Z</time>
      </trkpt>
      <trkpt lat="42.11327" lon="9.1568">
        <ele>1650</ele>
        <time>2018-06-16T10:44:33Z</time>
      </trkpt>
      <trkpt lat="42.11327" lon="9.1568">
        <ele>1650</ele>
        <time>2018-06-16T10:45:02Z</time>
      </trkpt>
      <trkpt lat="42.11327" lon="9.15677">
        <ele>1651</ele>
        <time>2018-06-16T10:45:30Z</time>
      </trkpt>
      <trkpt lat="42.11328" lon="9.1568">
        <ele>1650</ele>
        <time>2018-06-16T10:45:57Z</time>
      </trkpt>
      <trkpt lat="42.11326" lon="9.15677">
        <ele>1651</ele>
        <time>2018-06-16T10:46:27Z</time>
      </trkpt>
      <trkpt lat="42.11326" lon="9.1568">
        <ele>1650</ele>
        <time>2018-06-16T10:46:55Z</time>
      </trkpt>
      <trkpt lat="42.11327" lon="9.15681">
        <ele>1650</ele>
        <time>2018-06-16T10:47:17Z</time>
      </trkpt>
      <trkpt lat="42.11325" lon="9.1568">
        <ele>1650</ele>
        <time>2018-06-16T10:47:38Z</time>
      </trkpt>
      <trkpt lat="42.11325" lon="9.15681">
        <ele>1650</ele>
        <time>2018-06-16T10:47:58Z</time>
      </trkpt>
      <trkpt lat="42.11325" lon="9.15681">
        <ele>1650</ele>
        <time>2018-06-16T10:48:32Z</time>
      </trkpt>
      <trkpt lat="42.11328" lon="9.1568">
        <ele>1650</ele>
        <time>2018-06-16T10:49:01Z</time>
      </trkpt>
      <trkpt lat="42.11333" lon="9.15681">
        <ele>1650</ele>
        <time>2018-06-16T10:49:14Z</time>
      </trkpt>
      <trkpt lat="42.11336" lon="9.1568">
        <ele>1649</ele>
        <time>2018-06-16T10:49:20Z</time>
      </trkpt>
      <trkpt lat="42.11341" lon="9.15678">
        <ele>1649</ele>
        <time>2018-06-16T10:49:36Z</time>
      </trkpt>
      <trkpt lat="42.1134" lon="9.15678">
        <ele>1649</ele>
        <time>2018-06-16T10:49:47Z</time>
      </trkpt>
      <trkpt lat="42.1134" lon="9.15683">
        <ele>1648</ele>
        <time>2018-06-16T10:50:13Z</time>
      </trkpt>
      <trkpt lat="42.11347" lon="9.15685">
        <ele>1647</ele>
        <time>2018-06-16T10:50:26Z</time>
      </trkpt>
      <trkpt lat="42.11357" lon="9.15683">
        <ele>1645</ele>
        <time>2018-06-16T10:50:40Z</time>
      </trkpt>
      <trkpt lat="42.11373" lon="9.15682">
        <ele>1643</ele>
        <time>2018-06-16T10:50:59Z</time>
      </trkpt>
      <trkpt lat="42.11384" lon="9.15679">
        <ele>1642</ele>
        <time>2018-06-16T10:51:13Z</time>
      </trkpt>
      <trkpt lat="42.11399" lon="9.15671">
        <ele>1640</ele>
        <time>2018-06-16T10:51:31Z</time>
      </trkpt>
      <trkpt lat="42.11408" lon="9.15663">
        <ele>1639</ele>
        <time>2018-06-16T10:51:44Z</time>
      </trkpt>
      <trkpt lat="42.1142" lon="9.15649">
        <ele>1631</ele>
        <time>2018-06-16T10:52:01Z</time>
      </trkpt>
      <trkpt lat="42.11423" lon="9.15647">
        <ele>1630</ele>
        <time>2018-06-16T10:52:05Z</time>
      </trkpt>
      <trkpt lat="42.11437" lon="9.15644">
        <ele>1628</ele>
        <time>2018-06-16T10:52:21Z</time>
      </trkpt>
      <trkpt lat="42.11445" lon="9.15645">
        <ele>1627</ele>
        <time>2018-06-16T10:52:34Z</time>
      </trkpt>
      <trkpt lat="42.11452" lon="9.15646">
        <ele>1626</ele>
        <time>2018-06-16T10:52:47Z</time>
      </trkpt>
      <trkpt lat="42.11453" lon="9.15645">
        <ele>1626</ele>
        <time>2018-06-16T10:52:50Z</time>
      </trkpt>
      <trkpt lat="42.11455" lon="9.15636">
        <ele>1625</ele>
        <time>2018-06-16T10:52:58Z</time>
      </trkpt>
      <trkpt lat="42.11457" lon="9.15633">
        <ele>1624</ele>
        <time>2018-06-16T10:53:02Z</time>
      </trkpt>
      <trkpt lat="42.11459" lon="9.15626">
        <ele>1624</ele>
        <time>2018-06-16T10:53:08Z</time>
      </trkpt>
      <trkpt lat="42.11464" lon="9.15605">
        <ele>1622</ele>
        <time>2018-06-16T10:53:24Z</time>
      </trkpt>
      <trkpt lat="42.11468" lon="9.15596">
        <ele>1620</ele>
        <time>2018-06-16T10:53:32Z</time>
      </trkpt>
      <trkpt lat="42.11467" lon="9.1558">
        <ele>1611</ele>
        <time>2018-06-16T10:53:43Z</time>
      </trkpt>
      <trkpt lat="42.11467" lon="9.15577">
        <ele>1611</ele>
        <time>2018-06-16T10:53:45Z</time>
      </trkpt>
      <trkpt lat="42.11464" lon="9.15557">
        <ele>1610</ele>
        <time>2018-06-16T10:53:59Z</time>
      </trkpt>
      <trkpt lat="42.11464" lon="9.15554">
        <ele>1610</ele>
        <time>2018-06-16T10:54:01Z</time>
      </trkpt>
      <trkpt lat="42.11459" lon="9.15536">
        <ele>1609</ele>
        <time>2018-06-16T10:54:16Z</time>
      </trkpt>
      <trkpt lat="42.11455" lon="9.15524">
        <ele>1608</ele>
        <time>2018-06-16T10:54:32Z</time>
      </trkpt>
      <trkpt lat="42.11452" lon="9.15507">
        <ele>1608</ele>
        <time>2018-06-16T10:54:47Z</time>
      </trkpt>
      <trkpt lat="42.11452" lon="9.15498">
        <ele>1595</ele>
        <time>2018-06-16T10:54:59Z</time>
      </trkpt>
      <trkpt lat="42.11448" lon="9.1549">
        <ele>1596</ele>
        <time>2018-06-16T10:55:23Z</time>
      </trkpt>
      <trkpt lat="42.11443" lon="9.15478">
        <ele>1595</ele>
        <time>2018-06-16T10:55:39Z</time>
      </trkpt>
      <trkpt lat="42.11439" lon="9.15469">
        <ele>1594</ele>
        <time>2018-06-16T10:55:53Z</time>
      </trkpt>
      <trkpt lat="42.11438" lon="9.1546">
        <ele>1593</ele>
        <time>2018-06-16T10:56:07Z</time>
      </trkpt>
      <trkpt lat="42.11437" lon="9.1546">
        <ele>1593</ele>
        <time>2018-06-16T10:56:24Z</time>
      </trkpt>
      <trkpt lat="42.11436" lon="9.15461">
        <ele>1593</ele>
        <time>2018-06-16T10:57:01Z</time>
      </trkpt>
      <trkpt lat="42.11438" lon="9.15461">
        <ele>1593</ele>
        <time>2018-06-16T10:57:57Z</time>
      </trkpt>
      <trkpt lat="42.11439" lon="9.15461">
        <ele>1593</ele>
        <time>2018-06-16T10:58:34Z</time>
      </trkpt>
      <trkpt lat="42.11439" lon="9.15462">
        <ele>1593</ele>
        <time>2018-06-16T10:58:57Z</time>
      </trkpt>
      <trkpt lat="42.11439" lon="9.15462">
        <ele>1593</ele>
        <time>2018-06-16T10:59:23Z</time>
      </trkpt>
      <trkpt lat="42.11439" lon="9.15462">
        <ele>1593</ele>
        <time>2018-06-16T11:00:05Z</time>
      </trkpt>
      <trkpt lat="42.11439" lon="9.15462">
        <ele>1593</ele>
        <time>2018-06-16T11:00:54Z</time>
      </trkpt>
      <trkpt lat="42.11439" lon="9.15461">
        <ele>1593</ele>
        <time>2018-06-16T11:02:01Z</time>
      </trkpt>
      <trkpt lat="42.11439" lon="9.15462">
        <ele>1593</ele>
        <time>2018-06-16T11:02:29Z</time>
      </trkpt>
      <trkpt lat="42.1144" lon="9.15462">
        <ele>1593</ele>
        <time>2018-06-16T11:03:15Z</time>
      </trkpt>
      <trkpt lat="42.11439" lon="9.15462">
        <ele>1593</ele>
        <time>2018-06-16T11:03:46Z</time>
      </trkpt>
      <trkpt lat="42.11439" lon="9.15462">
        <ele>1593</ele>
        <time>2018-06-16T11:04:40Z</time>
      </trkpt>
      <trkpt lat="42.11438" lon="9.15462">
        <ele>1593</ele>
        <time>2018-06-16T11:05:05Z</time>
      </trkpt>
      <trkpt lat="42.11439" lon="9.15462">
        <ele>1593</ele>
        <time>2018-06-16T11:05:43Z</time>
      </trkpt>
      <trkpt lat="42.11439" lon="9.15462">
        <ele>1593</ele>
        <time>2018-06-16T11:06:15Z</time>
      </trkpt>
      <trkpt lat="42.11438" lon="9.15463">
        <ele>1593</ele>
        <time>2018-06-16T11:06:46Z</time>
      </trkpt>
      <trkpt lat="42.11433" lon="9.1546">
        <ele>1593</ele>
        <time>2018-06-16T11:07:01Z</time>
      </trkpt>
      <trkpt lat="42.11431" lon="9.15455">
        <ele>1593</ele>
        <time>2018-06-16T11:07:06Z</time>
      </trkpt>
      <trkpt lat="42.11419" lon="9.15437">
        <ele>1591</ele>
        <time>2018-06-16T11:07:25Z</time>
      </trkpt>
      <trkpt lat="42.11418" lon="9.15428">
        <ele>1590</ele>
        <time>2018-06-16T11:07:35Z</time>
      </trkpt>
      <trkpt lat="42.11417" lon="9.15426">
        <ele>1597</ele>
        <time>2018-06-16T11:07:37Z</time>
      </trkpt>
      <trkpt lat="42.11411" lon="9.15413">
        <ele>1591</ele>
        <time>2018-06-16T11:07:53Z</time>
      </trkpt>
      <trkpt lat="42.11407" lon="9.15404">
        <ele>1592</ele>
        <time>2018-06-16T11:08:06Z</time>
      </trkpt>
      <trkpt lat="42.11406" lon="9.15402">
        <ele>1592</ele>
        <time>2018-06-16T11:08:09Z</time>
      </trkpt>
      <trkpt lat="42.11407" lon="9.15394">
        <ele>1592</ele>
        <time>2018-06-16T11:08:22Z</time>
      </trkpt>
      <trkpt lat="42.11412" lon="9.15388">
        <ele>1591</ele>
        <time>2018-06-16T11:08:34Z</time>
      </trkpt>
      <trkpt lat="42.11413" lon="9.15378">
        <ele>1590</ele>
        <time>2018-06-16T11:08:46Z</time>
      </trkpt>
      <trkpt lat="42.11418" lon="9.15372">
        <ele>1574</ele>
        <time>2018-06-16T11:08:56Z</time>
      </trkpt>
      <trkpt lat="42.11424" lon="9.15369">
        <ele>1573</ele>
        <time>2018-06-16T11:09:09Z</time>
      </trkpt>
      <trkpt lat="42.11426" lon="9.15361">
        <ele>1572</ele>
        <time>2018-06-16T11:09:22Z</time>
      </trkpt>
      <trkpt lat="42.11424" lon="9.15353">
        <ele>1572</ele>
        <time>2018-06-16T11:09:31Z</time>
      </trkpt>
      <trkpt lat="42.11419" lon="9.15343">
        <ele>1571</ele>
        <time>2018-06-16T11:09:48Z</time>
      </trkpt>
      <trkpt lat="42.11424" lon="9.15338">
        <ele>1571</ele>
        <time>2018-06-16T11:10:03Z</time>
      </trkpt>
      <trkpt lat="42.11424" lon="9.15328">
        <ele>1566</ele>
        <time>2018-06-16T11:10:16Z</time>
      </trkpt>
      <trkpt lat="42.11428" lon="9.15329">
        <ele>1565</ele>
        <time>2018-06-16T11:10:32Z</time>
      </trkpt>
      <trkpt lat="42.11433" lon="9.15323">
        <ele>1563</ele>
        <time>2018-06-16T11:10:46Z</time>
      </trkpt>
      <trkpt lat="42.11441" lon="9.15316">
        <ele>1560</ele>
        <time>2018-06-16T11:10:59Z</time>
      </trkpt>
      <trkpt lat="42.11451" lon="9.15313">
        <ele>1558</ele>
        <time>2018-06-16T11:11:14Z</time>
      </trkpt>
      <trkpt lat="42.1146" lon="9.15305">
        <ele>1556</ele>
        <time>2018-06-16T11:11:29Z</time>
      </trkpt>
      <trkpt lat="42.11468" lon="9.15297">
        <ele>1554</ele>
        <time>2018-06-16T11:11:43Z</time>
      </trkpt>
      <trkpt lat="42.11466" lon="9.15284">
        <ele>1553</ele>
        <time>2018-06-16T11:11:57Z</time>
      </trkpt>
      <trkpt lat="42.11464" lon="9.15276">
        <ele>1553</ele>
        <time>2018-06-16T11:12:04Z</time>
      </trkpt>
      <trkpt lat="42.11459" lon="9.15256">
        <ele>1552</ele>
        <time>2018-06-16T11:12:22Z</time>
      </trkpt>
      <trkpt lat="42.1146" lon="9.15242">
        <ele>1549</ele>
        <time>2018-06-16T11:12:35Z</time>
      </trkpt>
      <trkpt lat="42.11461" lon="9.15238">
        <ele>1549</ele>
        <time>2018-06-16T11:12:38Z</time>
      </trkpt>
      <trkpt lat="42.11461" lon="9.15234">
        <ele>1549</ele>
        <time>2018-06-16T11:12:41Z</time>
      </trkpt>
      <trkpt lat="42.11465" lon="9.15218">
        <ele>1549</ele>
        <time>2018-06-16T11:12:55Z</time>
      </trkpt>
      <trkpt lat="42.1147" lon="9.15205">
        <ele>1548</ele>
        <time>2018-06-16T11:13:10Z</time>
      </trkpt>
      <trkpt lat="42.11476" lon="9.1519">
        <ele>1547</ele>
        <time>2018-06-16T11:13:22Z</time>
      </trkpt>
      <trkpt lat="42.11478" lon="9.15183">
        <ele>1546</ele>
        <time>2018-06-16T11:13:28Z</time>
      </trkpt>
      <trkpt lat="42.1148" lon="9.15181">
        <ele>1545</ele>
        <time>2018-06-16T11:13:31Z</time>
      </trkpt>
      <trkpt lat="42.11482" lon="9.15178">
        <ele>1545</ele>
        <time>2018-06-16T11:13:34Z</time>
      </trkpt>
      <trkpt lat="42.11485" lon="9.15173">
        <ele>1543</ele>
        <time>2018-06-16T11:13:40Z</time>
      </trkpt>
      <trkpt lat="42.11486" lon="9.1517">
        <ele>1543</ele>
        <time>2018-06-16T11:13:42Z</time>
      </trkpt>
      <trkpt lat="42.11496" lon="9.15154">
        <ele>1546</ele>
        <time>2018-06-16T11:13:58Z</time>
      </trkpt>
      <trkpt lat="42.11506" lon="9.1514">
        <ele>1532</ele>
        <time>2018-06-16T11:14:16Z</time>
      </trkpt>
      <trkpt lat="42.11511" lon="9.15131">
        <ele>1532</ele>
        <time>2018-06-16T11:14:25Z</time>
      </trkpt>
      <trkpt lat="42.11512" lon="9.1513">
        <ele>1532</ele>
        <time>2018-06-16T11:14:26Z</time>
      </trkpt>
      <trkpt lat="42.11522" lon="9.15119">
        <ele>1531</ele>
        <time>2018-06-16T11:14:39Z</time>
      </trkpt>
      <trkpt lat="42.11527" lon="9.15114">
        <ele>1531</ele>
        <time>2018-06-16T11:14:45Z</time>
      </trkpt>
      <trkpt lat="42.11539" lon="9.15099">
        <ele>1529</ele>
        <time>2018-06-16T11:15:02Z</time>
      </trkpt>
      <trkpt lat="42.11544" lon="9.15096">
        <ele>1528</ele>
        <time>2018-06-16T11:15:08Z</time>
      </trkpt>
      <trkpt lat="42.11552" lon="9.15086">
        <ele>1525</ele>
        <time>2018-06-16T11:15:21Z</time>
      </trkpt>
      <trkpt lat="42.11562" lon="9.15068">
        <ele>1531</ele>
        <time>2018-06-16T11:15:37Z</time>
      </trkpt>
      <trkpt lat="42.11574" lon="9.15057">
        <ele>1530</ele>
        <time>2018-06-16T11:15:53Z</time>
      </trkpt>
      <trkpt lat="42.11581" lon="9.15046">
        <ele>1532</ele>
        <time>2018-06-16T11:16:04Z</time>
      </trkpt>
      <trkpt lat="42.11589" lon="9.15034">
        <ele>1511</ele>
        <time>2018-06-16T11:16:17Z</time>
      </trkpt>
      <trkpt lat="42.11592" lon="9.15027">
        <ele>1512</ele>
        <time>2018-06-16T11:16:35Z</time>
      </trkpt>
      <trkpt lat="42.11609" lon="9.15012">
        <ele>1511</ele>
        <time>2018-06-16T11:16:53Z</time>
      </trkpt>
      <trkpt lat="42.11622" lon="9.14995">
        <ele>1518</ele>
        <time>2018-06-16T11:17:08Z</time>
      </trkpt>
      <trkpt lat="42.11627" lon="9.1499">
        <ele>1517</ele>
        <time>2018-06-16T11:17:13Z</time>
      </trkpt>
      <trkpt lat="42.11635" lon="9.14983">
        <ele>1515</ele>
        <time>2018-06-16T11:17:23Z</time>
      </trkpt>
      <trkpt lat="42.11639" lon="9.14976">
        <ele>1515</ele>
        <time>2018-06-16T11:17:30Z</time>
      </trkpt>
      <trkpt lat="42.11651" lon="9.14965">
        <ele>1514</ele>
        <time>2018-06-16T11:17:46Z</time>
      </trkpt>
      <trkpt lat="42.1166" lon="9.14949">
        <ele>1516</ele>
        <time>2018-06-16T11:18:01Z</time>
      </trkpt>
      <trkpt lat="42.11669" lon="9.14936">
        <ele>1497</ele>
        <time>2018-06-16T11:18:16Z</time>
      </trkpt>
      <trkpt lat="42.11683" lon="9.14919">
        <ele>1498</ele>
        <time>2018-06-16T11:18:34Z</time>
      </trkpt>
      <trkpt lat="42.11695" lon="9.14907">
        <ele>1499</ele>
        <time>2018-06-16T11:18:47Z</time>
      </trkpt>
      <trkpt lat="42.11704" lon="9.14895">
        <ele>1496</ele>
        <time>2018-06-16T11:19:02Z</time>
      </trkpt>
      <trkpt lat="42.11713" lon="9.14882">
        <ele>1494</ele>
        <time>2018-06-16T11:19:14Z</time>
      </trkpt>
      <trkpt lat="42.1172" lon="9.14871">
        <ele>1494</ele>
        <time>2018-06-16T11:19:22Z</time>
      </trkpt>
      <trkpt lat="42.11724" lon="9.14847">
        <ele>1493</ele>
        <time>2018-06-16T11:19:38Z</time>
      </trkpt>
      <trkpt lat="42.11731" lon="9.14835">
        <ele>1490</ele>
        <time>2018-06-16T11:19:50Z</time>
      </trkpt>
      <trkpt lat="42.11736" lon="9.14814">
        <ele>1492</ele>
        <time>2018-06-16T11:20:08Z</time>
      </trkpt>
      <trkpt lat="42.11743" lon="9.14791">
        <ele>1492</ele>
        <time>2018-06-16T11:20:24Z</time>
      </trkpt>
      <trkpt lat="42.11747" lon="9.14779">
        <ele>1491</ele>
        <time>2018-06-16T11:20:32Z</time>
      </trkpt>
      <trkpt lat="42.11748" lon="9.14772">
        <ele>1489</ele>
        <time>2018-06-16T11:20:37Z</time>
      </trkpt>
      <trkpt lat="42.11754" lon="9.14746">
        <ele>1475</ele>
        <time>2018-06-16T11:20:56Z</time>
      </trkpt>
      <trkpt lat="42.11753" lon="9.14741">
        <ele>1474</ele>
        <time>2018-06-16T11:21:01Z</time>
      </trkpt>
      <trkpt lat="42.11752" lon="9.1474">
        <ele>1473</ele>
        <time>2018-06-16T11:21:03Z</time>
      </trkpt>
      <trkpt lat="42.1174" lon="9.14722">
        <ele>1483</ele>
        <time>2018-06-16T11:21:17Z</time>
      </trkpt>
      <trkpt lat="42.11736" lon="9.14717">
        <ele>1483</ele>
        <time>2018-06-16T11:21:22Z</time>
      </trkpt>
      <trkpt lat="42.11734" lon="9.14713">
        <ele>1483</ele>
        <time>2018-06-16T11:21:26Z</time>
      </trkpt>
      <trkpt lat="42.11732" lon="9.14709">
        <ele>1483</ele>
        <time>2018-06-16T11:21:30Z</time>
      </trkpt>
      <trkpt lat="42.11729" lon="9.14701">
        <ele>1483</ele>
        <time>2018-06-16T11:21:37Z</time>
      </trkpt>
      <trkpt lat="42.11727" lon="9.14689">
        <ele>1481</ele>
        <time>2018-06-16T11:21:47Z</time>
      </trkpt>
      <trkpt lat="42.11726" lon="9.14686">
        <ele>1481</ele>
        <time>2018-06-16T11:21:49Z</time>
      </trkpt>
      <trkpt lat="42.11724" lon="9.14675">
        <ele>1479</ele>
        <time>2018-06-16T11:21:57Z</time>
      </trkpt>
      <trkpt lat="42.11721" lon="9.14655">
        <ele>1467</ele>
        <time>2018-06-16T11:22:14Z</time>
      </trkpt>
      <trkpt lat="42.1172" lon="9.14653">
        <ele>1467</ele>
        <time>2018-06-16T11:22:15Z</time>
      </trkpt>
      <trkpt lat="42.11712" lon="9.14634">
        <ele>1466</ele>
        <time>2018-06-16T11:22:34Z</time>
      </trkpt>
      <trkpt lat="42.11704" lon="9.14615">
        <ele>1465</ele>
        <time>2018-06-16T11:22:52Z</time>
      </trkpt>
      <trkpt lat="42.11694" lon="9.14593">
        <ele>1466</ele>
        <time>2018-06-16T11:23:12Z</time>
      </trkpt>
      <trkpt lat="42.11683" lon="9.14566">
        <ele>1453</ele>
        <time>2018-06-16T11:23:29Z</time>
      </trkpt>
      <trkpt lat="42.11677" lon="9.14543">
        <ele>1448</ele>
        <time>2018-06-16T11:23:47Z</time>
      </trkpt>
      <trkpt lat="42.11674" lon="9.14518">
        <ele>1445</ele>
        <time>2018-06-16T11:24:05Z</time>
      </trkpt>
      <trkpt lat="42.11672" lon="9.14497">
        <ele>1440</ele>
        <time>2018-06-16T11:24:20Z</time>
      </trkpt>
      <trkpt lat="42.11667" lon="9.14486">
        <ele>1434</ele>
        <time>2018-06-16T11:24:36Z</time>
      </trkpt>
      <trkpt lat="42.11654" lon="9.14479">
        <ele>1434</ele>
        <time>2018-06-16T11:24:50Z</time>
      </trkpt>
      <trkpt lat="42.11642" lon="9.14477">
        <ele>1433</ele>
        <time>2018-06-16T11:25:05Z</time>
      </trkpt>
      <trkpt lat="42.11624" lon="9.14473">
        <ele>1431</ele>
        <time>2018-06-16T11:25:24Z</time>
      </trkpt>
      <trkpt lat="42.11605" lon="9.14463">
        <ele>1429</ele>
        <time>2018-06-16T11:25:44Z</time>
      </trkpt>
      <trkpt lat="42.11587" lon="9.14463">
        <ele>1429</ele>
        <time>2018-06-16T11:25:59Z</time>
      </trkpt>
      <trkpt lat="42.11576" lon="9.14463">
        <ele>1422</ele>
        <time>2018-06-16T11:26:15Z</time>
      </trkpt>
      <trkpt lat="42.11574" lon="9.14452">
        <ele>1419</ele>
        <time>2018-06-16T11:26:33Z</time>
      </trkpt>
      <trkpt lat="42.11582" lon="9.14436">
        <ele>1415</ele>
        <time>2018-06-16T11:26:50Z</time>
      </trkpt>
      <trkpt lat="42.11586" lon="9.14423">
        <ele>1413</ele>
        <time>2018-06-16T11:27:06Z</time>
      </trkpt>
      <trkpt lat="42.11599" lon="9.14418">
        <ele>1417</ele>
        <time>2018-06-16T11:27:23Z</time>
      </trkpt>
      <trkpt lat="42.11605" lon="9.14413">
        <ele>1401</ele>
        <time>2018-06-16T11:27:37Z</time>
      </trkpt>
      <trkpt lat="42.11609" lon="9.14409">
        <ele>1400</ele>
        <time>2018-06-16T11:27:51Z</time>
      </trkpt>
      <trkpt lat="42.11599" lon="9.14402">
        <ele>1400</ele>
        <time>2018-06-16T11:28:06Z</time>
      </trkpt>
      <trkpt lat="42.1158" lon="9.14394">
        <ele>1394</ele>
        <time>2018-06-16T11:28:25Z</time>
      </trkpt>
      <trkpt lat="42.11575" lon="9.14387">
        <ele>1390</ele>
        <time>2018-06-16T11:28:42Z</time>
      </trkpt>
      <trkpt lat="42.11577" lon="9.14371">
        <ele>1386</ele>
        <time>2018-06-16T11:28:57Z</time>
      </trkpt>
      <trkpt lat="42.11567" lon="9.14373">
        <ele>1386</ele>
        <time>2018-06-16T11:29:12Z</time>
      </trkpt>
      <trkpt lat="42.11556" lon="9.14375">
        <ele>1385</ele>
        <time>2018-06-16T11:29:26Z</time>
      </trkpt>
      <trkpt lat="42.11544" lon="9.14366">
        <ele>1382</ele>
        <time>2018-06-16T11:29:48Z</time>
      </trkpt>
      <trkpt lat="42.11552" lon="9.14356">
        <ele>1381</ele>
        <time>2018-06-16T11:30:04Z</time>
      </trkpt>
      <trkpt lat="42.11555" lon="9.14349">
        <ele>1380</ele>
        <time>2018-06-16T11:30:17Z</time>
      </trkpt>
      <trkpt lat="42.11564" lon="9.14338">
        <ele>1379</ele>
        <time>2018-06-16T11:30:31Z</time>
      </trkpt>
      <trkpt lat="42.11578" lon="9.14326">
        <ele>1367</ele>
        <time>2018-06-16T11:30:49Z</time>
      </trkpt>
      <trkpt lat="42.11578" lon="9.1432">
        <ele>1364</ele>
        <time>2018-06-16T11:31:06Z</time>
      </trkpt>
      <trkpt lat="42.1157" lon="9.14311">
        <ele>1358</ele>
        <time>2018-06-16T11:31:22Z</time>
      </trkpt>
      <trkpt lat="42.11559" lon="9.14307">
        <ele>1355</ele>
        <time>2018-06-16T11:31:36Z</time>
      </trkpt>
      <trkpt lat="42.11547" lon="9.14307">
        <ele>1353</ele>
        <time>2018-06-16T11:31:50Z</time>
      </trkpt>
      <trkpt lat="42.11539" lon="9.14303">
        <ele>1351</ele>
        <time>2018-06-16T11:32:08Z</time>
      </trkpt>
      <trkpt lat="42.11541" lon="9.14284">
        <ele>1347</ele>
        <time>2018-06-16T11:32:22Z</time>
      </trkpt>
      <trkpt lat="42.11545" lon="9.14269">
        <ele>1345</ele>
        <time>2018-06-16T11:32:37Z</time>
      </trkpt>
      <trkpt lat="42.11553" lon="9.14258">
        <ele>1343</ele>
        <time>2018-06-16T11:32:49Z</time>
      </trkpt>
      <trkpt lat="42.11557" lon="9.14255">
        <ele>1343</ele>
        <time>2018-06-16T11:33:05Z</time>
      </trkpt>
      <trkpt lat="42.11546" lon="9.14258">
        <ele>1343</ele>
        <time>2018-06-16T11:33:21Z</time>
      </trkpt>
      <trkpt lat="42.11537" lon="9.14256">
        <ele>1342</ele>
        <time>2018-06-16T11:33:38Z</time>
      </trkpt>
      <trkpt lat="42.11522" lon="9.14264">
        <ele>1340</ele>
        <time>2018-06-16T11:33:55Z</time>
      </trkpt>
      <trkpt lat="42.11514" lon="9.14268">
        <ele>1340</ele>
        <time>2018-06-16T11:34:05Z</time>
      </trkpt>
      <trkpt lat="42.11499" lon="9.14282">
        <ele>1333</ele>
        <time>2018-06-16T11:34:24Z</time>
      </trkpt>
      <trkpt lat="42.11485" lon="9.14284">
        <ele>1333</ele>
        <time>2018-06-16T11:34:41Z</time>
      </trkpt>
      <trkpt lat="42.11485" lon="9.1427">
        <ele>1331</ele>
        <time>2018-06-16T11:34:57Z</time>
      </trkpt>
      <trkpt lat="42.1148" lon="9.14258">
        <ele>1329</ele>
        <time>2018-06-16T11:35:11Z</time>
      </trkpt>
      <trkpt lat="42.11485" lon="9.14238">
        <ele>1313</ele>
        <time>2018-06-16T11:35:27Z</time>
      </trkpt>
      <trkpt lat="42.1149" lon="9.14219">
        <ele>1308</ele>
        <time>2018-06-16T11:35:43Z</time>
      </trkpt>
      <trkpt lat="42.1149" lon="9.14206">
        <ele>1305</ele>
        <time>2018-06-16T11:35:58Z</time>
      </trkpt>
      <trkpt lat="42.11498" lon="9.1419">
        <ele>1301</ele>
        <time>2018-06-16T11:36:13Z</time>
      </trkpt>
      <trkpt lat="42.11511" lon="9.14174">
        <ele>1303</ele>
        <time>2018-06-16T11:36:29Z</time>
      </trkpt>
      <trkpt lat="42.11522" lon="9.1417">
        <ele>1305</ele>
        <time>2018-06-16T11:36:42Z</time>
      </trkpt>
      <trkpt lat="42.11538" lon="9.14162">
        <ele>1287</ele>
        <time>2018-06-16T11:37:00Z</time>
      </trkpt>
      <trkpt lat="42.11546" lon="9.14155">
        <ele>1286</ele>
        <time>2018-06-16T11:37:16Z</time>
      </trkpt>
      <trkpt lat="42.11541" lon="9.14149">
        <ele>1285</ele>
        <time>2018-06-16T11:37:25Z</time>
      </trkpt>
      <trkpt lat="42.1153" lon="9.14139">
        <ele>1283</ele>
        <time>2018-06-16T11:37:42Z</time>
      </trkpt>
      <trkpt lat="42.11515" lon="9.14134">
        <ele>1283</ele>
        <time>2018-06-16T11:37:59Z</time>
      </trkpt>
      <trkpt lat="42.11503" lon="9.14137">
        <ele>1284</ele>
        <time>2018-06-16T11:38:15Z</time>
      </trkpt>
      <trkpt lat="42.115" lon="9.14129">
        <ele>1278</ele>
        <time>2018-06-16T11:38:31Z</time>
      </trkpt>
      <trkpt lat="42.11506" lon="9.14112">
        <ele>1277</ele>
        <time>2018-06-16T11:38:49Z</time>
      </trkpt>
      <trkpt lat="42.11512" lon="9.14101">
        <ele>1274</ele>
        <time>2018-06-16T11:38:58Z</time>
      </trkpt>
      <trkpt lat="42.11512" lon="9.14092">
        <ele>1271</ele>
        <time>2018-06-16T11:39:11Z</time>
      </trkpt>
      <trkpt lat="42.11504" lon="9.14092">
        <ele>1269</ele>
        <time>2018-06-16T11:39:25Z</time>
      </trkpt>
      <trkpt lat="42.11494" lon="9.14099">
        <ele>1269</ele>
        <time>2018-06-16T11:39:37Z</time>
      </trkpt>
      <trkpt lat="42.11482" lon="9.14106">
        <ele>1272</ele>
        <time>2018-06-16T11:39:53Z</time>
      </trkpt>
      <trkpt lat="42.11481" lon="9.14092">
        <ele>1269</ele>
        <time>2018-06-16T11:40:11Z</time>
      </trkpt>
      <trkpt lat="42.11484" lon="9.14073">
        <ele>1255</ele>
        <time>2018-06-16T11:40:32Z</time>
      </trkpt>
      <trkpt lat="42.11473" lon="9.1407">
        <ele>1252</ele>
        <time>2018-06-16T11:40:45Z</time>
      </trkpt>
      <trkpt lat="42.11459" lon="9.14082">
        <ele>1252</ele>
        <time>2018-06-16T11:41:05Z</time>
      </trkpt>
      <trkpt lat="42.11459" lon="9.14072">
        <ele>1251</ele>
        <time>2018-06-16T11:41:19Z</time>
      </trkpt>
      <trkpt lat="42.11446" lon="9.14071">
        <ele>1250</ele>
        <time>2018-06-16T11:41:35Z</time>
      </trkpt>
      <trkpt lat="42.11446" lon="9.14072">
        <ele>1251</ele>
        <time>2018-06-16T11:42:00Z</time>
      </trkpt>
      <trkpt lat="42.11447" lon="9.14075">
        <ele>1251</ele>
        <time>2018-06-16T11:42:30Z</time>
      </trkpt>
      <trkpt lat="42.11448" lon="9.14068">
        <ele>1250</ele>
        <time>2018-06-16T11:43:01Z</time>
      </trkpt>
      <trkpt lat="42.11451" lon="9.14071">
        <ele>1250</ele>
        <time>2018-06-16T11:43:17Z</time>
      </trkpt>
      <trkpt lat="42.11443" lon="9.14076">
        <ele>1251</ele>
        <time>2018-06-16T11:43:47Z</time>
      </trkpt>
      <trkpt lat="42.11446" lon="9.14076">
        <ele>1251</ele>
        <time>2018-06-16T11:44:17Z</time>
      </trkpt>
      <trkpt lat="42.11444" lon="9.14065">
        <ele>1250</ele>
        <time>2018-06-16T11:44:47Z</time>
      </trkpt>
      <trkpt lat="42.11446" lon="9.14072">
        <ele>1251</ele>
        <time>2018-06-16T11:45:18Z</time>
      </trkpt>
      <trkpt lat="42.11446" lon="9.14068">
        <ele>1250</ele>
        <time>2018-06-16T11:45:49Z</time>
      </trkpt>
      <trkpt lat="42.11446" lon="9.1407">
        <ele>1250</ele>
        <time>2018-06-16T11:46:20Z</time>
      </trkpt>
      <trkpt lat="42.11444" lon="9.14064">
        <ele>1250</ele>
        <time>2018-06-16T11:46:51Z</time>
      </trkpt>
      <trkpt lat="42.11446" lon="9.14065">
        <ele>1250</ele>
        <time>2018-06-16T11:47:23Z</time>
      </trkpt>
      <trkpt lat="42.11449" lon="9.14067">
        <ele>1250</ele>
        <time>2018-06-16T11:47:55Z</time>
      </trkpt>
      <trkpt lat="42.11447" lon="9.14076">
        <ele>1251</ele>
        <time>2018-06-16T11:48:29Z</time>
      </trkpt>
      <trkpt lat="42.11442" lon="9.14083">
        <ele>1252</ele>
        <time>2018-06-16T11:48:59Z</time>
      </trkpt>
      <trkpt lat="42.11445" lon="9.14079">
        <ele>1251</ele>
        <time>2018-06-16T11:49:30Z</time>
      </trkpt>
      <trkpt lat="42.1144" lon="9.14088">
        <ele>1266</ele>
        <time>2018-06-16T11:50:01Z</time>
      </trkpt>
      <trkpt lat="42.1144" lon="9.1409">
        <ele>1267</ele>
        <time>2018-06-16T11:50:33Z</time>
      </trkpt>
      <trkpt lat="42.11442" lon="9.14085">
        <ele>1267</ele>
        <time>2018-06-16T11:51:03Z</time>
      </trkpt>
      <trkpt lat="42.11451" lon="9.1407">
        <ele>1250</ele>
        <time>2018-06-16T11:51:25Z</time>
      </trkpt>
      <trkpt lat="42.11456" lon="9.14062">
        <ele>1250</ele>
        <time>2018-06-16T11:51:33Z</time>
      </trkpt>
      <trkpt lat="42.11464" lon="9.14043">
        <ele>1247</ele>
        <time>2018-06-16T11:51:50Z</time>
      </trkpt>
      <trkpt lat="42.11466" lon="9.1403">
        <ele>1245</ele>
        <time>2018-06-16T11:52:03Z</time>
      </trkpt>
      <trkpt lat="42.11476" lon="9.14012">
        <ele>1243</ele>
        <time>2018-06-16T11:52:19Z</time>
      </trkpt>
      <trkpt lat="42.11484" lon="9.13998">
        <ele>1230</ele>
        <time>2018-06-16T11:52:35Z</time>
      </trkpt>
      <trkpt lat="42.11493" lon="9.13982">
        <ele>1229</ele>
        <time>2018-06-16T11:52:51Z</time>
      </trkpt>
      <trkpt lat="42.11503" lon="9.13965">
        <ele>1223</ele>
        <time>2018-06-16T11:53:07Z</time>
      </trkpt>
      <trkpt lat="42.11512" lon="9.13955">
        <ele>1221</ele>
        <time>2018-06-16T11:53:19Z</time>
      </trkpt>
      <trkpt lat="42.11528" lon="9.1395">
        <ele>1220</ele>
        <time>2018-06-16T11:53:34Z</time>
      </trkpt>
      <trkpt lat="42.11534" lon="9.13948">
        <ele>1219</ele>
        <time>2018-06-16T11:53:41Z</time>
      </trkpt>
      <trkpt lat="42.11555" lon="9.13949">
        <ele>1218</ele>
        <time>2018-06-16T11:54:00Z</time>
      </trkpt>
      <trkpt lat="42.11563" lon="9.13956">
        <ele>1219</ele>
        <time>2018-06-16T11:54:21Z</time>
      </trkpt>
      <trkpt lat="42.11565" lon="9.13961">
        <ele>1220</ele>
        <time>2018-06-16T11:54:41Z</time>
      </trkpt>
      <trkpt lat="42.11561" lon="9.13956">
        <ele>1219</ele>
        <time>2018-06-16T11:54:56Z</time>
      </trkpt>
      <trkpt lat="42.11557" lon="9.13948">
        <ele>1218</ele>
        <time>2018-06-16T11:55:14Z</time>
      </trkpt>
      <trkpt lat="42.11547" lon="9.13939">
        <ele>1217</ele>
        <time>2018-06-16T11:55:24Z</time>
      </trkpt>
      <trkpt lat="42.11535" lon="9.13932">
        <ele>1217</ele>
        <time>2018-06-16T11:55:37Z</time>
      </trkpt>
      <trkpt lat="42.11524" lon="9.13925">
        <ele>1216</ele>
        <time>2018-06-16T11:55:50Z</time>
      </trkpt>
      <trkpt lat="42.11521" lon="9.13924">
        <ele>1216</ele>
        <time>2018-06-16T11:55:53Z</time>
      </trkpt>
      <trkpt lat="42.11508" lon="9.13923">
        <ele>1215</ele>
        <time>2018-06-16T11:56:07Z</time>
      </trkpt>
      <trkpt lat="42.11506" lon="9.13923">
        <ele>1214</ele>
        <time>2018-06-16T11:56:09Z</time>
      </trkpt>
      <trkpt lat="42.11493" lon="9.13926">
        <ele>1217</ele>
        <time>2018-06-16T11:56:23Z</time>
      </trkpt>
      <trkpt lat="42.11485" lon="9.13928">
        <ele>1218</ele>
        <time>2018-06-16T11:56:33Z</time>
      </trkpt>
      <trkpt lat="42.1147" lon="9.13935">
        <ele>1221</ele>
        <time>2018-06-16T11:56:48Z</time>
      </trkpt>
      <trkpt lat="42.11463" lon="9.13939">
        <ele>1222</ele>
        <time>2018-06-16T11:56:59Z</time>
      </trkpt>
      <trkpt lat="42.11455" lon="9.13948">
        <ele>1223</ele>
        <time>2018-06-16T11:57:13Z</time>
      </trkpt>
      <trkpt lat="42.11452" lon="9.13952">
        <ele>1223</ele>
        <time>2018-06-16T11:57:17Z</time>
      </trkpt>
      <trkpt lat="42.11448" lon="9.13958">
        <ele>1224</ele>
        <time>2018-06-16T11:57:23Z</time>
      </trkpt>
      <trkpt lat="42.11436" lon="9.13957">
        <ele>1224</ele>
        <time>2018-06-16T11:57:36Z</time>
      </trkpt>
      <trkpt lat="42.11421" lon="9.13955">
        <ele>1223</ele>
        <time>2018-06-16T11:57:51Z</time>
      </trkpt>
      <trkpt lat="42.11407" lon="9.13952">
        <ele>1225</ele>
        <time>2018-06-16T11:58:06Z</time>
      </trkpt>
      <trkpt lat="42.11402" lon="9.13954">
        <ele>1225</ele>
        <time>2018-06-16T11:58:11Z</time>
      </trkpt>
      <trkpt lat="42.11386" lon="9.13957">
        <ele>1226</ele>
        <time>2018-06-16T11:58:27Z</time>
      </trkpt>
      <trkpt lat="42.11382" lon="9.13955">
        <ele>1226</ele>
        <time>2018-06-16T11:58:31Z</time>
      </trkpt>
      <trkpt lat="42.11378" lon="9.13953">
        <ele>1226</ele>
        <time>2018-06-16T11:58:36Z</time>
      </trkpt>
      <trkpt lat="42.11367" lon="9.1395">
        <ele>1226</ele>
        <time>2018-06-16T11:58:52Z</time>
      </trkpt>
      <trkpt lat="42.11351" lon="9.13945">
        <ele>1225</ele>
        <time>2018-06-16T11:59:12Z</time>
      </trkpt>
      <trkpt lat="42.11348" lon="9.13936">
        <ele>1224</ele>
        <time>2018-06-16T11:59:34Z</time>
      </trkpt>
      <trkpt lat="42.11339" lon="9.13927">
        <ele>1223</ele>
        <time>2018-06-16T11:59:50Z</time>
      </trkpt>
      <trkpt lat="42.11333" lon="9.13916">
        <ele>1220</ele>
        <time>2018-06-16T12:00:07Z</time>
      </trkpt>
      <trkpt lat="42.1133" lon="9.13903">
        <ele>1219</ele>
        <time>2018-06-16T12:00:27Z</time>
      </trkpt>
      <trkpt lat="42.11326" lon="9.13876">
        <ele>1215</ele>
        <time>2018-06-16T12:00:48Z</time>
      </trkpt>
      <trkpt lat="42.11319" lon="9.1386">
        <ele>1213</ele>
        <time>2018-06-16T12:01:07Z</time>
      </trkpt>
      <trkpt lat="42.11317" lon="9.13859">
        <ele>1213</ele>
        <time>2018-06-16T12:01:27Z</time>
      </trkpt>
      <trkpt lat="42.11314" lon="9.13862">
        <ele>1214</ele>
        <time>2018-06-16T12:01:46Z</time>
      </trkpt>
      <trkpt lat="42.11312" lon="9.13867">
        <ele>1215</ele>
        <time>2018-06-16T12:02:06Z</time>
      </trkpt>
      <trkpt lat="42.11311" lon="9.13872">
        <ele>1215</ele>
        <time>2018-06-16T12:02:24Z</time>
      </trkpt>
      <trkpt lat="42.1131" lon="9.13868">
        <ele>1215</ele>
        <time>2018-06-16T12:02:46Z</time>
      </trkpt>
      <trkpt lat="42.11307" lon="9.13867">
        <ele>1215</ele>
        <time>2018-06-16T12:03:15Z</time>
      </trkpt>
      <trkpt lat="42.11306" lon="9.13869">
        <ele>1215</ele>
        <time>2018-06-16T12:03:23Z</time>
      </trkpt>
      <trkpt lat="42.11306" lon="9.13866">
        <ele>1215</ele>
        <time>2018-06-16T12:03:43Z</time>
      </trkpt>
      <trkpt lat="42.11301" lon="9.13858">
        <ele>1214</ele>
        <time>2018-06-16T12:04:03Z</time>
      </trkpt>
      <trkpt lat="42.11308" lon="9.13852">
        <ele>1213</ele>
        <time>2018-06-16T12:04:21Z</time>
      </trkpt>
      <trkpt lat="42.11311" lon="9.13854">
        <ele>1213</ele>
        <time>2018-06-16T12:04:43Z</time>
      </trkpt>
      <trkpt lat="42.1131" lon="9.1385">
        <ele>1212</ele>
        <time>2018-06-16T12:05:15Z</time>
      </trkpt>
      <trkpt lat="42.11309" lon="9.13853">
        <ele>1213</ele>
        <time>2018-06-16T12:05:42Z</time>
      </trkpt>
      <trkpt lat="42.11303" lon="9.13853">
        <ele>1213</ele>
        <time>2018-06-16T12:05:50Z</time>
      </trkpt>
      <trkpt lat="42.11283" lon="9.13852">
        <ele>1214</ele>
        <time>2018-06-16T12:06:07Z</time>
      </trkpt>
      <trkpt lat="42.11268" lon="9.13845">
        <ele>1213</ele>
        <time>2018-06-16T12:06:21Z</time>
      </trkpt>
      <trkpt lat="42.11267" lon="9.13845">
        <ele>1213</ele>
        <time>2018-06-16T12:06:22Z</time>
      </trkpt>
      <trkpt lat="42.11254" lon="9.13845">
        <ele>1212</ele>
        <time>2018-06-16T12:06:36Z</time>
      </trkpt>
      <trkpt lat="42.11242" lon="9.13841">
        <ele>1216</ele>
        <time>2018-06-16T12:06:50Z</time>
      </trkpt>
      <trkpt lat="42.11236" lon="9.13837">
        <ele>1217</ele>
        <time>2018-06-16T12:07:09Z</time>
      </trkpt>
      <trkpt lat="42.11241" lon="9.13837">
        <ele>1215</ele>
        <time>2018-06-16T12:07:33Z</time>
      </trkpt>
      <trkpt lat="42.11237" lon="9.13836">
        <ele>1217</ele>
        <time>2018-06-16T12:07:58Z</time>
      </trkpt>
      <trkpt lat="42.11243" lon="9.13834">
        <ele>1213</ele>
        <time>2018-06-16T12:08:28Z</time>
      </trkpt>
      <trkpt lat="42.1124" lon="9.13834">
        <ele>1215</ele>
        <time>2018-06-16T12:09:01Z</time>
      </trkpt>
      <trkpt lat="42.1124" lon="9.13834">
        <ele>1215</ele>
        <time>2018-06-16T12:09:52Z</time>
      </trkpt>
      <trkpt lat="42.11239" lon="9.13835">
        <ele>1216</ele>
        <time>2018-06-16T12:10:16Z</time>
      </trkpt>
      <trkpt lat="42.11231" lon="9.13828">
        <ele>1208</ele>
        <time>2018-06-16T12:10:37Z</time>
      </trkpt>
      <trkpt lat="42.1122" lon="9.13818">
        <ele>1208</ele>
        <time>2018-06-16T12:10:54Z</time>
      </trkpt>
      <trkpt lat="42.11207" lon="9.13806">
        <ele>1209</ele>
        <time>2018-06-16T12:11:10Z</time>
      </trkpt>
      <trkpt lat="42.11197" lon="9.13788">
        <ele>1208</ele>
        <time>2018-06-16T12:11:28Z</time>
      </trkpt>
      <trkpt lat="42.11195" lon="9.13784">
        <ele>1208</ele>
        <time>2018-06-16T12:11:31Z</time>
      </trkpt>
      <trkpt lat="42.11184" lon="9.13764">
        <ele>1207</ele>
        <time>2018-06-16T12:11:48Z</time>
      </trkpt>
      <trkpt lat="42.11185" lon="9.13751">
        <ele>1207</ele>
        <time>2018-06-16T12:11:58Z</time>
      </trkpt>
      <trkpt lat="42.11187" lon="9.13744">
        <ele>1200</ele>
        <time>2018-06-16T12:12:15Z</time>
      </trkpt>
      <trkpt lat="42.1119" lon="9.13736">
        <ele>1198</ele>
        <time>2018-06-16T12:12:32Z</time>
      </trkpt>
      <trkpt lat="42.11192" lon="9.13728">
        <ele>1197</ele>
        <time>2018-06-16T12:12:48Z</time>
      </trkpt>
      <trkpt lat="42.11198" lon="9.13724">
        <ele>1196</ele>
        <time>2018-06-16T12:13:03Z</time>
      </trkpt>
      <trkpt lat="42.11208" lon="9.13728">
        <ele>1195</ele>
        <time>2018-06-16T12:13:21Z</time>
      </trkpt>
      <trkpt lat="42.11215" lon="9.13728">
        <ele>1194</ele>
        <time>2018-06-16T12:13:39Z</time>
      </trkpt>
      <trkpt lat="42.11216" lon="9.13737">
        <ele>1195</ele>
        <time>2018-06-16T12:14:01Z</time>
      </trkpt>
      <trkpt lat="42.11216" lon="9.13737">
        <ele>1195</ele>
        <time>2018-06-16T12:14:23Z</time>
      </trkpt>
      <trkpt lat="42.11217" lon="9.13735">
        <ele>1194</ele>
        <time>2018-06-16T12:14:55Z</time>
      </trkpt>
      <trkpt lat="42.11223" lon="9.13736">
        <ele>1194</ele>
        <time>2018-06-16T12:16:43Z</time>
      </trkpt>
      <trkpt lat="42.11218" lon="9.13738">
        <ele>1195</ele>
        <time>2018-06-16T12:17:05Z</time>
      </trkpt>
      <trkpt lat="42.11212" lon="9.1374">
        <ele>1195</ele>
        <time>2018-06-16T12:17:26Z</time>
      </trkpt>
      <trkpt lat="42.11211" lon="9.13748">
        <ele>1196</ele>
        <time>2018-06-16T12:17:42Z</time>
      </trkpt>
      <trkpt lat="42.11219" lon="9.13747">
        <ele>1195</ele>
        <time>2018-06-16T12:17:57Z</time>
      </trkpt>
      <trkpt lat="42.1123" lon="9.13749">
        <ele>1194</ele>
        <time>2018-06-16T12:18:12Z</time>
      </trkpt>
      <trkpt lat="42.11244" lon="9.13751">
        <ele>1196</ele>
        <time>2018-06-16T12:18:31Z</time>
      </trkpt>
      <trkpt lat="42.11262" lon="9.13752">
        <ele>1194</ele>
        <time>2018-06-16T12:18:48Z</time>
      </trkpt>
      <trkpt lat="42.11276" lon="9.13748">
        <ele>1186</ele>
        <time>2018-06-16T12:19:05Z</time>
      </trkpt>
      <trkpt lat="42.11286" lon="9.13744">
        <ele>1184</ele>
        <time>2018-06-16T12:19:21Z</time>
      </trkpt>
      <trkpt lat="42.11302" lon="9.13741">
        <ele>1183</ele>
        <time>2018-06-16T12:19:40Z</time>
      </trkpt>
      <trkpt lat="42.11305" lon="9.1374">
        <ele>1183</ele>
        <time>2018-06-16T12:19:44Z</time>
      </trkpt>
      <trkpt lat="42.1132" lon="9.13735">
        <ele>1182</ele>
        <time>2018-06-16T12:20:02Z</time>
      </trkpt>
      <trkpt lat="42.11336" lon="9.13723">
        <ele>1179</ele>
        <time>2018-06-16T12:20:19Z</time>
      </trkpt>
      <trkpt lat="42.11352" lon="9.13717">
        <ele>1178</ele>
        <time>2018-06-16T12:20:35Z</time>
      </trkpt>
      <trkpt lat="42.11359" lon="9.13715">
        <ele>1178</ele>
        <time>2018-06-16T12:20:51Z</time>
      </trkpt>
      <trkpt lat="42.1137" lon="9.1371">
        <ele>1177</ele>
        <time>2018-06-16T12:21:03Z</time>
      </trkpt>
      <trkpt lat="42.11389" lon="9.13707">
        <ele>1177</ele>
        <time>2018-06-16T12:21:21Z</time>
      </trkpt>
      <trkpt lat="42.11404" lon="9.13701">
        <ele>1176</ele>
        <time>2018-06-16T12:21:42Z</time>
      </trkpt>
      <trkpt lat="42.11406" lon="9.13702">
        <ele>1176</ele>
        <time>2018-06-16T12:21:44Z</time>
      </trkpt>
      <trkpt lat="42.11422" lon="9.13702">
        <ele>1172</ele>
        <time>2018-06-16T12:22:02Z</time>
      </trkpt>
      <trkpt lat="42.11434" lon="9.13694">
        <ele>1170</ele>
        <time>2018-06-16T12:22:19Z</time>
      </trkpt>
      <trkpt lat="42.11436" lon="9.13704">
        <ele>1171</ele>
        <time>2018-06-16T12:22:49Z</time>
      </trkpt>
      <trkpt lat="42.11437" lon="9.13701">
        <ele>1171</ele>
        <time>2018-06-16T12:23:08Z</time>
      </trkpt>
      <trkpt lat="42.11432" lon="9.13705">
        <ele>1172</ele>
        <time>2018-06-16T12:23:28Z</time>
      </trkpt>
      <trkpt lat="42.11433" lon="9.13702">
        <ele>1171</ele>
        <time>2018-06-16T12:23:52Z</time>
      </trkpt>
      <trkpt lat="42.11435" lon="9.13695">
        <ele>1170</ele>
        <time>2018-06-16T12:24:17Z</time>
      </trkpt>
      <trkpt lat="42.11431" lon="9.13697">
        <ele>1171</ele>
        <time>2018-06-16T12:24:43Z</time>
      </trkpt>
      <trkpt lat="42.11434" lon="9.13689">
        <ele>1170</ele>
        <time>2018-06-16T12:25:13Z</time>
      </trkpt>
      <trkpt lat="42.11437" lon="9.13688">
        <ele>1170</ele>
        <time>2018-06-16T12:25:41Z</time>
      </trkpt>
      <trkpt lat="42.11437" lon="9.13693">
        <ele>1170</ele>
        <time>2018-06-16T12:26:11Z</time>
      </trkpt>
      <trkpt lat="42.11438" lon="9.13693">
        <ele>1170</ele>
        <time>2018-06-16T12:26:38Z</time>
      </trkpt>
      <trkpt lat="42.11436" lon="9.13693">
        <ele>1170</ele>
        <time>2018-06-16T12:27:06Z</time>
      </trkpt>
      <trkpt lat="42.11438" lon="9.1369">
        <ele>1170</ele>
        <time>2018-06-16T12:27:34Z</time>
      </trkpt>
      <trkpt lat="42.11433" lon="9.13689">
        <ele>1170</ele>
        <time>2018-06-16T12:28:07Z</time>
      </trkpt>
      <trkpt lat="42.11428" lon="9.13687">
        <ele>1170</ele>
        <time>2018-06-16T12:28:22Z</time>
      </trkpt>
      <trkpt lat="42.11418" lon="9.13685">
        <ele>1170</ele>
        <time>2018-06-16T12:28:41Z</time>
      </trkpt>
      <trkpt lat="42.11405" lon="9.1368">
        <ele>1173</ele>
        <time>2018-06-16T12:28:57Z</time>
      </trkpt>
      <trkpt lat="42.11384" lon="9.13676">
        <ele>1174</ele>
        <time>2018-06-16T12:29:15Z</time>
      </trkpt>
      <trkpt lat="42.1136" lon="9.13678">
        <ele>1173</ele>
        <time>2018-06-16T12:29:34Z</time>
      </trkpt>
      <trkpt lat="42.11341" lon="9.13679">
        <ele>1171</ele>
        <time>2018-06-16T12:29:49Z</time>
      </trkpt>
      <trkpt lat="42.1133" lon="9.13691">
        <ele>1176</ele>
        <time>2018-06-16T12:30:07Z</time>
      </trkpt>
      <trkpt lat="42.11318" lon="9.13692">
        <ele>1177</ele>
        <time>2018-06-16T12:30:16Z</time>
      </trkpt>
      <trkpt lat="42.11307" lon="9.13695">
        <ele>1178</ele>
        <time>2018-06-16T12:30:31Z</time>
      </trkpt>
      <trkpt lat="42.11299" lon="9.13693">
        <ele>1179</ele>
        <time>2018-06-16T12:30:36Z</time>
      </trkpt>
      <trkpt lat="42.11295" lon="9.13692">
        <ele>1179</ele>
        <time>2018-06-16T12:30:38Z</time>
      </trkpt>
      <trkpt lat="42.11274" lon="9.13688">
        <ele>1180</ele>
        <time>2018-06-16T12:30:54Z</time>
      </trkpt>
      <trkpt lat="42.11263" lon="9.13683">
        <ele>1180</ele>
        <time>2018-06-16T12:31:11Z</time>
      </trkpt>
      <trkpt lat="42.11254" lon="9.13676">
        <ele>1179</ele>
        <time>2018-06-16T12:31:31Z</time>
      </trkpt>
      <trkpt lat="42.1125" lon="9.13674">
        <ele>1182</ele>
        <time>2018-06-16T12:31:34Z</time>
      </trkpt>
      <trkpt lat="42.11242" lon="9.13671">
        <ele>1183</ele>
        <time>2018-06-16T12:31:52Z</time>
      </trkpt>
      <trkpt lat="42.11241" lon="9.13667">
        <ele>1181</ele>
        <time>2018-06-16T12:32:08Z</time>
      </trkpt>
      <trkpt lat="42.11243" lon="9.13646">
        <ele>1183</ele>
        <time>2018-06-16T12:32:27Z</time>
      </trkpt>
      <trkpt lat="42.11241" lon="9.13629">
        <ele>1184</ele>
        <time>2018-06-16T12:32:43Z</time>
      </trkpt>
      <trkpt lat="42.11244" lon="9.13612">
        <ele>1183</ele>
        <time>2018-06-16T12:32:57Z</time>
      </trkpt>
      <trkpt lat="42.11253" lon="9.13597">
        <ele>1174</ele>
        <time>2018-06-16T12:33:13Z</time>
      </trkpt>
      <trkpt lat="42.1126" lon="9.13585">
        <ele>1174</ele>
        <time>2018-06-16T12:33:23Z</time>
      </trkpt>
      <trkpt lat="42.11276" lon="9.13568">
        <ele>1177</ele>
        <time>2018-06-16T12:33:42Z</time>
      </trkpt>
      <trkpt lat="42.1129" lon="9.13559">
        <ele>1176</ele>
        <time>2018-06-16T12:33:58Z</time>
      </trkpt>
      <trkpt lat="42.11303" lon="9.13544">
        <ele>1176</ele>
        <time>2018-06-16T12:34:12Z</time>
      </trkpt>
      <trkpt lat="42.11317" lon="9.1353">
        <ele>1176</ele>
        <time>2018-06-16T12:34:29Z</time>
      </trkpt>
      <trkpt lat="42.11323" lon="9.13502">
        <ele>1176</ele>
        <time>2018-06-16T12:34:50Z</time>
      </trkpt>
      <trkpt lat="42.11325" lon="9.1349">
        <ele>1186</ele>
        <time>2018-06-16T12:34:57Z</time>
      </trkpt>
      <trkpt lat="42.11327" lon="9.13475">
        <ele>1192</ele>
        <time>2018-06-16T12:35:10Z</time>
      </trkpt>
      <trkpt lat="42.11337" lon="9.13469">
        <ele>1179</ele>
        <time>2018-06-16T12:35:25Z</time>
      </trkpt>
      <trkpt lat="42.11344" lon="9.13464">
        <ele>1179</ele>
        <time>2018-06-16T12:35:34Z</time>
      </trkpt>
      <trkpt lat="42.11354" lon="9.13458">
        <ele>1179</ele>
        <time>2018-06-16T12:35:47Z</time>
      </trkpt>
      <trkpt lat="42.11366" lon="9.13444">
        <ele>1180</ele>
        <time>2018-06-16T12:36:05Z</time>
      </trkpt>
      <trkpt lat="42.1138" lon="9.13435">
        <ele>1178</ele>
        <time>2018-06-16T12:36:20Z</time>
      </trkpt>
      <trkpt lat="42.1139" lon="9.13423">
        <ele>1177</ele>
        <time>2018-06-16T12:36:35Z</time>
      </trkpt>
      <trkpt lat="42.11402" lon="9.13416">
        <ele>1183</ele>
        <time>2018-06-16T12:36:50Z</time>
      </trkpt>
      <trkpt lat="42.11411" lon="9.13387">
        <ele>1189</ele>
        <time>2018-06-16T12:37:08Z</time>
      </trkpt>
      <trkpt lat="42.11415" lon="9.13372">
        <ele>1191</ele>
        <time>2018-06-16T12:37:24Z</time>
      </trkpt>
      <trkpt lat="42.11419" lon="9.13359">
        <ele>1176</ele>
        <time>2018-06-16T12:37:40Z</time>
      </trkpt>
      <trkpt lat="42.11427" lon="9.13344">
        <ele>1180</ele>
        <time>2018-06-16T12:37:58Z</time>
      </trkpt>
      <trkpt lat="42.11429" lon="9.13326">
        <ele>1188</ele>
        <time>2018-06-16T12:38:12Z</time>
      </trkpt>
      <trkpt lat="42.11428" lon="9.13304">
        <ele>1189</ele>
        <time>2018-06-16T12:38:28Z</time>
      </trkpt>
      <trkpt lat="42.11435" lon="9.13299">
        <ele>1189</ele>
        <time>2018-06-16T12:38:44Z</time>
      </trkpt>
      <trkpt lat="42.11451" lon="9.13287">
        <ele>1189</ele>
        <time>2018-06-16T12:39:02Z</time>
      </trkpt>
      <trkpt lat="42.11456" lon="9.13275">
        <ele>1189</ele>
        <time>2018-06-16T12:39:18Z</time>
      </trkpt>
      <trkpt lat="42.11456" lon="9.13267">
        <ele>1190</ele>
        <time>2018-06-16T12:39:44Z</time>
      </trkpt>
      <trkpt lat="42.11464" lon="9.13261">
        <ele>1189</ele>
        <time>2018-06-16T12:39:58Z</time>
      </trkpt>
      <trkpt lat="42.11481" lon="9.13256">
        <ele>1187</ele>
        <time>2018-06-16T12:40:18Z</time>
      </trkpt>
      <trkpt lat="42.115" lon="9.13241">
        <ele>1185</ele>
        <time>2018-06-16T12:40:36Z</time>
      </trkpt>
      <trkpt lat="42.1151" lon="9.1323">
        <ele>1186</ele>
        <time>2018-06-16T12:40:49Z</time>
      </trkpt>
      <trkpt lat="42.1152" lon="9.13221">
        <ele>1186</ele>
        <time>2018-06-16T12:41:03Z</time>
      </trkpt>
      <trkpt lat="42.11531" lon="9.13211">
        <ele>1186</ele>
        <time>2018-06-16T12:41:21Z</time>
      </trkpt>
      <trkpt lat="42.11544" lon="9.13193">
        <ele>1186</ele>
        <time>2018-06-16T12:41:41Z</time>
      </trkpt>
      <trkpt lat="42.11549" lon="9.13176">
        <ele>1187</ele>
        <time>2018-06-16T12:41:56Z</time>
      </trkpt>
      <trkpt lat="42.11554" lon="9.13148">
        <ele>1201</ele>
        <time>2018-06-16T12:42:16Z</time>
      </trkpt>
      <trkpt lat="42.11558" lon="9.13142">
        <ele>1201</ele>
        <time>2018-06-16T12:42:32Z</time>
      </trkpt>
      <trkpt lat="42.11567" lon="9.13135">
        <ele>1201</ele>
        <time>2018-06-16T12:42:42Z</time>
      </trkpt>
      <trkpt lat="42.11578" lon="9.13128">
        <ele>1201</ele>
        <time>2018-06-16T12:42:59Z</time>
      </trkpt>
      <trkpt lat="42.11591" lon="9.13117">
        <ele>1184</ele>
        <time>2018-06-16T12:43:15Z</time>
      </trkpt>
      <trkpt lat="42.11611" lon="9.13112">
        <ele>1182</ele>
        <time>2018-06-16T12:43:30Z</time>
      </trkpt>
      <trkpt lat="42.11633" lon="9.13112">
        <ele>1177</ele>
        <time>2018-06-16T12:43:48Z</time>
      </trkpt>
      <trkpt lat="42.11649" lon="9.13102">
        <ele>1174</ele>
        <time>2018-06-16T12:44:05Z</time>
      </trkpt>
      <trkpt lat="42.11661" lon="9.13083">
        <ele>1177</ele>
        <time>2018-06-16T12:44:24Z</time>
      </trkpt>
      <trkpt lat="42.1167" lon="9.13071">
        <ele>1171</ele>
        <time>2018-06-16T12:44:39Z</time>
      </trkpt>
      <trkpt lat="42.11682" lon="9.13062">
        <ele>1172</ele>
        <time>2018-06-16T12:44:52Z</time>
      </trkpt>
      <trkpt lat="42.11698" lon="9.13047">
        <ele>1173</ele>
        <time>2018-06-16T12:45:12Z</time>
      </trkpt>
      <trkpt lat="42.11711" lon="9.13034">
        <ele>1173</ele>
        <time>2018-06-16T12:45:30Z</time>
      </trkpt>
      <trkpt lat="42.11727" lon="9.13026">
        <ele>1171</ele>
        <time>2018-06-16T12:45:46Z</time>
      </trkpt>
      <trkpt lat="42.11742" lon="9.13017">
        <ele>1171</ele>
        <time>2018-06-16T12:46:02Z</time>
      </trkpt>
      <trkpt lat="42.11761" lon="9.13002">
        <ele>1161</ele>
        <time>2018-06-16T12:46:19Z</time>
      </trkpt>
      <trkpt lat="42.11773" lon="9.12988">
        <ele>1166</ele>
        <time>2018-06-16T12:46:36Z</time>
      </trkpt>
      <trkpt lat="42.1179" lon="9.12972">
        <ele>1163</ele>
        <time>2018-06-16T12:46:57Z</time>
      </trkpt>
      <trkpt lat="42.11798" lon="9.12961">
        <ele>1162</ele>
        <time>2018-06-16T12:47:13Z</time>
      </trkpt>
      <trkpt lat="42.11799" lon="9.12953">
        <ele>1162</ele>
        <time>2018-06-16T12:47:26Z</time>
      </trkpt>
      <trkpt lat="42.11796" lon="9.12952">
        <ele>1163</ele>
        <time>2018-06-16T12:47:44Z</time>
      </trkpt>
      <trkpt lat="42.11796" lon="9.12958">
        <ele>1163</ele>
        <time>2018-06-16T12:48:02Z</time>
      </trkpt>
      <trkpt lat="42.11804" lon="9.12963">
        <ele>1161</ele>
        <time>2018-06-16T12:48:16Z</time>
      </trkpt>
      <trkpt lat="42.11805" lon="9.12967">
        <ele>1160</ele>
        <time>2018-06-16T12:48:31Z</time>
      </trkpt>
      <trkpt lat="42.11814" lon="9.1297">
        <ele>1158</ele>
        <time>2018-06-16T12:48:47Z</time>
      </trkpt>
      <trkpt lat="42.11821" lon="9.12963">
        <ele>1158</ele>
        <time>2018-06-16T12:49:02Z</time>
      </trkpt>
      <trkpt lat="42.11824" lon="9.12949">
        <ele>1158</ele>
        <time>2018-06-16T12:49:13Z</time>
      </trkpt>
      <trkpt lat="42.11819" lon="9.12928">
        <ele>1157</ele>
        <time>2018-06-16T12:49:30Z</time>
      </trkpt>
      <trkpt lat="42.11817" lon="9.1291">
        <ele>1158</ele>
        <time>2018-06-16T12:49:47Z</time>
      </trkpt>
      <trkpt lat="42.11817" lon="9.12891">
        <ele>1160</ele>
        <time>2018-06-16T12:50:03Z</time>
      </trkpt>
      <trkpt lat="42.11813" lon="9.12873">
        <ele>1160</ele>
        <time>2018-06-16T12:50:19Z</time>
      </trkpt>
      <trkpt lat="42.11809" lon="9.12853">
        <ele>1158</ele>
        <time>2018-06-16T12:50:37Z</time>
      </trkpt>
      <trkpt lat="42.11807" lon="9.12837">
        <ele>1157</ele>
        <time>2018-06-16T12:50:55Z</time>
      </trkpt>
      <trkpt lat="42.11805" lon="9.12813">
        <ele>1148</ele>
        <time>2018-06-16T12:51:14Z</time>
      </trkpt>
      <trkpt lat="42.118" lon="9.12793">
        <ele>1147</ele>
        <time>2018-06-16T12:51:31Z</time>
      </trkpt>
      <trkpt lat="42.11792" lon="9.12774">
        <ele>1147</ele>
        <time>2018-06-16T12:51:50Z</time>
      </trkpt>
      <trkpt lat="42.11781" lon="9.12755">
        <ele>1150</ele>
        <time>2018-06-16T12:52:10Z</time>
      </trkpt>
      <trkpt lat="42.11784" lon="9.12731">
        <ele>1134</ele>
        <time>2018-06-16T12:52:31Z</time>
      </trkpt>
      <trkpt lat="42.11789" lon="9.12703">
        <ele>1129</ele>
        <time>2018-06-16T12:52:47Z</time>
      </trkpt>
      <trkpt lat="42.1178" lon="9.12679">
        <ele>1130</ele>
        <time>2018-06-16T12:53:05Z</time>
      </trkpt>
      <trkpt lat="42.11772" lon="9.12666">
        <ele>1119</ele>
        <time>2018-06-16T12:53:22Z</time>
      </trkpt>
      <trkpt lat="42.11768" lon="9.1266">
        <ele>1121</ele>
        <time>2018-06-16T12:53:28Z</time>
      </trkpt>
      <trkpt lat="42.11752" lon="9.12645">
        <ele>1120</ele>
        <time>2018-06-16T12:53:48Z</time>
      </trkpt>
      <trkpt lat="42.11742" lon="9.12631">
        <ele>1141</ele>
        <time>2018-06-16T12:54:06Z</time>
      </trkpt>
      <trkpt lat="42.1173" lon="9.12618">
        <ele>1139</ele>
        <time>2018-06-16T12:54:22Z</time>
      </trkpt>
      <trkpt lat="42.11712" lon="9.12607">
        <ele>1141</ele>
        <time>2018-06-16T12:54:44Z</time>
      </trkpt>
      <trkpt lat="42.11697" lon="9.12598">
        <ele>1144</ele>
        <time>2018-06-16T12:55:01Z</time>
      </trkpt>
      <trkpt lat="42.11684" lon="9.12592">
        <ele>1146</ele>
        <time>2018-06-16T12:55:20Z</time>
      </trkpt>
      <trkpt lat="42.11667" lon="9.12589">
        <ele>1148</ele>
        <time>2018-06-16T12:55:38Z</time>
      </trkpt>
      <trkpt lat="42.11652" lon="9.12574">
        <ele>1153</ele>
        <time>2018-06-16T12:55:57Z</time>
      </trkpt>
      <trkpt lat="42.11643" lon="9.12564">
        <ele>1155</ele>
        <time>2018-06-16T12:56:11Z</time>
      </trkpt>
      <trkpt lat="42.11631" lon="9.12541">
        <ele>1155</ele>
        <time>2018-06-16T12:56:33Z</time>
      </trkpt>
      <trkpt lat="42.11622" lon="9.12527">
        <ele>1155</ele>
        <time>2018-06-16T12:56:43Z</time>
      </trkpt>
      <trkpt lat="42.1162" lon="9.12518">
        <ele>1154</ele>
        <time>2018-06-16T12:56:51Z</time>
      </trkpt>
      <trkpt lat="42.11616" lon="9.12504">
        <ele>1155</ele>
        <time>2018-06-16T12:57:04Z</time>
      </trkpt>
      <trkpt lat="42.11609" lon="9.12481">
        <ele>1141</ele>
        <time>2018-06-16T12:57:22Z</time>
      </trkpt>
      <trkpt lat="42.11594" lon="9.1246">
        <ele>1139</ele>
        <time>2018-06-16T12:57:41Z</time>
      </trkpt>
      <trkpt lat="42.11582" lon="9.12441">
        <ele>1159</ele>
        <time>2018-06-16T12:58:01Z</time>
      </trkpt>
      <trkpt lat="42.11566" lon="9.12424">
        <ele>1156</ele>
        <time>2018-06-16T12:58:18Z</time>
      </trkpt>
      <trkpt lat="42.11551" lon="9.12406">
        <ele>1147</ele>
        <time>2018-06-16T12:58:37Z</time>
      </trkpt>
      <trkpt lat="42.11543" lon="9.12393">
        <ele>1148</ele>
        <time>2018-06-16T12:58:51Z</time>
      </trkpt>
      <trkpt lat="42.11532" lon="9.12379">
        <ele>1148</ele>
        <time>2018-06-16T12:59:07Z</time>
      </trkpt>
      <trkpt lat="42.11522" lon="9.12363">
        <ele>1148</ele>
        <time>2018-06-16T12:59:23Z</time>
      </trkpt>
      <trkpt lat="42.11504" lon="9.12344">
        <ele>1149</ele>
        <time>2018-06-16T12:59:42Z</time>
      </trkpt>
      <trkpt lat="42.11488" lon="9.12329">
        <ele>1153</ele>
        <time>2018-06-16T13:00:01Z</time>
      </trkpt>
      <trkpt lat="42.11471" lon="9.12307">
        <ele>1157</ele>
        <time>2018-06-16T13:00:20Z</time>
      </trkpt>
      <trkpt lat="42.1146" lon="9.12296">
        <ele>1158</ele>
        <time>2018-06-16T13:00:34Z</time>
      </trkpt>
      <trkpt lat="42.11454" lon="9.12289">
        <ele>1158</ele>
        <time>2018-06-16T13:00:51Z</time>
      </trkpt>
      <trkpt lat="42.11456" lon="9.12266">
        <ele>1157</ele>
        <time>2018-06-16T13:01:07Z</time>
      </trkpt>
      <trkpt lat="42.11452" lon="9.12264">
        <ele>1158</ele>
        <time>2018-06-16T13:01:31Z</time>
      </trkpt>
      <trkpt lat="42.11455" lon="9.12253">
        <ele>1157</ele>
        <time>2018-06-16T13:01:56Z</time>
      </trkpt>
      <trkpt lat="42.11461" lon="9.12241">
        <ele>1151</ele>
        <time>2018-06-16T13:02:16Z</time>
      </trkpt>
      <trkpt lat="42.11466" lon="9.12218">
        <ele>1150</ele>
        <time>2018-06-16T13:02:31Z</time>
      </trkpt>
      <trkpt lat="42.11464" lon="9.12213">
        <ele>1150</ele>
        <time>2018-06-16T13:02:34Z</time>
      </trkpt>
      <trkpt lat="42.11461" lon="9.12206">
        <ele>1150</ele>
        <time>2018-06-16T13:02:41Z</time>
      </trkpt>
      <trkpt lat="42.11466" lon="9.12187">
        <ele>1149</ele>
        <time>2018-06-16T13:02:54Z</time>
      </trkpt>
      <trkpt lat="42.11462" lon="9.12181">
        <ele>1149</ele>
        <time>2018-06-16T13:02:59Z</time>
      </trkpt>
      <trkpt lat="42.11463" lon="9.12161">
        <ele>1149</ele>
        <time>2018-06-16T13:03:13Z</time>
      </trkpt>
      <trkpt lat="42.11463" lon="9.12158">
        <ele>1149</ele>
        <time>2018-06-16T13:03:15Z</time>
      </trkpt>
      <trkpt lat="42.11462" lon="9.12145">
        <ele>1149</ele>
        <time>2018-06-16T13:03:25Z</time>
      </trkpt>
      <trkpt lat="42.11452" lon="9.12127">
        <ele>1150</ele>
        <time>2018-06-16T13:03:41Z</time>
      </trkpt>
      <trkpt lat="42.1145" lon="9.12124">
        <ele>1150</ele>
        <time>2018-06-16T13:03:43Z</time>
      </trkpt>
      <trkpt lat="42.11446" lon="9.1212">
        <ele>1150</ele>
        <time>2018-06-16T13:03:45Z</time>
      </trkpt>
      <trkpt lat="42.11439" lon="9.1211">
        <ele>1150</ele>
        <time>2018-06-16T13:03:51Z</time>
      </trkpt>
      <trkpt lat="42.11438" lon="9.12103">
        <ele>1150</ele>
        <time>2018-06-16T13:03:55Z</time>
      </trkpt>
      <trkpt lat="42.11435" lon="9.12086">
        <ele>1149</ele>
        <time>2018-06-16T13:04:07Z</time>
      </trkpt>
      <trkpt lat="42.11431" lon="9.12073">
        <ele>1150</ele>
        <time>2018-06-16T13:04:15Z</time>
      </trkpt>
      <trkpt lat="42.1143" lon="9.1207">
        <ele>1150</ele>
        <time>2018-06-16T13:04:17Z</time>
      </trkpt>
      <trkpt lat="42.11427" lon="9.12064">
        <ele>1150</ele>
        <time>2018-06-16T13:04:21Z</time>
      </trkpt>
      <trkpt lat="42.11422" lon="9.12042">
        <ele>1151</ele>
        <time>2018-06-16T13:04:35Z</time>
      </trkpt>
      <trkpt lat="42.11413" lon="9.11995">
        <ele>1152</ele>
        <time>2018-06-16T13:05:03Z</time>
      </trkpt>
      <trkpt lat="42.11407" lon="9.11957">
        <ele>1156</ele>
        <time>2018-06-16T13:05:27Z</time>
      </trkpt>
      <trkpt lat="42.11404" lon="9.11937">
        <ele>1157</ele>
        <time>2018-06-16T13:05:40Z</time>
      </trkpt>
      <trkpt lat="42.11402" lon="9.11924">
        <ele>1157</ele>
        <time>2018-06-16T13:05:49Z</time>
      </trkpt>
      <trkpt lat="42.11397" lon="9.11909">
        <ele>1159</ele>
        <time>2018-06-16T13:05:59Z</time>
      </trkpt>
      <trkpt lat="42.11393" lon="9.11896">
        <ele>1159</ele>
        <time>2018-06-16T13:06:09Z</time>
      </trkpt>
      <trkpt lat="42.11385" lon="9.11879">
        <ele>1159</ele>
        <time>2018-06-16T13:06:23Z</time>
      </trkpt>
      <trkpt lat="42.1138" lon="9.11864">
        <ele>1159</ele>
        <time>2018-06-16T13:06:34Z</time>
      </trkpt>
      <trkpt lat="42.11372" lon="9.11843">
        <ele>1158</ele>
        <time>2018-06-16T13:06:49Z</time>
      </trkpt>
      <trkpt lat="42.11366" lon="9.11817">
        <ele>1159</ele>
        <time>2018-06-16T13:07:05Z</time>
      </trkpt>
      <trkpt lat="42.1136" lon="9.1179">
        <ele>1159</ele>
        <time>2018-06-16T13:07:21Z</time>
      </trkpt>
      <trkpt lat="42.11344" lon="9.11755">
        <ele>1156</ele>
        <time>2018-06-16T13:07:44Z</time>
      </trkpt>
      <trkpt lat="42.11339" lon="9.11742">
        <ele>1157</ele>
        <time>2018-06-16T13:07:53Z</time>
      </trkpt>
      <trkpt lat="42.11334" lon="9.11734">
        <ele>1159</ele>
        <time>2018-06-16T13:07:59Z</time>
      </trkpt>
      <trkpt lat="42.11322" lon="9.11711">
        <ele>1161</ele>
        <time>2018-06-16T13:08:15Z</time>
      </trkpt>
      <trkpt lat="42.11316" lon="9.117">
        <ele>1162</ele>
        <time>2018-06-16T13:08:23Z</time>
      </trkpt>
      <trkpt lat="42.1131" lon="9.11691">
        <ele>1162</ele>
        <time>2018-06-16T13:08:30Z</time>
      </trkpt>
      <trkpt lat="42.11309" lon="9.11688">
        <ele>1162</ele>
        <time>2018-06-16T13:08:32Z</time>
      </trkpt>
      <trkpt lat="42.11307" lon="9.11662">
        <ele>1165</ele>
        <time>2018-06-16T13:08:49Z</time>
      </trkpt>
      <trkpt lat="42.11301" lon="9.11635">
        <ele>1166</ele>
        <time>2018-06-16T13:09:06Z</time>
      </trkpt>
      <trkpt lat="42.11301" lon="9.11634">
        <ele>1166</ele>
        <time>2018-06-16T13:09:07Z</time>
      </trkpt>
      <trkpt lat="42.11297" lon="9.11624">
        <ele>1166</ele>
        <time>2018-06-16T13:09:13Z</time>
      </trkpt>
      <trkpt lat="42.11289" lon="9.11607">
        <ele>1167</ele>
        <time>2018-06-16T13:09:25Z</time>
      </trkpt>
      <trkpt lat="42.11289" lon="9.11603">
        <ele>1167</ele>
        <time>2018-06-16T13:09:28Z</time>
      </trkpt>
      <trkpt lat="42.11283" lon="9.11587">
        <ele>1167</ele>
        <time>2018-06-16T13:09:43Z</time>
      </trkpt>
      <trkpt lat="42.11277" lon="9.11565">
        <ele>1168</ele>
        <time>2018-06-16T13:09:57Z</time>
      </trkpt>
      <trkpt lat="42.11274" lon="9.11544">
        <ele>1169</ele>
        <time>2018-06-16T13:10:10Z</time>
      </trkpt>
      <trkpt lat="42.11272" lon="9.11533">
        <ele>1169</ele>
        <time>2018-06-16T13:10:17Z</time>
      </trkpt>
      <trkpt lat="42.11254" lon="9.11514">
        <ele>1167</ele>
        <time>2018-06-16T13:10:34Z</time>
      </trkpt>
      <trkpt lat="42.1125" lon="9.11512">
        <ele>1168</ele>
        <time>2018-06-16T13:10:38Z</time>
      </trkpt>
      <trkpt lat="42.11248" lon="9.11497">
        <ele>1166</ele>
        <time>2018-06-16T13:10:47Z</time>
      </trkpt>
      <trkpt lat="42.11251" lon="9.11477">
        <ele>1169</ele>
        <time>2018-06-16T13:10:55Z</time>
      </trkpt>
      <trkpt lat="42.11251" lon="9.11471">
        <ele>1169</ele>
        <time>2018-06-16T13:10:59Z</time>
      </trkpt>
      <trkpt lat="42.11252" lon="9.11437">
        <ele>1168</ele>
        <time>2018-06-16T13:11:20Z</time>
      </trkpt>
      <trkpt lat="42.11249" lon="9.11413">
        <ele>1165</ele>
        <time>2018-06-16T13:11:37Z</time>
      </trkpt>
      <trkpt lat="42.11246" lon="9.11402">
        <ele>1167</ele>
        <time>2018-06-16T13:11:48Z</time>
      </trkpt>
      <trkpt lat="42.11238" lon="9.1139">
        <ele>1169</ele>
        <time>2018-06-16T13:11:55Z</time>
      </trkpt>
      <trkpt lat="42.11215" lon="9.11359">
        <ele>1170</ele>
        <time>2018-06-16T13:12:10Z</time>
      </trkpt>
      <trkpt lat="42.11205" lon="9.11344">
        <ele>1171</ele>
        <time>2018-06-16T13:12:27Z</time>
      </trkpt>
      <trkpt lat="42.11218" lon="9.11299">
        <ele>1168</ele>
        <time>2018-06-16T13:12:47Z</time>
      </trkpt>
      <trkpt lat="42.11219" lon="9.11277">
        <ele>1168</ele>
        <time>2018-06-16T13:13:01Z</time>
      </trkpt>
      <trkpt lat="42.1122" lon="9.11274">
        <ele>1168</ele>
        <time>2018-06-16T13:13:05Z</time>
      </trkpt>
      <trkpt lat="42.11228" lon="9.11268">
        <ele>1168</ele>
        <time>2018-06-16T13:13:23Z</time>
      </trkpt>
      <trkpt lat="42.1123" lon="9.1126">
        <ele>1168</ele>
        <time>2018-06-16T13:13:48Z</time>
      </trkpt>
      <trkpt lat="42.11227" lon="9.1126">
        <ele>1168</ele>
        <time>2018-06-16T13:14:06Z</time>
      </trkpt>
    </trkseg>
  </trk>
</gpx>